<?xml version="1.0" encoding="UTF-8" standalone="no" ?>
<gpx xmlns="http://www.topografix.com/GPX/1/1" xmlns:xsi="http://www.w3.org/2001/XMLSchema-instance" xsi:schemaLocation="http://www.topografix.com/GPX/1/1 http://www.topografix.com/GPX/1/1/gpx.xsd" version="1.1" creator="VisuGPX - https://www.visugpx.com">
  <metadata>
    <name>Tr du Queyras J2 N.D de Clausis - Ref Agnel</name>
    <desc><![CDATA[Deuxième étape du tour du Queyras. On a pris la navette de St Véran à N.D de Clausis afin de nous économiser quelques KMs.]]></desc>
  </metadata>
  <trk>
    <name><![CDATA[2018-08-20 14:56:55]]></name>
    <trkseg>
      <trkpt lat="44.67684" lon="6.91891">
        <ele>2298.17</ele>
        <time>2018-08-20T06:14:57Z</time>
      </trkpt>
      <trkpt lat="44.67684" lon="6.91891">
        <ele>2298.17</ele>
        <time>2018-08-20T06:14:58Z</time>
      </trkpt>
      <trkpt lat="44.67684" lon="6.9189">
        <ele>2297.21</ele>
        <time>2018-08-20T06:15:02Z</time>
      </trkpt>
      <trkpt lat="44.67687" lon="6.91896">
        <ele>2297.21</ele>
        <time>2018-08-20T06:15:06Z</time>
      </trkpt>
      <trkpt lat="44.67686" lon="6.91903">
        <ele>2295.28</ele>
        <time>2018-08-20T06:15:10Z</time>
      </trkpt>
      <trkpt lat="44.67679" lon="6.91932">
        <ele>2300.09</ele>
        <time>2018-08-20T06:15:26Z</time>
      </trkpt>
      <trkpt lat="44.67672" lon="6.9196">
        <ele>2300.09</ele>
        <time>2018-08-20T06:15:43Z</time>
      </trkpt>
      <trkpt lat="44.6767" lon="6.91962">
        <ele>2300.09</ele>
        <time>2018-08-20T06:15:45Z</time>
      </trkpt>
      <trkpt lat="44.67656" lon="6.91966">
        <ele>2301.05</ele>
        <time>2018-08-20T06:15:56Z</time>
      </trkpt>
      <trkpt lat="44.67634" lon="6.91969">
        <ele>2303.94</ele>
        <time>2018-08-20T06:16:15Z</time>
      </trkpt>
      <trkpt lat="44.67614" lon="6.91971">
        <ele>2306.82</ele>
        <time>2018-08-20T06:16:33Z</time>
      </trkpt>
      <trkpt lat="44.67599" lon="6.91979">
        <ele>2309.22</ele>
        <time>2018-08-20T06:16:49Z</time>
      </trkpt>
      <trkpt lat="44.67597" lon="6.91988">
        <ele>2310.67</ele>
        <time>2018-08-20T06:17:03Z</time>
      </trkpt>
      <trkpt lat="44.67596" lon="6.91989">
        <ele>2311.15</ele>
        <time>2018-08-20T06:17:06Z</time>
      </trkpt>
      <trkpt lat="44.67592" lon="6.91992">
        <ele>2311.63</ele>
        <time>2018-08-20T06:17:10Z</time>
      </trkpt>
      <trkpt lat="44.67586" lon="6.91997">
        <ele>2311.63</ele>
        <time>2018-08-20T06:17:16Z</time>
      </trkpt>
      <trkpt lat="44.67581" lon="6.91997">
        <ele>2311.63</ele>
        <time>2018-08-20T06:17:20Z</time>
      </trkpt>
      <trkpt lat="44.67564" lon="6.92007">
        <ele>2314.51</ele>
        <time>2018-08-20T06:17:37Z</time>
      </trkpt>
      <trkpt lat="44.67551" lon="6.92019">
        <ele>2315.95</ele>
        <time>2018-08-20T06:17:51Z</time>
      </trkpt>
      <trkpt lat="44.67547" lon="6.9203">
        <ele>2318.36</ele>
        <time>2018-08-20T06:18:02Z</time>
      </trkpt>
      <trkpt lat="44.67543" lon="6.92042">
        <ele>2320.76</ele>
        <time>2018-08-20T06:18:15Z</time>
      </trkpt>
      <trkpt lat="44.67545" lon="6.92051">
        <ele>2323.64</ele>
        <time>2018-08-20T06:18:26Z</time>
      </trkpt>
      <trkpt lat="44.67549" lon="6.92059">
        <ele>2327.01</ele>
        <time>2018-08-20T06:18:41Z</time>
      </trkpt>
      <trkpt lat="44.67557" lon="6.92062">
        <ele>2330.37</ele>
        <time>2018-08-20T06:18:53Z</time>
      </trkpt>
      <trkpt lat="44.67565" lon="6.92062">
        <ele>2332.78</ele>
        <time>2018-08-20T06:19:06Z</time>
      </trkpt>
      <trkpt lat="44.67573" lon="6.92063">
        <ele>2335.18</ele>
        <time>2018-08-20T06:19:18Z</time>
      </trkpt>
      <trkpt lat="44.67575" lon="6.92066">
        <ele>2336.14</ele>
        <time>2018-08-20T06:19:22Z</time>
      </trkpt>
      <trkpt lat="44.67575" lon="6.92069">
        <ele>2336.62</ele>
        <time>2018-08-20T06:19:24Z</time>
      </trkpt>
      <trkpt lat="44.67572" lon="6.92081">
        <ele>2337.58</ele>
        <time>2018-08-20T06:19:34Z</time>
      </trkpt>
      <trkpt lat="44.67572" lon="6.92083">
        <ele>2338.06</ele>
        <time>2018-08-20T06:19:36Z</time>
      </trkpt>
      <trkpt lat="44.67571" lon="6.92089">
        <ele>2338.06</ele>
        <time>2018-08-20T06:19:41Z</time>
      </trkpt>
      <trkpt lat="44.6757" lon="6.92097">
        <ele>2339.02</ele>
        <time>2018-08-20T06:19:53Z</time>
      </trkpt>
      <trkpt lat="44.67569" lon="6.92098">
        <ele>2339.02</ele>
        <time>2018-08-20T06:19:54Z</time>
      </trkpt>
      <trkpt lat="44.67562" lon="6.92122">
        <ele>2339.51</ele>
        <time>2018-08-20T06:20:10Z</time>
      </trkpt>
      <trkpt lat="44.67552" lon="6.92144">
        <ele>2339.51</ele>
        <time>2018-08-20T06:20:25Z</time>
      </trkpt>
      <trkpt lat="44.67547" lon="6.92167">
        <ele>2339.99</ele>
        <time>2018-08-20T06:20:40Z</time>
      </trkpt>
      <trkpt lat="44.67545" lon="6.92192">
        <ele>2340.47</ele>
        <time>2018-08-20T06:20:55Z</time>
      </trkpt>
      <trkpt lat="44.67541" lon="6.92211">
        <ele>2340.47</ele>
        <time>2018-08-20T06:21:07Z</time>
      </trkpt>
      <trkpt lat="44.67525" lon="6.92229">
        <ele>2340.47</ele>
        <time>2018-08-20T06:21:22Z</time>
      </trkpt>
      <trkpt lat="44.67523" lon="6.92228">
        <ele>2340.47</ele>
        <time>2018-08-20T06:21:24Z</time>
      </trkpt>
      <trkpt lat="44.67502" lon="6.9223">
        <ele>2339.99</ele>
        <time>2018-08-20T06:21:41Z</time>
      </trkpt>
      <trkpt lat="44.67485" lon="6.92219">
        <ele>2340.47</ele>
        <time>2018-08-20T06:21:56Z</time>
      </trkpt>
      <trkpt lat="44.6748" lon="6.92211">
        <ele>2341.91</ele>
        <time>2018-08-20T06:22:06Z</time>
      </trkpt>
      <trkpt lat="44.67473" lon="6.92187">
        <ele>2343.83</ele>
        <time>2018-08-20T06:22:23Z</time>
      </trkpt>
      <trkpt lat="44.67472" lon="6.92186">
        <ele>2343.83</ele>
        <time>2018-08-20T06:22:24Z</time>
      </trkpt>
      <trkpt lat="44.67469" lon="6.92181">
        <ele>2344.31</ele>
        <time>2018-08-20T06:22:29Z</time>
      </trkpt>
      <trkpt lat="44.67453" lon="6.92169">
        <ele>2346.23</ele>
        <time>2018-08-20T06:22:46Z</time>
      </trkpt>
      <trkpt lat="44.67438" lon="6.92159">
        <ele>2348.64</ele>
        <time>2018-08-20T06:23:01Z</time>
      </trkpt>
      <trkpt lat="44.67436" lon="6.92159">
        <ele>2348.64</ele>
        <time>2018-08-20T06:23:03Z</time>
      </trkpt>
      <trkpt lat="44.67416" lon="6.92151">
        <ele>2351.52</ele>
        <time>2018-08-20T06:23:22Z</time>
      </trkpt>
      <trkpt lat="44.67406" lon="6.92148">
        <ele>2352.96</ele>
        <time>2018-08-20T06:23:31Z</time>
      </trkpt>
      <trkpt lat="44.67388" lon="6.92152">
        <ele>2355.85</ele>
        <time>2018-08-20T06:23:50Z</time>
      </trkpt>
      <trkpt lat="44.67369" lon="6.92154">
        <ele>2358.73</ele>
        <time>2018-08-20T06:24:08Z</time>
      </trkpt>
      <trkpt lat="44.67354" lon="6.92156">
        <ele>2361.14</ele>
        <time>2018-08-20T06:24:23Z</time>
      </trkpt>
      <trkpt lat="44.67341" lon="6.92163">
        <ele>2362.58</ele>
        <time>2018-08-20T06:24:38Z</time>
      </trkpt>
      <trkpt lat="44.67324" lon="6.92169">
        <ele>2364.5</ele>
        <time>2018-08-20T06:24:54Z</time>
      </trkpt>
      <trkpt lat="44.67313" lon="6.92182">
        <ele>2365.94</ele>
        <time>2018-08-20T06:25:09Z</time>
      </trkpt>
      <trkpt lat="44.673" lon="6.92196">
        <ele>2368.35</ele>
        <time>2018-08-20T06:25:24Z</time>
      </trkpt>
      <trkpt lat="44.67288" lon="6.92209">
        <ele>2369.79</ele>
        <time>2018-08-20T06:25:38Z</time>
      </trkpt>
      <trkpt lat="44.67282" lon="6.92216">
        <ele>2371.23</ele>
        <time>2018-08-20T06:25:46Z</time>
      </trkpt>
      <trkpt lat="44.67279" lon="6.92221">
        <ele>2371.23</ele>
        <time>2018-08-20T06:25:50Z</time>
      </trkpt>
      <trkpt lat="44.67278" lon="6.92224">
        <ele>2372.19</ele>
        <time>2018-08-20T06:25:52Z</time>
      </trkpt>
      <trkpt lat="44.67267" lon="6.92236">
        <ele>2374.11</ele>
        <time>2018-08-20T06:26:07Z</time>
      </trkpt>
      <trkpt lat="44.67261" lon="6.92243">
        <ele>2375.55</ele>
        <time>2018-08-20T06:26:15Z</time>
      </trkpt>
      <trkpt lat="44.67247" lon="6.92258">
        <ele>2377.96</ele>
        <time>2018-08-20T06:26:32Z</time>
      </trkpt>
      <trkpt lat="44.67243" lon="6.92263">
        <ele>2378.44</ele>
        <time>2018-08-20T06:26:37Z</time>
      </trkpt>
      <trkpt lat="44.67233" lon="6.92273">
        <ele>2380.84</ele>
        <time>2018-08-20T06:26:51Z</time>
      </trkpt>
      <trkpt lat="44.67231" lon="6.92275">
        <ele>2381.8</ele>
        <time>2018-08-20T06:26:54Z</time>
      </trkpt>
      <trkpt lat="44.67227" lon="6.9228">
        <ele>2382.76</ele>
        <time>2018-08-20T06:27:00Z</time>
      </trkpt>
      <trkpt lat="44.67219" lon="6.9229">
        <ele>2385.17</ele>
        <time>2018-08-20T06:27:13Z</time>
      </trkpt>
      <trkpt lat="44.67209" lon="6.92302">
        <ele>2388.05</ele>
        <time>2018-08-20T06:27:28Z</time>
      </trkpt>
      <trkpt lat="44.67199" lon="6.92313">
        <ele>2389.97</ele>
        <time>2018-08-20T06:27:42Z</time>
      </trkpt>
      <trkpt lat="44.67195" lon="6.92323">
        <ele>2392.38</ele>
        <time>2018-08-20T06:27:55Z</time>
      </trkpt>
      <trkpt lat="44.67192" lon="6.92323">
        <ele>2392.86</ele>
        <time>2018-08-20T06:27:58Z</time>
      </trkpt>
      <trkpt lat="44.6719" lon="6.92321">
        <ele>2392.38</ele>
        <time>2018-08-20T06:28:13Z</time>
      </trkpt>
      <trkpt lat="44.67192" lon="6.92319">
        <ele>2392.86</ele>
        <time>2018-08-20T06:28:26Z</time>
      </trkpt>
      <trkpt lat="44.67192" lon="6.9232">
        <ele>2391.42</ele>
        <time>2018-08-20T06:28:58Z</time>
      </trkpt>
      <trkpt lat="44.67192" lon="6.92321">
        <ele>2391.9</ele>
        <time>2018-08-20T06:29:30Z</time>
      </trkpt>
      <trkpt lat="44.6719" lon="6.92323">
        <ele>2392.86</ele>
        <time>2018-08-20T06:29:40Z</time>
      </trkpt>
      <trkpt lat="44.67191" lon="6.92322">
        <ele>2392.86</ele>
        <time>2018-08-20T06:29:55Z</time>
      </trkpt>
      <trkpt lat="44.67191" lon="6.92321">
        <ele>2392.86</ele>
        <time>2018-08-20T06:30:16Z</time>
      </trkpt>
      <trkpt lat="44.67189" lon="6.92321">
        <ele>2392.86</ele>
        <time>2018-08-20T06:30:20Z</time>
      </trkpt>
      <trkpt lat="44.67191" lon="6.92322">
        <ele>2393.34</ele>
        <time>2018-08-20T06:30:31Z</time>
      </trkpt>
      <trkpt lat="44.67191" lon="6.92324">
        <ele>2393.34</ele>
        <time>2018-08-20T06:30:57Z</time>
      </trkpt>
      <trkpt lat="44.67189" lon="6.92326">
        <ele>2393.82</ele>
        <time>2018-08-20T06:31:08Z</time>
      </trkpt>
      <trkpt lat="44.67189" lon="6.92328">
        <ele>2394.3</ele>
        <time>2018-08-20T06:31:21Z</time>
      </trkpt>
      <trkpt lat="44.67188" lon="6.92328">
        <ele>2394.3</ele>
        <time>2018-08-20T06:31:33Z</time>
      </trkpt>
      <trkpt lat="44.67194" lon="6.92327">
        <ele>2394.3</ele>
        <time>2018-08-20T06:31:39Z</time>
      </trkpt>
      <trkpt lat="44.67204" lon="6.92327">
        <ele>2391.42</ele>
        <time>2018-08-20T06:31:50Z</time>
      </trkpt>
      <trkpt lat="44.67203" lon="6.92343">
        <ele>2388.05</ele>
        <time>2018-08-20T06:32:00Z</time>
      </trkpt>
      <trkpt lat="44.67204" lon="6.92351">
        <ele>2387.09</ele>
        <time>2018-08-20T06:32:05Z</time>
      </trkpt>
      <trkpt lat="44.67191" lon="6.92368">
        <ele>2386.13</ele>
        <time>2018-08-20T06:32:21Z</time>
      </trkpt>
      <trkpt lat="44.67178" lon="6.92386">
        <ele>2386.13</ele>
        <time>2018-08-20T06:32:37Z</time>
      </trkpt>
      <trkpt lat="44.67175" lon="6.9239">
        <ele>2386.13</ele>
        <time>2018-08-20T06:32:41Z</time>
      </trkpt>
      <trkpt lat="44.6717" lon="6.92397">
        <ele>2387.57</ele>
        <time>2018-08-20T06:32:48Z</time>
      </trkpt>
      <trkpt lat="44.67165" lon="6.92409">
        <ele>2388.53</ele>
        <time>2018-08-20T06:32:58Z</time>
      </trkpt>
      <trkpt lat="44.67163" lon="6.92412">
        <ele>2389.01</ele>
        <time>2018-08-20T06:33:00Z</time>
      </trkpt>
      <trkpt lat="44.67159" lon="6.92425">
        <ele>2389.01</ele>
        <time>2018-08-20T06:33:10Z</time>
      </trkpt>
      <trkpt lat="44.67157" lon="6.92426">
        <ele>2389.49</ele>
        <time>2018-08-20T06:33:12Z</time>
      </trkpt>
      <trkpt lat="44.67148" lon="6.9245">
        <ele>2389.97</ele>
        <time>2018-08-20T06:33:30Z</time>
      </trkpt>
      <trkpt lat="44.67147" lon="6.92452">
        <ele>2389.97</ele>
        <time>2018-08-20T06:33:31Z</time>
      </trkpt>
      <trkpt lat="44.67144" lon="6.92457">
        <ele>2390.46</ele>
        <time>2018-08-20T06:33:35Z</time>
      </trkpt>
      <trkpt lat="44.67141" lon="6.92463">
        <ele>2391.42</ele>
        <time>2018-08-20T06:33:47Z</time>
      </trkpt>
      <trkpt lat="44.67136" lon="6.92474">
        <ele>2391.9</ele>
        <time>2018-08-20T06:33:58Z</time>
      </trkpt>
      <trkpt lat="44.67124" lon="6.92484">
        <ele>2392.38</ele>
        <time>2018-08-20T06:34:13Z</time>
      </trkpt>
      <trkpt lat="44.67113" lon="6.92493">
        <ele>2394.3</ele>
        <time>2018-08-20T06:34:25Z</time>
      </trkpt>
      <trkpt lat="44.67099" lon="6.92505">
        <ele>2396.22</ele>
        <time>2018-08-20T06:34:41Z</time>
      </trkpt>
      <trkpt lat="44.67087" lon="6.92516">
        <ele>2397.67</ele>
        <time>2018-08-20T06:34:54Z</time>
      </trkpt>
      <trkpt lat="44.67071" lon="6.92529">
        <ele>2400.07</ele>
        <time>2018-08-20T06:35:12Z</time>
      </trkpt>
      <trkpt lat="44.67061" lon="6.92543">
        <ele>2401.03</ele>
        <time>2018-08-20T06:35:26Z</time>
      </trkpt>
      <trkpt lat="44.67052" lon="6.92551">
        <ele>2402.95</ele>
        <time>2018-08-20T06:35:37Z</time>
      </trkpt>
      <trkpt lat="44.6705" lon="6.92552">
        <ele>2403.43</ele>
        <time>2018-08-20T06:35:39Z</time>
      </trkpt>
      <trkpt lat="44.67036" lon="6.92566">
        <ele>2405.36</ele>
        <time>2018-08-20T06:35:56Z</time>
      </trkpt>
      <trkpt lat="44.67033" lon="6.92569">
        <ele>2405.84</ele>
        <time>2018-08-20T06:36:00Z</time>
      </trkpt>
      <trkpt lat="44.67029" lon="6.92587">
        <ele>2404.39</ele>
        <time>2018-08-20T06:36:13Z</time>
      </trkpt>
      <trkpt lat="44.67028" lon="6.92588">
        <ele>2408.24</ele>
        <time>2018-08-20T06:36:14Z</time>
      </trkpt>
      <trkpt lat="44.67021" lon="6.92609">
        <ele>2406.32</ele>
        <time>2018-08-20T06:36:27Z</time>
      </trkpt>
      <trkpt lat="44.67019" lon="6.92634">
        <ele>2406.32</ele>
        <time>2018-08-20T06:36:42Z</time>
      </trkpt>
      <trkpt lat="44.67019" lon="6.92645">
        <ele>2407.76</ele>
        <time>2018-08-20T06:36:50Z</time>
      </trkpt>
      <trkpt lat="44.67022" lon="6.92655">
        <ele>2410.64</ele>
        <time>2018-08-20T06:37:01Z</time>
      </trkpt>
      <trkpt lat="44.67023" lon="6.92657">
        <ele>2411.12</ele>
        <time>2018-08-20T06:37:03Z</time>
      </trkpt>
      <trkpt lat="44.67031" lon="6.92666">
        <ele>2413.53</ele>
        <time>2018-08-20T06:37:15Z</time>
      </trkpt>
      <trkpt lat="44.67033" lon="6.92673">
        <ele>2414.01</ele>
        <time>2018-08-20T06:37:21Z</time>
      </trkpt>
      <trkpt lat="44.67035" lon="6.92673">
        <ele>2414.01</ele>
        <time>2018-08-20T06:37:23Z</time>
      </trkpt>
      <trkpt lat="44.67039" lon="6.92689">
        <ele>2416.41</ele>
        <time>2018-08-20T06:37:37Z</time>
      </trkpt>
      <trkpt lat="44.67047" lon="6.92703">
        <ele>2418.33</ele>
        <time>2018-08-20T06:37:51Z</time>
      </trkpt>
      <trkpt lat="44.6705" lon="6.9272">
        <ele>2421.22</ele>
        <time>2018-08-20T06:38:06Z</time>
      </trkpt>
      <trkpt lat="44.67051" lon="6.92735">
        <ele>2423.14</ele>
        <time>2018-08-20T06:38:18Z</time>
      </trkpt>
      <trkpt lat="44.67051" lon="6.9274">
        <ele>2423.14</ele>
        <time>2018-08-20T06:38:22Z</time>
      </trkpt>
      <trkpt lat="44.67048" lon="6.92745">
        <ele>2423.62</ele>
        <time>2018-08-20T06:38:33Z</time>
      </trkpt>
      <trkpt lat="44.67048" lon="6.92742">
        <ele>2422.18</ele>
        <time>2018-08-20T06:38:45Z</time>
      </trkpt>
      <trkpt lat="44.67047" lon="6.92742">
        <ele>2422.18</ele>
        <time>2018-08-20T06:39:00Z</time>
      </trkpt>
      <trkpt lat="44.67046" lon="6.92742">
        <ele>2422.18</ele>
        <time>2018-08-20T06:39:02Z</time>
      </trkpt>
      <trkpt lat="44.67035" lon="6.92743">
        <ele>2420.26</ele>
        <time>2018-08-20T06:39:11Z</time>
      </trkpt>
      <trkpt lat="44.67022" lon="6.92759">
        <ele>2418.33</ele>
        <time>2018-08-20T06:39:26Z</time>
      </trkpt>
      <trkpt lat="44.67012" lon="6.92783">
        <ele>2419.3</ele>
        <time>2018-08-20T06:39:41Z</time>
      </trkpt>
      <trkpt lat="44.67008" lon="6.92805">
        <ele>2419.3</ele>
        <time>2018-08-20T06:39:56Z</time>
      </trkpt>
      <trkpt lat="44.67005" lon="6.92811">
        <ele>2418.33</ele>
        <time>2018-08-20T06:40:01Z</time>
      </trkpt>
      <trkpt lat="44.66997" lon="6.92837">
        <ele>2418.33</ele>
        <time>2018-08-20T06:40:16Z</time>
      </trkpt>
      <trkpt lat="44.66993" lon="6.92866">
        <ele>2417.37</ele>
        <time>2018-08-20T06:40:32Z</time>
      </trkpt>
      <trkpt lat="44.66994" lon="6.92871">
        <ele>2417.37</ele>
        <time>2018-08-20T06:40:35Z</time>
      </trkpt>
      <trkpt lat="44.66994" lon="6.92881">
        <ele>2418.81</ele>
        <time>2018-08-20T06:40:41Z</time>
      </trkpt>
      <trkpt lat="44.66993" lon="6.92884">
        <ele>2417.37</ele>
        <time>2018-08-20T06:40:43Z</time>
      </trkpt>
      <trkpt lat="44.6699" lon="6.9291">
        <ele>2417.37</ele>
        <time>2018-08-20T06:40:58Z</time>
      </trkpt>
      <trkpt lat="44.66988" lon="6.92919">
        <ele>2417.37</ele>
        <time>2018-08-20T06:41:03Z</time>
      </trkpt>
      <trkpt lat="44.66982" lon="6.92943">
        <ele>2416.89</ele>
        <time>2018-08-20T06:41:17Z</time>
      </trkpt>
      <trkpt lat="44.66975" lon="6.92971">
        <ele>2416.41</ele>
        <time>2018-08-20T06:41:34Z</time>
      </trkpt>
      <trkpt lat="44.66974" lon="6.92978">
        <ele>2416.41</ele>
        <time>2018-08-20T06:41:38Z</time>
      </trkpt>
      <trkpt lat="44.66969" lon="6.93005">
        <ele>2415.45</ele>
        <time>2018-08-20T06:41:53Z</time>
      </trkpt>
      <trkpt lat="44.66959" lon="6.93024">
        <ele>2414.97</ele>
        <time>2018-08-20T06:42:07Z</time>
      </trkpt>
      <trkpt lat="44.66952" lon="6.93027">
        <ele>2412.57</ele>
        <time>2018-08-20T06:42:15Z</time>
      </trkpt>
      <trkpt lat="44.66948" lon="6.93025">
        <ele>2411.12</ele>
        <time>2018-08-20T06:42:19Z</time>
      </trkpt>
      <trkpt lat="44.6694" lon="6.93032">
        <ele>2409.68</ele>
        <time>2018-08-20T06:42:27Z</time>
      </trkpt>
      <trkpt lat="44.66927" lon="6.93055">
        <ele>2407.76</ele>
        <time>2018-08-20T06:42:44Z</time>
      </trkpt>
      <trkpt lat="44.66924" lon="6.93061">
        <ele>2406.8</ele>
        <time>2018-08-20T06:42:48Z</time>
      </trkpt>
      <trkpt lat="44.66925" lon="6.93093">
        <ele>2406.32</ele>
        <time>2018-08-20T06:43:06Z</time>
      </trkpt>
      <trkpt lat="44.66914" lon="6.9311">
        <ele>2405.84</ele>
        <time>2018-08-20T06:43:20Z</time>
      </trkpt>
      <trkpt lat="44.66901" lon="6.93129">
        <ele>2404.88</ele>
        <time>2018-08-20T06:43:35Z</time>
      </trkpt>
      <trkpt lat="44.66898" lon="6.93133">
        <ele>2404.88</ele>
        <time>2018-08-20T06:43:39Z</time>
      </trkpt>
      <trkpt lat="44.66892" lon="6.93156">
        <ele>2405.84</ele>
        <time>2018-08-20T06:43:54Z</time>
      </trkpt>
      <trkpt lat="44.66888" lon="6.93176">
        <ele>2405.84</ele>
        <time>2018-08-20T06:44:06Z</time>
      </trkpt>
      <trkpt lat="44.66882" lon="6.93196">
        <ele>2406.32</ele>
        <time>2018-08-20T06:44:20Z</time>
      </trkpt>
      <trkpt lat="44.66877" lon="6.93223">
        <ele>2406.8</ele>
        <time>2018-08-20T06:44:36Z</time>
      </trkpt>
      <trkpt lat="44.66875" lon="6.93239">
        <ele>2406.8</ele>
        <time>2018-08-20T06:44:48Z</time>
      </trkpt>
      <trkpt lat="44.66872" lon="6.93246">
        <ele>2406.8</ele>
        <time>2018-08-20T06:44:53Z</time>
      </trkpt>
      <trkpt lat="44.66872" lon="6.93249">
        <ele>2406.8</ele>
        <time>2018-08-20T06:44:55Z</time>
      </trkpt>
      <trkpt lat="44.6686" lon="6.93268">
        <ele>2407.28</ele>
        <time>2018-08-20T06:45:11Z</time>
      </trkpt>
      <trkpt lat="44.6685" lon="6.93289">
        <ele>2407.28</ele>
        <time>2018-08-20T06:45:25Z</time>
      </trkpt>
      <trkpt lat="44.6684" lon="6.93308">
        <ele>2407.76</ele>
        <time>2018-08-20T06:45:40Z</time>
      </trkpt>
      <trkpt lat="44.66831" lon="6.93318">
        <ele>2408.72</ele>
        <time>2018-08-20T06:45:52Z</time>
      </trkpt>
      <trkpt lat="44.66821" lon="6.9334">
        <ele>2409.68</ele>
        <time>2018-08-20T06:46:08Z</time>
      </trkpt>
      <trkpt lat="44.66818" lon="6.93349">
        <ele>2410.16</ele>
        <time>2018-08-20T06:46:14Z</time>
      </trkpt>
      <trkpt lat="44.66808" lon="6.93364">
        <ele>2411.6</ele>
        <time>2018-08-20T06:46:28Z</time>
      </trkpt>
      <trkpt lat="44.66795" lon="6.93374">
        <ele>2413.05</ele>
        <time>2018-08-20T06:46:42Z</time>
      </trkpt>
      <trkpt lat="44.6679" lon="6.93377">
        <ele>2414.01</ele>
        <time>2018-08-20T06:46:47Z</time>
      </trkpt>
      <trkpt lat="44.66777" lon="6.9338">
        <ele>2416.41</ele>
        <time>2018-08-20T06:47:01Z</time>
      </trkpt>
      <trkpt lat="44.66775" lon="6.93389">
        <ele>2417.37</ele>
        <time>2018-08-20T06:47:12Z</time>
      </trkpt>
      <trkpt lat="44.66778" lon="6.93395">
        <ele>2417.37</ele>
        <time>2018-08-20T06:47:16Z</time>
      </trkpt>
      <trkpt lat="44.66779" lon="6.93416">
        <ele>2418.81</ele>
        <time>2018-08-20T06:47:33Z</time>
      </trkpt>
      <trkpt lat="44.6678" lon="6.93422">
        <ele>2419.3</ele>
        <time>2018-08-20T06:47:37Z</time>
      </trkpt>
      <trkpt lat="44.66781" lon="6.93426">
        <ele>2418.33</ele>
        <time>2018-08-20T06:47:40Z</time>
      </trkpt>
      <trkpt lat="44.66783" lon="6.93436">
        <ele>2419.3</ele>
        <time>2018-08-20T06:47:47Z</time>
      </trkpt>
      <trkpt lat="44.66779" lon="6.93459">
        <ele>2421.22</ele>
        <time>2018-08-20T06:48:03Z</time>
      </trkpt>
      <trkpt lat="44.66777" lon="6.93474">
        <ele>2422.66</ele>
        <time>2018-08-20T06:48:16Z</time>
      </trkpt>
      <trkpt lat="44.66777" lon="6.93486">
        <ele>2423.14</ele>
        <time>2018-08-20T06:48:28Z</time>
      </trkpt>
      <trkpt lat="44.66776" lon="6.93501">
        <ele>2425.06</ele>
        <time>2018-08-20T06:48:42Z</time>
      </trkpt>
      <trkpt lat="44.66779" lon="6.93513">
        <ele>2426.5</ele>
        <time>2018-08-20T06:48:55Z</time>
      </trkpt>
      <trkpt lat="44.66784" lon="6.93515">
        <ele>2426.99</ele>
        <time>2018-08-20T06:49:01Z</time>
      </trkpt>
      <trkpt lat="44.66792" lon="6.93524">
        <ele>2429.87</ele>
        <time>2018-08-20T06:49:14Z</time>
      </trkpt>
      <trkpt lat="44.66788" lon="6.93532">
        <ele>2432.27</ele>
        <time>2018-08-20T06:49:25Z</time>
      </trkpt>
      <trkpt lat="44.66783" lon="6.93532">
        <ele>2434.68</ele>
        <time>2018-08-20T06:49:38Z</time>
      </trkpt>
      <trkpt lat="44.6678" lon="6.93536">
        <ele>2437.56</ele>
        <time>2018-08-20T06:49:51Z</time>
      </trkpt>
      <trkpt lat="44.66777" lon="6.93538">
        <ele>2439.96</ele>
        <time>2018-08-20T06:50:04Z</time>
      </trkpt>
      <trkpt lat="44.66777" lon="6.93544">
        <ele>2441.41</ele>
        <time>2018-08-20T06:50:15Z</time>
      </trkpt>
      <trkpt lat="44.66776" lon="6.93549">
        <ele>2443.33</ele>
        <time>2018-08-20T06:50:28Z</time>
      </trkpt>
      <trkpt lat="44.66775" lon="6.93558">
        <ele>2446.21</ele>
        <time>2018-08-20T06:50:42Z</time>
      </trkpt>
      <trkpt lat="44.66779" lon="6.93562">
        <ele>2448.13</ele>
        <time>2018-08-20T06:50:54Z</time>
      </trkpt>
      <trkpt lat="44.66779" lon="6.93572">
        <ele>2450.06</ele>
        <time>2018-08-20T06:51:07Z</time>
      </trkpt>
      <trkpt lat="44.66775" lon="6.93579">
        <ele>2453.42</ele>
        <time>2018-08-20T06:51:22Z</time>
      </trkpt>
      <trkpt lat="44.66771" lon="6.93583">
        <ele>2455.34</ele>
        <time>2018-08-20T06:51:35Z</time>
      </trkpt>
      <trkpt lat="44.66769" lon="6.93591">
        <ele>2458.71</ele>
        <time>2018-08-20T06:51:49Z</time>
      </trkpt>
      <trkpt lat="44.66772" lon="6.9359">
        <ele>2458.71</ele>
        <time>2018-08-20T06:52:06Z</time>
      </trkpt>
      <trkpt lat="44.66772" lon="6.93591">
        <ele>2458.71</ele>
        <time>2018-08-20T06:52:22Z</time>
      </trkpt>
      <trkpt lat="44.66772" lon="6.93597">
        <ele>2458.71</ele>
        <time>2018-08-20T06:52:36Z</time>
      </trkpt>
      <trkpt lat="44.66771" lon="6.93602">
        <ele>2459.67</ele>
        <time>2018-08-20T06:52:54Z</time>
      </trkpt>
      <trkpt lat="44.66771" lon="6.93604">
        <ele>2459.67</ele>
        <time>2018-08-20T06:53:01Z</time>
      </trkpt>
      <trkpt lat="44.66772" lon="6.93617">
        <ele>2460.15</ele>
        <time>2018-08-20T06:53:11Z</time>
      </trkpt>
      <trkpt lat="44.66772" lon="6.93641">
        <ele>2460.63</ele>
        <time>2018-08-20T06:53:25Z</time>
      </trkpt>
      <trkpt lat="44.66773" lon="6.93654">
        <ele>2463.52</ele>
        <time>2018-08-20T06:53:38Z</time>
      </trkpt>
      <trkpt lat="44.66775" lon="6.93669">
        <ele>2464</ele>
        <time>2018-08-20T06:53:51Z</time>
      </trkpt>
      <trkpt lat="44.66777" lon="6.9368">
        <ele>2464.48</ele>
        <time>2018-08-20T06:53:58Z</time>
      </trkpt>
      <trkpt lat="44.66779" lon="6.93698">
        <ele>2465.92</ele>
        <time>2018-08-20T06:54:12Z</time>
      </trkpt>
      <trkpt lat="44.6678" lon="6.93704">
        <ele>2466.88</ele>
        <time>2018-08-20T06:54:16Z</time>
      </trkpt>
      <trkpt lat="44.66785" lon="6.93718">
        <ele>2467.36</ele>
        <time>2018-08-20T06:54:27Z</time>
      </trkpt>
      <trkpt lat="44.66791" lon="6.93738">
        <ele>2467.84</ele>
        <time>2018-08-20T06:54:41Z</time>
      </trkpt>
      <trkpt lat="44.66791" lon="6.93756">
        <ele>2469.28</ele>
        <time>2018-08-20T06:54:53Z</time>
      </trkpt>
      <trkpt lat="44.66785" lon="6.93774">
        <ele>2470.24</ele>
        <time>2018-08-20T06:55:06Z</time>
      </trkpt>
      <trkpt lat="44.6678" lon="6.93786">
        <ele>2471.21</ele>
        <time>2018-08-20T06:55:16Z</time>
      </trkpt>
      <trkpt lat="44.66767" lon="6.93797">
        <ele>2471.21</ele>
        <time>2018-08-20T06:55:30Z</time>
      </trkpt>
      <trkpt lat="44.66758" lon="6.93803">
        <ele>2471.21</ele>
        <time>2018-08-20T06:55:39Z</time>
      </trkpt>
      <trkpt lat="44.66754" lon="6.93803">
        <ele>2472.17</ele>
        <time>2018-08-20T06:55:43Z</time>
      </trkpt>
      <trkpt lat="44.66752" lon="6.93803">
        <ele>2472.17</ele>
        <time>2018-08-20T06:55:45Z</time>
      </trkpt>
      <trkpt lat="44.66744" lon="6.93807">
        <ele>2473.13</ele>
        <time>2018-08-20T06:55:54Z</time>
      </trkpt>
      <trkpt lat="44.66733" lon="6.93826">
        <ele>2473.13</ele>
        <time>2018-08-20T06:56:10Z</time>
      </trkpt>
      <trkpt lat="44.66725" lon="6.93837">
        <ele>2473.13</ele>
        <time>2018-08-20T06:56:20Z</time>
      </trkpt>
      <trkpt lat="44.66714" lon="6.93852">
        <ele>2473.61</ele>
        <time>2018-08-20T06:56:35Z</time>
      </trkpt>
      <trkpt lat="44.66708" lon="6.93861">
        <ele>2473.61</ele>
        <time>2018-08-20T06:56:43Z</time>
      </trkpt>
      <trkpt lat="44.66702" lon="6.93866">
        <ele>2474.09</ele>
        <time>2018-08-20T06:56:49Z</time>
      </trkpt>
      <trkpt lat="44.66691" lon="6.93868">
        <ele>2474.57</ele>
        <time>2018-08-20T06:56:59Z</time>
      </trkpt>
      <trkpt lat="44.66686" lon="6.93877">
        <ele>2475.05</ele>
        <time>2018-08-20T06:57:06Z</time>
      </trkpt>
      <trkpt lat="44.66678" lon="6.939">
        <ele>2475.53</ele>
        <time>2018-08-20T06:57:22Z</time>
      </trkpt>
      <trkpt lat="44.66676" lon="6.9391">
        <ele>2476.01</ele>
        <time>2018-08-20T06:57:29Z</time>
      </trkpt>
      <trkpt lat="44.66677" lon="6.93932">
        <ele>2478.42</ele>
        <time>2018-08-20T06:57:46Z</time>
      </trkpt>
      <trkpt lat="44.66678" lon="6.93945">
        <ele>2480.82</ele>
        <time>2018-08-20T06:58:00Z</time>
      </trkpt>
      <trkpt lat="44.66677" lon="6.93961">
        <ele>2481.78</ele>
        <time>2018-08-20T06:58:14Z</time>
      </trkpt>
      <trkpt lat="44.66674" lon="6.9397">
        <ele>2482.74</ele>
        <time>2018-08-20T06:58:25Z</time>
      </trkpt>
      <trkpt lat="44.66675" lon="6.93976">
        <ele>2482.74</ele>
        <time>2018-08-20T06:58:30Z</time>
      </trkpt>
      <trkpt lat="44.66678" lon="6.93992">
        <ele>2485.15</ele>
        <time>2018-08-20T06:58:44Z</time>
      </trkpt>
      <trkpt lat="44.6668" lon="6.94006">
        <ele>2487.07</ele>
        <time>2018-08-20T06:58:57Z</time>
      </trkpt>
      <trkpt lat="44.66677" lon="6.94019">
        <ele>2489.95</ele>
        <time>2018-08-20T06:59:11Z</time>
      </trkpt>
      <trkpt lat="44.66669" lon="6.94019">
        <ele>2491.87</ele>
        <time>2018-08-20T06:59:24Z</time>
      </trkpt>
      <trkpt lat="44.66663" lon="6.94022">
        <ele>2494.76</ele>
        <time>2018-08-20T06:59:36Z</time>
      </trkpt>
      <trkpt lat="44.66661" lon="6.94027">
        <ele>2495.24</ele>
        <time>2018-08-20T06:59:41Z</time>
      </trkpt>
      <trkpt lat="44.66658" lon="6.94047">
        <ele>2496.2</ele>
        <time>2018-08-20T06:59:56Z</time>
      </trkpt>
      <trkpt lat="44.66651" lon="6.94057">
        <ele>2497.16</ele>
        <time>2018-08-20T07:00:10Z</time>
      </trkpt>
      <trkpt lat="44.66648" lon="6.9406">
        <ele>2498.12</ele>
        <time>2018-08-20T07:00:24Z</time>
      </trkpt>
      <trkpt lat="44.66646" lon="6.94059">
        <ele>2498.12</ele>
        <time>2018-08-20T07:00:51Z</time>
      </trkpt>
      <trkpt lat="44.66647" lon="6.94059">
        <ele>2498.6</ele>
        <time>2018-08-20T07:01:18Z</time>
      </trkpt>
      <trkpt lat="44.66646" lon="6.94056">
        <ele>2498.6</ele>
        <time>2018-08-20T07:01:40Z</time>
      </trkpt>
      <trkpt lat="44.66647" lon="6.94057">
        <ele>2498.6</ele>
        <time>2018-08-20T07:02:07Z</time>
      </trkpt>
      <trkpt lat="44.66646" lon="6.94056">
        <ele>2498.6</ele>
        <time>2018-08-20T07:02:24Z</time>
      </trkpt>
      <trkpt lat="44.66645" lon="6.9406">
        <ele>2499.08</ele>
        <time>2018-08-20T07:02:52Z</time>
      </trkpt>
      <trkpt lat="44.66645" lon="6.94061">
        <ele>2499.08</ele>
        <time>2018-08-20T07:03:12Z</time>
      </trkpt>
      <trkpt lat="44.66648" lon="6.9406">
        <ele>2499.08</ele>
        <time>2018-08-20T07:03:29Z</time>
      </trkpt>
      <trkpt lat="44.6665" lon="6.9406">
        <ele>2499.57</ele>
        <time>2018-08-20T07:04:02Z</time>
      </trkpt>
      <trkpt lat="44.6665" lon="6.94061">
        <ele>2499.57</ele>
        <time>2018-08-20T07:04:15Z</time>
      </trkpt>
      <trkpt lat="44.6665" lon="6.94064">
        <ele>2499.57</ele>
        <time>2018-08-20T07:04:17Z</time>
      </trkpt>
      <trkpt lat="44.6665" lon="6.94068">
        <ele>2498.12</ele>
        <time>2018-08-20T07:04:21Z</time>
      </trkpt>
      <trkpt lat="44.6665" lon="6.94069">
        <ele>2498.12</ele>
        <time>2018-08-20T07:04:22Z</time>
      </trkpt>
      <trkpt lat="44.66649" lon="6.94073">
        <ele>2497.64</ele>
        <time>2018-08-20T07:04:25Z</time>
      </trkpt>
      <trkpt lat="44.66644" lon="6.94077">
        <ele>2497.16</ele>
        <time>2018-08-20T07:04:31Z</time>
      </trkpt>
      <trkpt lat="44.66628" lon="6.94077">
        <ele>2497.16</ele>
        <time>2018-08-20T07:04:45Z</time>
      </trkpt>
      <trkpt lat="44.66626" lon="6.94076">
        <ele>2497.16</ele>
        <time>2018-08-20T07:04:47Z</time>
      </trkpt>
      <trkpt lat="44.66619" lon="6.94075">
        <ele>2496.68</ele>
        <time>2018-08-20T07:04:52Z</time>
      </trkpt>
      <trkpt lat="44.66615" lon="6.94075">
        <ele>2496.68</ele>
        <time>2018-08-20T07:04:57Z</time>
      </trkpt>
      <trkpt lat="44.66614" lon="6.94075">
        <ele>2496.68</ele>
        <time>2018-08-20T07:04:59Z</time>
      </trkpt>
      <trkpt lat="44.6661" lon="6.94076">
        <ele>2496.68</ele>
        <time>2018-08-20T07:05:02Z</time>
      </trkpt>
      <trkpt lat="44.66608" lon="6.94078">
        <ele>2496.68</ele>
        <time>2018-08-20T07:05:05Z</time>
      </trkpt>
      <trkpt lat="44.66606" lon="6.9408">
        <ele>2496.68</ele>
        <time>2018-08-20T07:05:07Z</time>
      </trkpt>
      <trkpt lat="44.66589" lon="6.94091">
        <ele>2497.16</ele>
        <time>2018-08-20T07:05:23Z</time>
      </trkpt>
      <trkpt lat="44.66576" lon="6.941">
        <ele>2497.16</ele>
        <time>2018-08-20T07:05:37Z</time>
      </trkpt>
      <trkpt lat="44.66573" lon="6.94101">
        <ele>2497.16</ele>
        <time>2018-08-20T07:05:40Z</time>
      </trkpt>
      <trkpt lat="44.66557" lon="6.94108">
        <ele>2497.16</ele>
        <time>2018-08-20T07:05:54Z</time>
      </trkpt>
      <trkpt lat="44.66547" lon="6.94117">
        <ele>2497.16</ele>
        <time>2018-08-20T07:06:06Z</time>
      </trkpt>
      <trkpt lat="44.66544" lon="6.94128">
        <ele>2497.16</ele>
        <time>2018-08-20T07:06:14Z</time>
      </trkpt>
      <trkpt lat="44.66541" lon="6.94138">
        <ele>2499.57</ele>
        <time>2018-08-20T07:06:20Z</time>
      </trkpt>
      <trkpt lat="44.6654" lon="6.94141">
        <ele>2498.12</ele>
        <time>2018-08-20T07:06:22Z</time>
      </trkpt>
      <trkpt lat="44.66535" lon="6.94157">
        <ele>2498.12</ele>
        <time>2018-08-20T07:06:33Z</time>
      </trkpt>
      <trkpt lat="44.6653" lon="6.94173">
        <ele>2497.64</ele>
        <time>2018-08-20T07:06:45Z</time>
      </trkpt>
      <trkpt lat="44.66527" lon="6.94174">
        <ele>2499.08</ele>
        <time>2018-08-20T07:06:48Z</time>
      </trkpt>
      <trkpt lat="44.66526" lon="6.94175">
        <ele>2499.08</ele>
        <time>2018-08-20T07:06:49Z</time>
      </trkpt>
      <trkpt lat="44.66514" lon="6.94182">
        <ele>2501.01</ele>
        <time>2018-08-20T07:07:04Z</time>
      </trkpt>
      <trkpt lat="44.66505" lon="6.94191">
        <ele>2503.41</ele>
        <time>2018-08-20T07:07:19Z</time>
      </trkpt>
      <trkpt lat="44.66504" lon="6.94188">
        <ele>2504.37</ele>
        <time>2018-08-20T07:07:27Z</time>
      </trkpt>
      <trkpt lat="44.66501" lon="6.94186">
        <ele>2502.93</ele>
        <time>2018-08-20T07:07:30Z</time>
      </trkpt>
      <trkpt lat="44.66492" lon="6.94179">
        <ele>2502.93</ele>
        <time>2018-08-20T07:07:41Z</time>
      </trkpt>
      <trkpt lat="44.6648" lon="6.94177">
        <ele>2503.89</ele>
        <time>2018-08-20T07:07:55Z</time>
      </trkpt>
      <trkpt lat="44.66467" lon="6.94168">
        <ele>2506.77</ele>
        <time>2018-08-20T07:08:11Z</time>
      </trkpt>
      <trkpt lat="44.66462" lon="6.9416">
        <ele>2505.81</ele>
        <time>2018-08-20T07:08:19Z</time>
      </trkpt>
      <trkpt lat="44.66461" lon="6.94157">
        <ele>2505.81</ele>
        <time>2018-08-20T07:08:37Z</time>
      </trkpt>
      <trkpt lat="44.66453" lon="6.9416">
        <ele>2506.29</ele>
        <time>2018-08-20T07:08:58Z</time>
      </trkpt>
      <trkpt lat="44.66447" lon="6.94166">
        <ele>2509.66</ele>
        <time>2018-08-20T07:09:09Z</time>
      </trkpt>
      <trkpt lat="44.66442" lon="6.94169">
        <ele>2511.58</ele>
        <time>2018-08-20T07:09:23Z</time>
      </trkpt>
      <trkpt lat="44.66435" lon="6.94177">
        <ele>2512.54</ele>
        <time>2018-08-20T07:09:36Z</time>
      </trkpt>
      <trkpt lat="44.66435" lon="6.94177">
        <ele>2512.54</ele>
        <time>2018-08-20T07:09:37Z</time>
      </trkpt>
      <trkpt lat="44.66428" lon="6.94188">
        <ele>2514.95</ele>
        <time>2018-08-20T07:09:51Z</time>
      </trkpt>
      <trkpt lat="44.6642" lon="6.94195">
        <ele>2517.35</ele>
        <time>2018-08-20T07:10:05Z</time>
      </trkpt>
      <trkpt lat="44.66412" lon="6.942">
        <ele>2518.79</ele>
        <time>2018-08-20T07:10:17Z</time>
      </trkpt>
      <trkpt lat="44.66406" lon="6.94206">
        <ele>2521.68</ele>
        <time>2018-08-20T07:10:31Z</time>
      </trkpt>
      <trkpt lat="44.66397" lon="6.94213">
        <ele>2524.56</ele>
        <time>2018-08-20T07:10:47Z</time>
      </trkpt>
      <trkpt lat="44.66392" lon="6.9422">
        <ele>2526</ele>
        <time>2018-08-20T07:10:59Z</time>
      </trkpt>
      <trkpt lat="44.66383" lon="6.94224">
        <ele>2526.96</ele>
        <time>2018-08-20T07:11:12Z</time>
      </trkpt>
      <trkpt lat="44.66374" lon="6.94221">
        <ele>2528.89</ele>
        <time>2018-08-20T07:11:26Z</time>
      </trkpt>
      <trkpt lat="44.66373" lon="6.94219">
        <ele>2529.37</ele>
        <time>2018-08-20T07:11:29Z</time>
      </trkpt>
      <trkpt lat="44.66368" lon="6.94216">
        <ele>2531.29</ele>
        <time>2018-08-20T07:11:35Z</time>
      </trkpt>
      <trkpt lat="44.6636" lon="6.94215">
        <ele>2531.77</ele>
        <time>2018-08-20T07:11:46Z</time>
      </trkpt>
      <trkpt lat="44.66351" lon="6.94211">
        <ele>2534.17</ele>
        <time>2018-08-20T07:12:00Z</time>
      </trkpt>
      <trkpt lat="44.66345" lon="6.94214">
        <ele>2536.58</ele>
        <time>2018-08-20T07:12:13Z</time>
      </trkpt>
      <trkpt lat="44.66338" lon="6.94218">
        <ele>2538.5</ele>
        <time>2018-08-20T07:12:24Z</time>
      </trkpt>
      <trkpt lat="44.66341" lon="6.9422">
        <ele>2540.42</ele>
        <time>2018-08-20T07:12:36Z</time>
      </trkpt>
      <trkpt lat="44.66346" lon="6.94231">
        <ele>2542.34</ele>
        <time>2018-08-20T07:12:49Z</time>
      </trkpt>
      <trkpt lat="44.66353" lon="6.94242">
        <ele>2544.27</ele>
        <time>2018-08-20T07:13:02Z</time>
      </trkpt>
      <trkpt lat="44.66354" lon="6.94253">
        <ele>2545.23</ele>
        <time>2018-08-20T07:13:11Z</time>
      </trkpt>
      <trkpt lat="44.66354" lon="6.94264">
        <ele>2547.63</ele>
        <time>2018-08-20T07:13:23Z</time>
      </trkpt>
      <trkpt lat="44.66349" lon="6.94272">
        <ele>2550.51</ele>
        <time>2018-08-20T07:13:38Z</time>
      </trkpt>
      <trkpt lat="44.66346" lon="6.94271">
        <ele>2551.48</ele>
        <time>2018-08-20T07:13:46Z</time>
      </trkpt>
      <trkpt lat="44.66344" lon="6.94268">
        <ele>2551.96</ele>
        <time>2018-08-20T07:13:49Z</time>
      </trkpt>
      <trkpt lat="44.66333" lon="6.94259">
        <ele>2553.88</ele>
        <time>2018-08-20T07:14:04Z</time>
      </trkpt>
      <trkpt lat="44.66327" lon="6.94261">
        <ele>2555.8</ele>
        <time>2018-08-20T07:14:16Z</time>
      </trkpt>
      <trkpt lat="44.66325" lon="6.94266">
        <ele>2557.73</ele>
        <time>2018-08-20T07:14:27Z</time>
      </trkpt>
      <trkpt lat="44.66317" lon="6.94265">
        <ele>2560.61</ele>
        <time>2018-08-20T07:14:41Z</time>
      </trkpt>
      <trkpt lat="44.66312" lon="6.94271">
        <ele>2562.53</ele>
        <time>2018-08-20T07:14:54Z</time>
      </trkpt>
      <trkpt lat="44.66312" lon="6.94271">
        <ele>2563.01</ele>
        <time>2018-08-20T07:14:55Z</time>
      </trkpt>
      <trkpt lat="44.66306" lon="6.94272">
        <ele>2565.42</ele>
        <time>2018-08-20T07:15:05Z</time>
      </trkpt>
      <trkpt lat="44.66302" lon="6.94275">
        <ele>2566.86</ele>
        <time>2018-08-20T07:15:18Z</time>
      </trkpt>
      <trkpt lat="44.66306" lon="6.94284">
        <ele>2569.26</ele>
        <time>2018-08-20T07:15:31Z</time>
      </trkpt>
      <trkpt lat="44.66304" lon="6.9429">
        <ele>2571.18</ele>
        <time>2018-08-20T07:15:44Z</time>
      </trkpt>
      <trkpt lat="44.66298" lon="6.94291">
        <ele>2574.07</ele>
        <time>2018-08-20T07:15:57Z</time>
      </trkpt>
      <trkpt lat="44.66291" lon="6.94289">
        <ele>2576.47</ele>
        <time>2018-08-20T07:16:11Z</time>
      </trkpt>
      <trkpt lat="44.6629" lon="6.94296">
        <ele>2578.39</ele>
        <time>2018-08-20T07:16:25Z</time>
      </trkpt>
      <trkpt lat="44.66284" lon="6.94294">
        <ele>2580.8</ele>
        <time>2018-08-20T07:16:39Z</time>
      </trkpt>
      <trkpt lat="44.66278" lon="6.94298">
        <ele>2583.2</ele>
        <time>2018-08-20T07:16:53Z</time>
      </trkpt>
      <trkpt lat="44.66275" lon="6.943">
        <ele>2586.08</ele>
        <time>2018-08-20T07:17:06Z</time>
      </trkpt>
      <trkpt lat="44.66269" lon="6.94302">
        <ele>2588.49</ele>
        <time>2018-08-20T07:17:21Z</time>
      </trkpt>
      <trkpt lat="44.66267" lon="6.94307">
        <ele>2590.89</ele>
        <time>2018-08-20T07:17:34Z</time>
      </trkpt>
      <trkpt lat="44.66259" lon="6.94312">
        <ele>2593.77</ele>
        <time>2018-08-20T07:17:48Z</time>
      </trkpt>
      <trkpt lat="44.66254" lon="6.94317">
        <ele>2595.22</ele>
        <time>2018-08-20T07:17:59Z</time>
      </trkpt>
      <trkpt lat="44.66246" lon="6.9432">
        <ele>2598.1</ele>
        <time>2018-08-20T07:18:12Z</time>
      </trkpt>
      <trkpt lat="44.66245" lon="6.94321">
        <ele>2598.1</ele>
        <time>2018-08-20T07:18:13Z</time>
      </trkpt>
      <trkpt lat="44.66239" lon="6.94327">
        <ele>2599.54</ele>
        <time>2018-08-20T07:18:26Z</time>
      </trkpt>
      <trkpt lat="44.66229" lon="6.94331">
        <ele>2601.46</ele>
        <time>2018-08-20T07:18:42Z</time>
      </trkpt>
      <trkpt lat="44.66223" lon="6.94332">
        <ele>2601.95</ele>
        <time>2018-08-20T07:18:48Z</time>
      </trkpt>
      <trkpt lat="44.66208" lon="6.94324">
        <ele>2602.91</ele>
        <time>2018-08-20T07:19:03Z</time>
      </trkpt>
      <trkpt lat="44.66206" lon="6.94323">
        <ele>2603.39</ele>
        <time>2018-08-20T07:19:07Z</time>
      </trkpt>
      <trkpt lat="44.66201" lon="6.94319">
        <ele>2604.83</ele>
        <time>2018-08-20T07:19:19Z</time>
      </trkpt>
      <trkpt lat="44.66194" lon="6.94314">
        <ele>2607.23</ele>
        <time>2018-08-20T07:19:34Z</time>
      </trkpt>
      <trkpt lat="44.66194" lon="6.94315">
        <ele>2607.71</ele>
        <time>2018-08-20T07:19:47Z</time>
      </trkpt>
      <trkpt lat="44.66193" lon="6.94314">
        <ele>2608.19</ele>
        <time>2018-08-20T07:20:01Z</time>
      </trkpt>
      <trkpt lat="44.66184" lon="6.94306">
        <ele>2609.64</ele>
        <time>2018-08-20T07:20:12Z</time>
      </trkpt>
      <trkpt lat="44.66177" lon="6.94293">
        <ele>2610.6</ele>
        <time>2018-08-20T07:20:24Z</time>
      </trkpt>
      <trkpt lat="44.6617" lon="6.94289">
        <ele>2613</ele>
        <time>2018-08-20T07:20:37Z</time>
      </trkpt>
      <trkpt lat="44.66171" lon="6.94302">
        <ele>2614.92</ele>
        <time>2018-08-20T07:20:50Z</time>
      </trkpt>
      <trkpt lat="44.66171" lon="6.94307">
        <ele>2616.37</ele>
        <time>2018-08-20T07:20:56Z</time>
      </trkpt>
      <trkpt lat="44.66172" lon="6.94315">
        <ele>2620.21</ele>
        <time>2018-08-20T07:21:05Z</time>
      </trkpt>
      <trkpt lat="44.66175" lon="6.94327">
        <ele>2619.73</ele>
        <time>2018-08-20T07:21:16Z</time>
      </trkpt>
      <trkpt lat="44.66168" lon="6.94327">
        <ele>2622.13</ele>
        <time>2018-08-20T07:21:31Z</time>
      </trkpt>
      <trkpt lat="44.66163" lon="6.94321">
        <ele>2624.54</ele>
        <time>2018-08-20T07:21:43Z</time>
      </trkpt>
      <trkpt lat="44.66154" lon="6.94317">
        <ele>2626.46</ele>
        <time>2018-08-20T07:21:58Z</time>
      </trkpt>
      <trkpt lat="44.66154" lon="6.94325">
        <ele>2628.86</ele>
        <time>2018-08-20T07:22:09Z</time>
      </trkpt>
      <trkpt lat="44.66156" lon="6.9434">
        <ele>2631.75</ele>
        <time>2018-08-20T07:22:24Z</time>
      </trkpt>
      <trkpt lat="44.66156" lon="6.94351">
        <ele>2632.71</ele>
        <time>2018-08-20T07:22:36Z</time>
      </trkpt>
      <trkpt lat="44.66157" lon="6.94363">
        <ele>2635.11</ele>
        <time>2018-08-20T07:22:50Z</time>
      </trkpt>
      <trkpt lat="44.66157" lon="6.94366">
        <ele>2635.59</ele>
        <time>2018-08-20T07:22:55Z</time>
      </trkpt>
      <trkpt lat="44.66158" lon="6.94378">
        <ele>2637.99</ele>
        <time>2018-08-20T07:23:08Z</time>
      </trkpt>
      <trkpt lat="44.66162" lon="6.94385">
        <ele>2639.92</ele>
        <time>2018-08-20T07:23:20Z</time>
      </trkpt>
      <trkpt lat="44.6616" lon="6.94392">
        <ele>2641.84</ele>
        <time>2018-08-20T07:23:34Z</time>
      </trkpt>
      <trkpt lat="44.66154" lon="6.94391">
        <ele>2644.24</ele>
        <time>2018-08-20T07:23:47Z</time>
      </trkpt>
      <trkpt lat="44.6615" lon="6.94389">
        <ele>2645.69</ele>
        <time>2018-08-20T07:23:57Z</time>
      </trkpt>
      <trkpt lat="44.66146" lon="6.94392">
        <ele>2647.61</ele>
        <time>2018-08-20T07:24:11Z</time>
      </trkpt>
      <trkpt lat="44.66147" lon="6.94401">
        <ele>2650.97</ele>
        <time>2018-08-20T07:24:27Z</time>
      </trkpt>
      <trkpt lat="44.66146" lon="6.94408">
        <ele>2652.9</ele>
        <time>2018-08-20T07:24:39Z</time>
      </trkpt>
      <trkpt lat="44.66147" lon="6.94418">
        <ele>2655.3</ele>
        <time>2018-08-20T07:24:53Z</time>
      </trkpt>
      <trkpt lat="44.66147" lon="6.94426">
        <ele>2657.7</ele>
        <time>2018-08-20T07:25:07Z</time>
      </trkpt>
      <trkpt lat="44.66156" lon="6.94435">
        <ele>2659.62</ele>
        <time>2018-08-20T07:25:20Z</time>
      </trkpt>
      <trkpt lat="44.66155" lon="6.9445">
        <ele>2662.03</ele>
        <time>2018-08-20T07:25:35Z</time>
      </trkpt>
      <trkpt lat="44.66153" lon="6.94457">
        <ele>2663.95</ele>
        <time>2018-08-20T07:25:48Z</time>
      </trkpt>
      <trkpt lat="44.66148" lon="6.94462">
        <ele>2665.39</ele>
        <time>2018-08-20T07:25:59Z</time>
      </trkpt>
      <trkpt lat="44.6614" lon="6.94464">
        <ele>2667.8</ele>
        <time>2018-08-20T07:26:13Z</time>
      </trkpt>
      <trkpt lat="44.66136" lon="6.94468">
        <ele>2670.2</ele>
        <time>2018-08-20T07:26:28Z</time>
      </trkpt>
      <trkpt lat="44.66129" lon="6.94472">
        <ele>2672.6</ele>
        <time>2018-08-20T07:26:39Z</time>
      </trkpt>
      <trkpt lat="44.66124" lon="6.94477">
        <ele>2674.52</ele>
        <time>2018-08-20T07:26:49Z</time>
      </trkpt>
      <trkpt lat="44.66119" lon="6.9448">
        <ele>2675.01</ele>
        <time>2018-08-20T07:26:55Z</time>
      </trkpt>
      <trkpt lat="44.66112" lon="6.94486">
        <ele>2675.97</ele>
        <time>2018-08-20T07:27:06Z</time>
      </trkpt>
      <trkpt lat="44.66106" lon="6.94497">
        <ele>2677.89</ele>
        <time>2018-08-20T07:27:19Z</time>
      </trkpt>
      <trkpt lat="44.66103" lon="6.94508">
        <ele>2680.29</ele>
        <time>2018-08-20T07:27:32Z</time>
      </trkpt>
      <trkpt lat="44.66107" lon="6.94512">
        <ele>2683.18</ele>
        <time>2018-08-20T07:27:46Z</time>
      </trkpt>
      <trkpt lat="44.66115" lon="6.94508">
        <ele>2684.62</ele>
        <time>2018-08-20T07:27:59Z</time>
      </trkpt>
      <trkpt lat="44.66121" lon="6.94508">
        <ele>2686.54</ele>
        <time>2018-08-20T07:28:11Z</time>
      </trkpt>
      <trkpt lat="44.66125" lon="6.94513">
        <ele>2688.94</ele>
        <time>2018-08-20T07:28:23Z</time>
      </trkpt>
      <trkpt lat="44.66127" lon="6.94513">
        <ele>2689.91</ele>
        <time>2018-08-20T07:28:36Z</time>
      </trkpt>
      <trkpt lat="44.6613" lon="6.94518">
        <ele>2689.91</ele>
        <time>2018-08-20T07:28:49Z</time>
      </trkpt>
      <trkpt lat="44.66129" lon="6.94533">
        <ele>2691.83</ele>
        <time>2018-08-20T07:29:02Z</time>
      </trkpt>
      <trkpt lat="44.66124" lon="6.94543">
        <ele>2694.71</ele>
        <time>2018-08-20T07:29:16Z</time>
      </trkpt>
      <trkpt lat="44.66119" lon="6.9455">
        <ele>2697.12</ele>
        <time>2018-08-20T07:29:30Z</time>
      </trkpt>
      <trkpt lat="44.66117" lon="6.94559">
        <ele>2699.52</ele>
        <time>2018-08-20T07:29:42Z</time>
      </trkpt>
      <trkpt lat="44.66117" lon="6.9456">
        <ele>2699.52</ele>
        <time>2018-08-20T07:29:43Z</time>
      </trkpt>
      <trkpt lat="44.66125" lon="6.94563">
        <ele>2701.92</ele>
        <time>2018-08-20T07:29:57Z</time>
      </trkpt>
      <trkpt lat="44.6612" lon="6.94575">
        <ele>2703.85</ele>
        <time>2018-08-20T07:30:11Z</time>
      </trkpt>
      <trkpt lat="44.66119" lon="6.94587">
        <ele>2706.25</ele>
        <time>2018-08-20T07:30:24Z</time>
      </trkpt>
      <trkpt lat="44.66125" lon="6.94593">
        <ele>2708.65</ele>
        <time>2018-08-20T07:30:37Z</time>
      </trkpt>
      <trkpt lat="44.6613" lon="6.94597">
        <ele>2709.61</ele>
        <time>2018-08-20T07:30:44Z</time>
      </trkpt>
      <trkpt lat="44.66138" lon="6.94611">
        <ele>2711.54</ele>
        <time>2018-08-20T07:30:59Z</time>
      </trkpt>
      <trkpt lat="44.66141" lon="6.94624">
        <ele>2713.46</ele>
        <time>2018-08-20T07:31:12Z</time>
      </trkpt>
      <trkpt lat="44.66144" lon="6.94635">
        <ele>2714.9</ele>
        <time>2018-08-20T07:31:24Z</time>
      </trkpt>
      <trkpt lat="44.66144" lon="6.94643">
        <ele>2715.86</ele>
        <time>2018-08-20T07:31:32Z</time>
      </trkpt>
      <trkpt lat="44.66144" lon="6.94665">
        <ele>2716.82</ele>
        <time>2018-08-20T07:31:48Z</time>
      </trkpt>
      <trkpt lat="44.66148" lon="6.9468">
        <ele>2718.75</ele>
        <time>2018-08-20T07:32:03Z</time>
      </trkpt>
      <trkpt lat="44.66151" lon="6.9469">
        <ele>2722.11</ele>
        <time>2018-08-20T07:32:13Z</time>
      </trkpt>
      <trkpt lat="44.66155" lon="6.94705">
        <ele>2722.11</ele>
        <time>2018-08-20T07:32:26Z</time>
      </trkpt>
      <trkpt lat="44.66159" lon="6.94716">
        <ele>2724.51</ele>
        <time>2018-08-20T07:32:41Z</time>
      </trkpt>
      <trkpt lat="44.66165" lon="6.94724">
        <ele>2725.96</ele>
        <time>2018-08-20T07:32:53Z</time>
      </trkpt>
      <trkpt lat="44.66164" lon="6.94734">
        <ele>2728.36</ele>
        <time>2018-08-20T07:33:06Z</time>
      </trkpt>
      <trkpt lat="44.66164" lon="6.9474">
        <ele>2730.28</ele>
        <time>2018-08-20T07:33:18Z</time>
      </trkpt>
      <trkpt lat="44.66167" lon="6.94747">
        <ele>2732.2</ele>
        <time>2018-08-20T07:33:30Z</time>
      </trkpt>
      <trkpt lat="44.66167" lon="6.94757">
        <ele>2733.65</ele>
        <time>2018-08-20T07:33:43Z</time>
      </trkpt>
      <trkpt lat="44.66169" lon="6.94763">
        <ele>2735.09</ele>
        <time>2018-08-20T07:33:50Z</time>
      </trkpt>
      <trkpt lat="44.66177" lon="6.94768">
        <ele>2737.49</ele>
        <time>2018-08-20T07:34:03Z</time>
      </trkpt>
      <trkpt lat="44.66181" lon="6.94771">
        <ele>2737.49</ele>
        <time>2018-08-20T07:34:07Z</time>
      </trkpt>
      <trkpt lat="44.66185" lon="6.94789">
        <ele>2738.93</ele>
        <time>2018-08-20T07:34:24Z</time>
      </trkpt>
      <trkpt lat="44.66189" lon="6.94797">
        <ele>2739.89</ele>
        <time>2018-08-20T07:34:32Z</time>
      </trkpt>
      <trkpt lat="44.66191" lon="6.9481">
        <ele>2740.86</ele>
        <time>2018-08-20T07:34:44Z</time>
      </trkpt>
      <trkpt lat="44.66192" lon="6.94814">
        <ele>2741.82</ele>
        <time>2018-08-20T07:34:47Z</time>
      </trkpt>
      <trkpt lat="44.662" lon="6.94826">
        <ele>2743.74</ele>
        <time>2018-08-20T07:35:00Z</time>
      </trkpt>
      <trkpt lat="44.66206" lon="6.94832">
        <ele>2744.7</ele>
        <time>2018-08-20T07:35:08Z</time>
      </trkpt>
      <trkpt lat="44.66212" lon="6.94842">
        <ele>2745.66</ele>
        <time>2018-08-20T07:35:18Z</time>
      </trkpt>
      <trkpt lat="44.66223" lon="6.94854">
        <ele>2746.14</ele>
        <time>2018-08-20T07:35:35Z</time>
      </trkpt>
      <trkpt lat="44.66228" lon="6.94858">
        <ele>2746.14</ele>
        <time>2018-08-20T07:35:48Z</time>
      </trkpt>
      <trkpt lat="44.66232" lon="6.94859">
        <ele>2746.14</ele>
        <time>2018-08-20T07:35:58Z</time>
      </trkpt>
      <trkpt lat="44.66238" lon="6.94856">
        <ele>2746.14</ele>
        <time>2018-08-20T07:36:11Z</time>
      </trkpt>
      <trkpt lat="44.66238" lon="6.94856">
        <ele>2746.62</ele>
        <time>2018-08-20T07:36:47Z</time>
      </trkpt>
      <trkpt lat="44.66237" lon="6.94861">
        <ele>2746.62</ele>
        <time>2018-08-20T07:37:00Z</time>
      </trkpt>
      <trkpt lat="44.66233" lon="6.94865">
        <ele>2745.18</ele>
        <time>2018-08-20T07:37:12Z</time>
      </trkpt>
      <trkpt lat="44.6623" lon="6.94867">
        <ele>2745.18</ele>
        <time>2018-08-20T07:37:22Z</time>
      </trkpt>
      <trkpt lat="44.66229" lon="6.94871">
        <ele>2745.18</ele>
        <time>2018-08-20T07:37:43Z</time>
      </trkpt>
      <trkpt lat="44.66228" lon="6.94875">
        <ele>2745.18</ele>
        <time>2018-08-20T07:37:46Z</time>
      </trkpt>
      <trkpt lat="44.66234" lon="6.94888">
        <ele>2745.18</ele>
        <time>2018-08-20T07:37:57Z</time>
      </trkpt>
      <trkpt lat="44.66237" lon="6.94902">
        <ele>2744.7</ele>
        <time>2018-08-20T07:38:07Z</time>
      </trkpt>
      <trkpt lat="44.66238" lon="6.94918">
        <ele>2743.74</ele>
        <time>2018-08-20T07:38:21Z</time>
      </trkpt>
      <trkpt lat="44.66241" lon="6.94924">
        <ele>2743.74</ele>
        <time>2018-08-20T07:38:32Z</time>
      </trkpt>
      <trkpt lat="44.66243" lon="6.94937">
        <ele>2743.74</ele>
        <time>2018-08-20T07:38:43Z</time>
      </trkpt>
      <trkpt lat="44.66245" lon="6.94949">
        <ele>2743.74</ele>
        <time>2018-08-20T07:38:54Z</time>
      </trkpt>
      <trkpt lat="44.66248" lon="6.9496">
        <ele>2742.78</ele>
        <time>2018-08-20T07:39:03Z</time>
      </trkpt>
      <trkpt lat="44.66249" lon="6.94964">
        <ele>2742.3</ele>
        <time>2018-08-20T07:39:15Z</time>
      </trkpt>
      <trkpt lat="44.66253" lon="6.94981">
        <ele>2742.78</ele>
        <time>2018-08-20T07:39:31Z</time>
      </trkpt>
      <trkpt lat="44.66258" lon="6.94987">
        <ele>2744.7</ele>
        <time>2018-08-20T07:39:44Z</time>
      </trkpt>
      <trkpt lat="44.66267" lon="6.94984">
        <ele>2742.78</ele>
        <time>2018-08-20T07:39:58Z</time>
      </trkpt>
      <trkpt lat="44.66271" lon="6.9498">
        <ele>2741.82</ele>
        <time>2018-08-20T07:40:09Z</time>
      </trkpt>
      <trkpt lat="44.66282" lon="6.94978">
        <ele>2741.34</ele>
        <time>2018-08-20T07:40:23Z</time>
      </trkpt>
      <trkpt lat="44.66288" lon="6.94972">
        <ele>2741.82</ele>
        <time>2018-08-20T07:40:31Z</time>
      </trkpt>
      <trkpt lat="44.66291" lon="6.94968">
        <ele>2741.82</ele>
        <time>2018-08-20T07:40:35Z</time>
      </trkpt>
      <trkpt lat="44.66292" lon="6.94968">
        <ele>2741.82</ele>
        <time>2018-08-20T07:40:40Z</time>
      </trkpt>
      <trkpt lat="44.66291" lon="6.9497">
        <ele>2741.82</ele>
        <time>2018-08-20T07:40:49Z</time>
      </trkpt>
      <trkpt lat="44.663" lon="6.94967">
        <ele>2741.82</ele>
        <time>2018-08-20T07:41:02Z</time>
      </trkpt>
      <trkpt lat="44.66306" lon="6.9497">
        <ele>2741.82</ele>
        <time>2018-08-20T07:41:09Z</time>
      </trkpt>
      <trkpt lat="44.66311" lon="6.94977">
        <ele>2741.82</ele>
        <time>2018-08-20T07:41:17Z</time>
      </trkpt>
      <trkpt lat="44.6632" lon="6.94989">
        <ele>2743.26</ele>
        <time>2018-08-20T07:41:31Z</time>
      </trkpt>
      <trkpt lat="44.66327" lon="6.94997">
        <ele>2744.7</ele>
        <time>2018-08-20T07:41:41Z</time>
      </trkpt>
      <trkpt lat="44.66336" lon="6.95002">
        <ele>2745.66</ele>
        <time>2018-08-20T07:41:54Z</time>
      </trkpt>
      <trkpt lat="44.66343" lon="6.95006">
        <ele>2747.59</ele>
        <time>2018-08-20T07:42:06Z</time>
      </trkpt>
      <trkpt lat="44.66351" lon="6.95017">
        <ele>2748.55</ele>
        <time>2018-08-20T07:42:18Z</time>
      </trkpt>
      <trkpt lat="44.66354" lon="6.95028">
        <ele>2749.51</ele>
        <time>2018-08-20T07:42:30Z</time>
      </trkpt>
      <trkpt lat="44.66359" lon="6.95033">
        <ele>2751.91</ele>
        <time>2018-08-20T07:42:43Z</time>
      </trkpt>
      <trkpt lat="44.66364" lon="6.95033">
        <ele>2753.83</ele>
        <time>2018-08-20T07:42:56Z</time>
      </trkpt>
      <trkpt lat="44.66368" lon="6.95039">
        <ele>2756.24</ele>
        <time>2018-08-20T07:43:10Z</time>
      </trkpt>
      <trkpt lat="44.66374" lon="6.95043">
        <ele>2757.68</ele>
        <time>2018-08-20T07:43:21Z</time>
      </trkpt>
      <trkpt lat="44.66379" lon="6.95055">
        <ele>2759.6</ele>
        <time>2018-08-20T07:43:36Z</time>
      </trkpt>
      <trkpt lat="44.6638" lon="6.95064">
        <ele>2760.08</ele>
        <time>2018-08-20T07:43:44Z</time>
      </trkpt>
      <trkpt lat="44.66384" lon="6.95072">
        <ele>2761.52</ele>
        <time>2018-08-20T07:43:56Z</time>
      </trkpt>
      <trkpt lat="44.66387" lon="6.95076">
        <ele>2761.52</ele>
        <time>2018-08-20T07:44:01Z</time>
      </trkpt>
      <trkpt lat="44.66393" lon="6.95079">
        <ele>2762.97</ele>
        <time>2018-08-20T07:44:12Z</time>
      </trkpt>
      <trkpt lat="44.66394" lon="6.95079">
        <ele>2762.97</ele>
        <time>2018-08-20T07:44:13Z</time>
      </trkpt>
      <trkpt lat="44.66404" lon="6.95078">
        <ele>2764.89</ele>
        <time>2018-08-20T07:44:27Z</time>
      </trkpt>
      <trkpt lat="44.66407" lon="6.95086">
        <ele>2764.89</ele>
        <time>2018-08-20T07:44:38Z</time>
      </trkpt>
      <trkpt lat="44.66407" lon="6.95094">
        <ele>2766.33</ele>
        <time>2018-08-20T07:44:51Z</time>
      </trkpt>
      <trkpt lat="44.66411" lon="6.95102">
        <ele>2768.73</ele>
        <time>2018-08-20T07:45:05Z</time>
      </trkpt>
      <trkpt lat="44.66416" lon="6.95109">
        <ele>2771.14</ele>
        <time>2018-08-20T07:45:19Z</time>
      </trkpt>
      <trkpt lat="44.66422" lon="6.95113">
        <ele>2772.58</ele>
        <time>2018-08-20T07:45:32Z</time>
      </trkpt>
      <trkpt lat="44.66427" lon="6.95123">
        <ele>2774.02</ele>
        <time>2018-08-20T07:45:45Z</time>
      </trkpt>
      <trkpt lat="44.66429" lon="6.95127">
        <ele>2774.98</ele>
        <time>2018-08-20T07:45:51Z</time>
      </trkpt>
      <trkpt lat="44.66438" lon="6.95132">
        <ele>2776.42</ele>
        <time>2018-08-20T07:46:05Z</time>
      </trkpt>
      <trkpt lat="44.66443" lon="6.95142">
        <ele>2778.83</ele>
        <time>2018-08-20T07:46:21Z</time>
      </trkpt>
      <trkpt lat="44.66446" lon="6.95147">
        <ele>2781.23</ele>
        <time>2018-08-20T07:46:36Z</time>
      </trkpt>
      <trkpt lat="44.6645" lon="6.95144">
        <ele>2784.12</ele>
        <time>2018-08-20T07:46:51Z</time>
      </trkpt>
      <trkpt lat="44.66455" lon="6.95145">
        <ele>2785.56</ele>
        <time>2018-08-20T07:47:02Z</time>
      </trkpt>
      <trkpt lat="44.6646" lon="6.95153">
        <ele>2788.44</ele>
        <time>2018-08-20T07:47:18Z</time>
      </trkpt>
      <trkpt lat="44.6646" lon="6.95156">
        <ele>2789.88</ele>
        <time>2018-08-20T07:47:31Z</time>
      </trkpt>
      <trkpt lat="44.6646" lon="6.95158">
        <ele>2790.84</ele>
        <time>2018-08-20T07:47:45Z</time>
      </trkpt>
      <trkpt lat="44.66463" lon="6.95165">
        <ele>2789.88</ele>
        <time>2018-08-20T07:48:04Z</time>
      </trkpt>
      <trkpt lat="44.66465" lon="6.95168">
        <ele>2789.88</ele>
        <time>2018-08-20T07:48:10Z</time>
      </trkpt>
      <trkpt lat="44.66468" lon="6.95172">
        <ele>2789.88</ele>
        <time>2018-08-20T07:48:15Z</time>
      </trkpt>
      <trkpt lat="44.6647" lon="6.95177">
        <ele>2790.84</ele>
        <time>2018-08-20T07:48:20Z</time>
      </trkpt>
      <trkpt lat="44.66478" lon="6.95181">
        <ele>2792.29</ele>
        <time>2018-08-20T07:48:33Z</time>
      </trkpt>
      <trkpt lat="44.66486" lon="6.9519">
        <ele>2795.17</ele>
        <time>2018-08-20T07:48:48Z</time>
      </trkpt>
      <trkpt lat="44.66493" lon="6.95201">
        <ele>2797.57</ele>
        <time>2018-08-20T07:49:02Z</time>
      </trkpt>
      <trkpt lat="44.66501" lon="6.95202">
        <ele>2799.5</ele>
        <time>2018-08-20T07:49:14Z</time>
      </trkpt>
      <trkpt lat="44.66505" lon="6.95203">
        <ele>2800.46</ele>
        <time>2018-08-20T07:49:20Z</time>
      </trkpt>
      <trkpt lat="44.6652" lon="6.95199">
        <ele>2802.38</ele>
        <time>2018-08-20T07:49:36Z</time>
      </trkpt>
      <trkpt lat="44.66521" lon="6.95199">
        <ele>2802.38</ele>
        <time>2018-08-20T07:49:37Z</time>
      </trkpt>
      <trkpt lat="44.66528" lon="6.95198">
        <ele>2803.34</ele>
        <time>2018-08-20T07:49:49Z</time>
      </trkpt>
      <trkpt lat="44.66533" lon="6.95202">
        <ele>2804.3</ele>
        <time>2018-08-20T07:50:01Z</time>
      </trkpt>
      <trkpt lat="44.66532" lon="6.95202">
        <ele>2804.3</ele>
        <time>2018-08-20T07:50:27Z</time>
      </trkpt>
      <trkpt lat="44.66533" lon="6.95202">
        <ele>2804.78</ele>
        <time>2018-08-20T07:50:42Z</time>
      </trkpt>
      <trkpt lat="44.66533" lon="6.95202">
        <ele>2804.78</ele>
        <time>2018-08-20T07:50:55Z</time>
      </trkpt>
      <trkpt lat="44.66535" lon="6.95204">
        <ele>2804.78</ele>
        <time>2018-08-20T07:51:09Z</time>
      </trkpt>
      <trkpt lat="44.66535" lon="6.95205">
        <ele>2804.78</ele>
        <time>2018-08-20T07:51:31Z</time>
      </trkpt>
      <trkpt lat="44.66535" lon="6.95209">
        <ele>2805.26</ele>
        <time>2018-08-20T07:51:50Z</time>
      </trkpt>
      <trkpt lat="44.66535" lon="6.95207">
        <ele>2805.26</ele>
        <time>2018-08-20T07:52:07Z</time>
      </trkpt>
      <trkpt lat="44.66535" lon="6.95203">
        <ele>2805.26</ele>
        <time>2018-08-20T07:52:22Z</time>
      </trkpt>
      <trkpt lat="44.6654" lon="6.95204">
        <ele>2803.82</ele>
        <time>2018-08-20T07:52:35Z</time>
      </trkpt>
      <trkpt lat="44.66541" lon="6.95206">
        <ele>2802.38</ele>
        <time>2018-08-20T07:52:37Z</time>
      </trkpt>
      <trkpt lat="44.66543" lon="6.95208">
        <ele>2801.9</ele>
        <time>2018-08-20T07:52:40Z</time>
      </trkpt>
      <trkpt lat="44.6655" lon="6.95215">
        <ele>2801.42</ele>
        <time>2018-08-20T07:52:50Z</time>
      </trkpt>
      <trkpt lat="44.66552" lon="6.95219">
        <ele>2801.42</ele>
        <time>2018-08-20T07:52:54Z</time>
      </trkpt>
      <trkpt lat="44.66553" lon="6.95221">
        <ele>2801.42</ele>
        <time>2018-08-20T07:52:56Z</time>
      </trkpt>
      <trkpt lat="44.66554" lon="6.95225">
        <ele>2802.38</ele>
        <time>2018-08-20T07:52:59Z</time>
      </trkpt>
      <trkpt lat="44.66555" lon="6.95232">
        <ele>2801.42</ele>
        <time>2018-08-20T07:53:14Z</time>
      </trkpt>
      <trkpt lat="44.66557" lon="6.95244">
        <ele>2802.86</ele>
        <time>2018-08-20T07:53:27Z</time>
      </trkpt>
      <trkpt lat="44.66556" lon="6.95258">
        <ele>2803.82</ele>
        <time>2018-08-20T07:53:41Z</time>
      </trkpt>
      <trkpt lat="44.66556" lon="6.95267">
        <ele>2805.26</ele>
        <time>2018-08-20T07:53:49Z</time>
      </trkpt>
      <trkpt lat="44.66557" lon="6.95273">
        <ele>2806.23</ele>
        <time>2018-08-20T07:53:56Z</time>
      </trkpt>
      <trkpt lat="44.66558" lon="6.95277">
        <ele>2806.71</ele>
        <time>2018-08-20T07:54:00Z</time>
      </trkpt>
      <trkpt lat="44.6656" lon="6.95287">
        <ele>2808.63</ele>
        <time>2018-08-20T07:54:14Z</time>
      </trkpt>
      <trkpt lat="44.66561" lon="6.9529">
        <ele>2809.11</ele>
        <time>2018-08-20T07:54:26Z</time>
      </trkpt>
      <trkpt lat="44.66558" lon="6.95298">
        <ele>2809.59</ele>
        <time>2018-08-20T07:54:38Z</time>
      </trkpt>
      <trkpt lat="44.66561" lon="6.95304">
        <ele>2810.07</ele>
        <time>2018-08-20T07:54:46Z</time>
      </trkpt>
      <trkpt lat="44.66564" lon="6.95309">
        <ele>2810.07</ele>
        <time>2018-08-20T07:54:51Z</time>
      </trkpt>
      <trkpt lat="44.66577" lon="6.95309">
        <ele>2810.07</ele>
        <time>2018-08-20T07:55:05Z</time>
      </trkpt>
      <trkpt lat="44.66578" lon="6.95309">
        <ele>2810.07</ele>
        <time>2018-08-20T07:55:06Z</time>
      </trkpt>
      <trkpt lat="44.66591" lon="6.95307">
        <ele>2810.07</ele>
        <time>2018-08-20T07:55:20Z</time>
      </trkpt>
      <trkpt lat="44.66596" lon="6.9531">
        <ele>2810.55</ele>
        <time>2018-08-20T07:55:28Z</time>
      </trkpt>
      <trkpt lat="44.66607" lon="6.95319">
        <ele>2813.92</ele>
        <time>2018-08-20T07:55:44Z</time>
      </trkpt>
      <trkpt lat="44.66611" lon="6.95324">
        <ele>2814.88</ele>
        <time>2018-08-20T07:55:49Z</time>
      </trkpt>
      <trkpt lat="44.66613" lon="6.95326">
        <ele>2814.88</ele>
        <time>2018-08-20T07:55:52Z</time>
      </trkpt>
      <trkpt lat="44.66623" lon="6.95328">
        <ele>2813.92</ele>
        <time>2018-08-20T07:56:07Z</time>
      </trkpt>
      <trkpt lat="44.66624" lon="6.95324">
        <ele>2812.47</ele>
        <time>2018-08-20T07:56:21Z</time>
      </trkpt>
      <trkpt lat="44.6663" lon="6.95322">
        <ele>2811.03</ele>
        <time>2018-08-20T07:56:33Z</time>
      </trkpt>
      <trkpt lat="44.66633" lon="6.95325">
        <ele>2812.47</ele>
        <time>2018-08-20T07:56:40Z</time>
      </trkpt>
      <trkpt lat="44.66637" lon="6.95327">
        <ele>2812.96</ele>
        <time>2018-08-20T07:56:51Z</time>
      </trkpt>
      <trkpt lat="44.66643" lon="6.95333">
        <ele>2814.88</ele>
        <time>2018-08-20T07:57:02Z</time>
      </trkpt>
      <trkpt lat="44.66646" lon="6.95338">
        <ele>2816.8</ele>
        <time>2018-08-20T07:57:14Z</time>
      </trkpt>
      <trkpt lat="44.66652" lon="6.95342">
        <ele>2817.76</ele>
        <time>2018-08-20T07:57:26Z</time>
      </trkpt>
      <trkpt lat="44.66661" lon="6.95345">
        <ele>2819.2</ele>
        <time>2018-08-20T07:57:39Z</time>
      </trkpt>
      <trkpt lat="44.66665" lon="6.95353">
        <ele>2820.16</ele>
        <time>2018-08-20T07:57:50Z</time>
      </trkpt>
      <trkpt lat="44.66671" lon="6.95356">
        <ele>2822.09</ele>
        <time>2018-08-20T07:58:03Z</time>
      </trkpt>
      <trkpt lat="44.6668" lon="6.95355">
        <ele>2822.09</ele>
        <time>2018-08-20T07:58:16Z</time>
      </trkpt>
      <trkpt lat="44.66682" lon="6.95353">
        <ele>2822.09</ele>
        <time>2018-08-20T07:58:18Z</time>
      </trkpt>
      <trkpt lat="44.66689" lon="6.95353">
        <ele>2822.09</ele>
        <time>2018-08-20T07:58:25Z</time>
      </trkpt>
      <trkpt lat="44.66696" lon="6.9535">
        <ele>2822.57</ele>
        <time>2018-08-20T07:58:33Z</time>
      </trkpt>
      <trkpt lat="44.66699" lon="6.95348">
        <ele>2824.49</ele>
        <time>2018-08-20T07:58:35Z</time>
      </trkpt>
      <trkpt lat="44.66717" lon="6.95349">
        <ele>2822.57</ele>
        <time>2018-08-20T07:58:51Z</time>
      </trkpt>
      <trkpt lat="44.66718" lon="6.95349">
        <ele>2822.57</ele>
        <time>2018-08-20T07:58:52Z</time>
      </trkpt>
      <trkpt lat="44.66722" lon="6.95354">
        <ele>2822.57</ele>
        <time>2018-08-20T07:58:56Z</time>
      </trkpt>
      <trkpt lat="44.66728" lon="6.9537">
        <ele>2822.57</ele>
        <time>2018-08-20T07:59:11Z</time>
      </trkpt>
      <trkpt lat="44.66727" lon="6.95378">
        <ele>2824.01</ele>
        <time>2018-08-20T07:59:19Z</time>
      </trkpt>
      <trkpt lat="44.66725" lon="6.95394">
        <ele>2826.89</ele>
        <time>2018-08-20T07:59:36Z</time>
      </trkpt>
      <trkpt lat="44.66723" lon="6.95402">
        <ele>2828.82</ele>
        <time>2018-08-20T07:59:49Z</time>
      </trkpt>
      <trkpt lat="44.66722" lon="6.95407">
        <ele>2829.78</ele>
        <time>2018-08-20T08:00:06Z</time>
      </trkpt>
      <trkpt lat="44.66723" lon="6.95414">
        <ele>2832.66</ele>
        <time>2018-08-20T08:00:19Z</time>
      </trkpt>
      <trkpt lat="44.66719" lon="6.95425">
        <ele>2835.06</ele>
        <time>2018-08-20T08:00:35Z</time>
      </trkpt>
      <trkpt lat="44.66723" lon="6.95432">
        <ele>2837.95</ele>
        <time>2018-08-20T08:00:49Z</time>
      </trkpt>
      <trkpt lat="44.66722" lon="6.95445">
        <ele>2839.39</ele>
        <time>2018-08-20T08:01:05Z</time>
      </trkpt>
      <trkpt lat="44.66725" lon="6.9545">
        <ele>2841.79</ele>
        <time>2018-08-20T08:01:18Z</time>
      </trkpt>
      <trkpt lat="44.66728" lon="6.95454">
        <ele>2843.72</ele>
        <time>2018-08-20T08:01:28Z</time>
      </trkpt>
      <trkpt lat="44.66727" lon="6.95465">
        <ele>2844.2</ele>
        <time>2018-08-20T08:01:39Z</time>
      </trkpt>
      <trkpt lat="44.66727" lon="6.95466">
        <ele>2844.68</ele>
        <time>2018-08-20T08:01:40Z</time>
      </trkpt>
      <trkpt lat="44.6673" lon="6.95472">
        <ele>2845.64</ele>
        <time>2018-08-20T08:01:48Z</time>
      </trkpt>
      <trkpt lat="44.66735" lon="6.95484">
        <ele>2847.08</ele>
        <time>2018-08-20T08:02:01Z</time>
      </trkpt>
      <trkpt lat="44.66739" lon="6.95488">
        <ele>2847.56</ele>
        <time>2018-08-20T08:02:08Z</time>
      </trkpt>
      <trkpt lat="44.66746" lon="6.95489">
        <ele>2849</ele>
        <time>2018-08-20T08:02:17Z</time>
      </trkpt>
      <trkpt lat="44.66748" lon="6.95489">
        <ele>2849</ele>
        <time>2018-08-20T08:02:19Z</time>
      </trkpt>
      <trkpt lat="44.66759" lon="6.95489">
        <ele>2848.52</ele>
        <time>2018-08-20T08:02:31Z</time>
      </trkpt>
      <trkpt lat="44.66762" lon="6.95499">
        <ele>2848.52</ele>
        <time>2018-08-20T08:02:39Z</time>
      </trkpt>
      <trkpt lat="44.66764" lon="6.95505">
        <ele>2849.97</ele>
        <time>2018-08-20T08:02:45Z</time>
      </trkpt>
      <trkpt lat="44.66768" lon="6.95509">
        <ele>2850.45</ele>
        <time>2018-08-20T08:02:59Z</time>
      </trkpt>
      <trkpt lat="44.66778" lon="6.95515">
        <ele>2851.89</ele>
        <time>2018-08-20T08:03:13Z</time>
      </trkpt>
      <trkpt lat="44.66784" lon="6.95521">
        <ele>2852.37</ele>
        <time>2018-08-20T08:03:25Z</time>
      </trkpt>
      <trkpt lat="44.66789" lon="6.95526">
        <ele>2853.33</ele>
        <time>2018-08-20T08:03:36Z</time>
      </trkpt>
      <trkpt lat="44.66791" lon="6.95524">
        <ele>2853.33</ele>
        <time>2018-08-20T08:03:57Z</time>
      </trkpt>
      <trkpt lat="44.6679" lon="6.95523">
        <ele>2853.33</ele>
        <time>2018-08-20T08:04:13Z</time>
      </trkpt>
      <trkpt lat="44.66788" lon="6.95521">
        <ele>2853.33</ele>
        <time>2018-08-20T08:04:42Z</time>
      </trkpt>
      <trkpt lat="44.66792" lon="6.95524">
        <ele>2853.33</ele>
        <time>2018-08-20T08:04:52Z</time>
      </trkpt>
      <trkpt lat="44.66798" lon="6.95526">
        <ele>2853.33</ele>
        <time>2018-08-20T08:04:58Z</time>
      </trkpt>
      <trkpt lat="44.66805" lon="6.95539">
        <ele>2853.33</ele>
        <time>2018-08-20T08:05:12Z</time>
      </trkpt>
      <trkpt lat="44.66811" lon="6.95546">
        <ele>2853.33</ele>
        <time>2018-08-20T08:05:22Z</time>
      </trkpt>
      <trkpt lat="44.6682" lon="6.95558">
        <ele>2853.33</ele>
        <time>2018-08-20T08:05:36Z</time>
      </trkpt>
      <trkpt lat="44.66827" lon="6.95569">
        <ele>2852.37</ele>
        <time>2018-08-20T08:05:49Z</time>
      </trkpt>
      <trkpt lat="44.66832" lon="6.95577">
        <ele>2853.33</ele>
        <time>2018-08-20T08:06:01Z</time>
      </trkpt>
      <trkpt lat="44.66834" lon="6.95587">
        <ele>2855.25</ele>
        <time>2018-08-20T08:06:13Z</time>
      </trkpt>
      <trkpt lat="44.66834" lon="6.95596">
        <ele>2857.18</ele>
        <time>2018-08-20T08:06:25Z</time>
      </trkpt>
      <trkpt lat="44.66835" lon="6.95602">
        <ele>2858.62</ele>
        <time>2018-08-20T08:06:37Z</time>
      </trkpt>
      <trkpt lat="44.66836" lon="6.95609">
        <ele>2860.06</ele>
        <time>2018-08-20T08:06:50Z</time>
      </trkpt>
      <trkpt lat="44.66837" lon="6.95611">
        <ele>2861.98</ele>
        <time>2018-08-20T08:07:03Z</time>
      </trkpt>
      <trkpt lat="44.66843" lon="6.95615">
        <ele>2861.98</ele>
        <time>2018-08-20T08:07:14Z</time>
      </trkpt>
      <trkpt lat="44.6685" lon="6.95621">
        <ele>2862.94</ele>
        <time>2018-08-20T08:07:27Z</time>
      </trkpt>
      <trkpt lat="44.66854" lon="6.95628">
        <ele>2864.39</ele>
        <time>2018-08-20T08:07:40Z</time>
      </trkpt>
      <trkpt lat="44.66858" lon="6.95634">
        <ele>2865.35</ele>
        <time>2018-08-20T08:07:50Z</time>
      </trkpt>
      <trkpt lat="44.66863" lon="6.95644">
        <ele>2866.31</ele>
        <time>2018-08-20T08:08:02Z</time>
      </trkpt>
      <trkpt lat="44.66866" lon="6.95653">
        <ele>2866.79</ele>
        <time>2018-08-20T08:08:14Z</time>
      </trkpt>
      <trkpt lat="44.6687" lon="6.95662">
        <ele>2867.27</ele>
        <time>2018-08-20T08:08:26Z</time>
      </trkpt>
      <trkpt lat="44.66876" lon="6.95672">
        <ele>2868.23</ele>
        <time>2018-08-20T08:08:39Z</time>
      </trkpt>
      <trkpt lat="44.66882" lon="6.95681">
        <ele>2868.23</ele>
        <time>2018-08-20T08:08:50Z</time>
      </trkpt>
      <trkpt lat="44.66893" lon="6.95697">
        <ele>2868.71</ele>
        <time>2018-08-20T08:09:06Z</time>
      </trkpt>
      <trkpt lat="44.66898" lon="6.95709">
        <ele>2870.15</ele>
        <time>2018-08-20T08:09:20Z</time>
      </trkpt>
      <trkpt lat="44.66904" lon="6.9572">
        <ele>2872.08</ele>
        <time>2018-08-20T08:09:32Z</time>
      </trkpt>
      <trkpt lat="44.6691" lon="6.95732">
        <ele>2873.52</ele>
        <time>2018-08-20T08:09:46Z</time>
      </trkpt>
      <trkpt lat="44.66913" lon="6.95743">
        <ele>2874.96</ele>
        <time>2018-08-20T08:09:58Z</time>
      </trkpt>
      <trkpt lat="44.66915" lon="6.95756">
        <ele>2876.88</ele>
        <time>2018-08-20T08:10:12Z</time>
      </trkpt>
      <trkpt lat="44.66915" lon="6.95769">
        <ele>2878.32</ele>
        <time>2018-08-20T08:10:25Z</time>
      </trkpt>
      <trkpt lat="44.66919" lon="6.95778">
        <ele>2880.25</ele>
        <time>2018-08-20T08:10:37Z</time>
      </trkpt>
      <trkpt lat="44.66922" lon="6.95784">
        <ele>2881.69</ele>
        <time>2018-08-20T08:10:50Z</time>
      </trkpt>
      <trkpt lat="44.66921" lon="6.95783">
        <ele>2882.65</ele>
        <time>2018-08-20T08:11:07Z</time>
      </trkpt>
      <trkpt lat="44.66923" lon="6.95784">
        <ele>2882.65</ele>
        <time>2018-08-20T08:11:30Z</time>
      </trkpt>
      <trkpt lat="44.66925" lon="6.95784">
        <ele>2881.69</ele>
        <time>2018-08-20T08:11:43Z</time>
      </trkpt>
      <trkpt lat="44.66934" lon="6.95782">
        <ele>2880.73</ele>
        <time>2018-08-20T08:11:56Z</time>
      </trkpt>
      <trkpt lat="44.66938" lon="6.95779">
        <ele>2879.29</ele>
        <time>2018-08-20T08:12:03Z</time>
      </trkpt>
      <trkpt lat="44.66945" lon="6.95772">
        <ele>2877.36</ele>
        <time>2018-08-20T08:12:15Z</time>
      </trkpt>
      <trkpt lat="44.66947" lon="6.95774">
        <ele>2876.88</ele>
        <time>2018-08-20T08:12:33Z</time>
      </trkpt>
      <trkpt lat="44.6695" lon="6.95774">
        <ele>2876.4</ele>
        <time>2018-08-20T08:12:46Z</time>
      </trkpt>
      <trkpt lat="44.66954" lon="6.95776">
        <ele>2875.44</ele>
        <time>2018-08-20T08:12:52Z</time>
      </trkpt>
      <trkpt lat="44.66957" lon="6.95774">
        <ele>2874.96</ele>
        <time>2018-08-20T08:12:55Z</time>
      </trkpt>
      <trkpt lat="44.6697" lon="6.95774">
        <ele>2873.52</ele>
        <time>2018-08-20T08:13:10Z</time>
      </trkpt>
      <trkpt lat="44.66978" lon="6.95777">
        <ele>2870.63</ele>
        <time>2018-08-20T08:13:21Z</time>
      </trkpt>
      <trkpt lat="44.66981" lon="6.95777">
        <ele>2870.15</ele>
        <time>2018-08-20T08:13:24Z</time>
      </trkpt>
      <trkpt lat="44.6699" lon="6.95783">
        <ele>2867.75</ele>
        <time>2018-08-20T08:13:38Z</time>
      </trkpt>
      <trkpt lat="44.67001" lon="6.95787">
        <ele>2864.87</ele>
        <time>2018-08-20T08:13:51Z</time>
      </trkpt>
      <trkpt lat="44.67006" lon="6.95793">
        <ele>2864.87</ele>
        <time>2018-08-20T08:14:03Z</time>
      </trkpt>
      <trkpt lat="44.6702" lon="6.9579">
        <ele>2863.42</ele>
        <time>2018-08-20T08:14:19Z</time>
      </trkpt>
      <trkpt lat="44.67021" lon="6.9579">
        <ele>2862.94</ele>
        <time>2018-08-20T08:14:22Z</time>
      </trkpt>
      <trkpt lat="44.67036" lon="6.95792">
        <ele>2860.54</ele>
        <time>2018-08-20T08:14:38Z</time>
      </trkpt>
      <trkpt lat="44.67038" lon="6.95792">
        <ele>2860.06</ele>
        <time>2018-08-20T08:14:42Z</time>
      </trkpt>
      <trkpt lat="44.67054" lon="6.9579">
        <ele>2857.66</ele>
        <time>2018-08-20T08:15:01Z</time>
      </trkpt>
      <trkpt lat="44.67056" lon="6.95791">
        <ele>2857.66</ele>
        <time>2018-08-20T08:15:04Z</time>
      </trkpt>
      <trkpt lat="44.67062" lon="6.95796">
        <ele>2857.18</ele>
        <time>2018-08-20T08:15:10Z</time>
      </trkpt>
      <trkpt lat="44.67072" lon="6.95797">
        <ele>2857.18</ele>
        <time>2018-08-20T08:15:22Z</time>
      </trkpt>
      <trkpt lat="44.67075" lon="6.958">
        <ele>2857.18</ele>
        <time>2018-08-20T08:15:27Z</time>
      </trkpt>
      <trkpt lat="44.67091" lon="6.95801">
        <ele>2854.77</ele>
        <time>2018-08-20T08:15:44Z</time>
      </trkpt>
      <trkpt lat="44.67098" lon="6.95803">
        <ele>2853.81</ele>
        <time>2018-08-20T08:15:58Z</time>
      </trkpt>
      <trkpt lat="44.67103" lon="6.95803">
        <ele>2853.33</ele>
        <time>2018-08-20T08:16:11Z</time>
      </trkpt>
      <trkpt lat="44.67111" lon="6.95803">
        <ele>2851.89</ele>
        <time>2018-08-20T08:16:23Z</time>
      </trkpt>
      <trkpt lat="44.67111" lon="6.95802">
        <ele>2851.41</ele>
        <time>2018-08-20T08:16:24Z</time>
      </trkpt>
      <trkpt lat="44.67115" lon="6.958">
        <ele>2851.41</ele>
        <time>2018-08-20T08:16:28Z</time>
      </trkpt>
      <trkpt lat="44.67132" lon="6.95799">
        <ele>2848.04</ele>
        <time>2018-08-20T08:16:45Z</time>
      </trkpt>
      <trkpt lat="44.67145" lon="6.95792">
        <ele>2847.08</ele>
        <time>2018-08-20T08:16:57Z</time>
      </trkpt>
      <trkpt lat="44.67149" lon="6.95789">
        <ele>2846.6</ele>
        <time>2018-08-20T08:17:01Z</time>
      </trkpt>
      <trkpt lat="44.67168" lon="6.95794">
        <ele>2844.68</ele>
        <time>2018-08-20T08:17:20Z</time>
      </trkpt>
      <trkpt lat="44.67169" lon="6.95795">
        <ele>2844.68</ele>
        <time>2018-08-20T08:17:21Z</time>
      </trkpt>
      <trkpt lat="44.67173" lon="6.95795">
        <ele>2844.2</ele>
        <time>2018-08-20T08:17:25Z</time>
      </trkpt>
      <trkpt lat="44.67183" lon="6.95797">
        <ele>2843.72</ele>
        <time>2018-08-20T08:17:34Z</time>
      </trkpt>
      <trkpt lat="44.67185" lon="6.95798">
        <ele>2843.72</ele>
        <time>2018-08-20T08:17:36Z</time>
      </trkpt>
      <trkpt lat="44.67198" lon="6.95809">
        <ele>2843.72</ele>
        <time>2018-08-20T08:17:51Z</time>
      </trkpt>
      <trkpt lat="44.67216" lon="6.95814">
        <ele>2842.76</ele>
        <time>2018-08-20T08:18:08Z</time>
      </trkpt>
      <trkpt lat="44.67232" lon="6.95813">
        <ele>2841.79</ele>
        <time>2018-08-20T08:18:24Z</time>
      </trkpt>
      <trkpt lat="44.67241" lon="6.95817">
        <ele>2841.31</ele>
        <time>2018-08-20T08:18:32Z</time>
      </trkpt>
      <trkpt lat="44.67244" lon="6.95822">
        <ele>2840.83</ele>
        <time>2018-08-20T08:18:46Z</time>
      </trkpt>
      <trkpt lat="44.67245" lon="6.95823">
        <ele>2840.83</ele>
        <time>2018-08-20T08:19:07Z</time>
      </trkpt>
      <trkpt lat="44.6725" lon="6.95828">
        <ele>2842.28</ele>
        <time>2018-08-20T08:19:18Z</time>
      </trkpt>
      <trkpt lat="44.67251" lon="6.95828">
        <ele>2842.28</ele>
        <time>2018-08-20T08:19:33Z</time>
      </trkpt>
      <trkpt lat="44.67257" lon="6.95831">
        <ele>2843.24</ele>
        <time>2018-08-20T08:19:45Z</time>
      </trkpt>
      <trkpt lat="44.67268" lon="6.95839">
        <ele>2843.72</ele>
        <time>2018-08-20T08:19:59Z</time>
      </trkpt>
      <trkpt lat="44.67275" lon="6.95848">
        <ele>2846.12</ele>
        <time>2018-08-20T08:20:14Z</time>
      </trkpt>
      <trkpt lat="44.67283" lon="6.95851">
        <ele>2848.04</ele>
        <time>2018-08-20T08:20:26Z</time>
      </trkpt>
      <trkpt lat="44.67284" lon="6.95851">
        <ele>2848.04</ele>
        <time>2018-08-20T08:20:27Z</time>
      </trkpt>
      <trkpt lat="44.67297" lon="6.95856">
        <ele>2848.04</ele>
        <time>2018-08-20T08:20:42Z</time>
      </trkpt>
      <trkpt lat="44.67305" lon="6.95864">
        <ele>2849.48</ele>
        <time>2018-08-20T08:20:56Z</time>
      </trkpt>
      <trkpt lat="44.67315" lon="6.95872">
        <ele>2851.41</ele>
        <time>2018-08-20T08:21:12Z</time>
      </trkpt>
      <trkpt lat="44.67326" lon="6.95881">
        <ele>2853.33</ele>
        <time>2018-08-20T08:21:27Z</time>
      </trkpt>
      <trkpt lat="44.67339" lon="6.9588">
        <ele>2853.33</ele>
        <time>2018-08-20T08:21:43Z</time>
      </trkpt>
      <trkpt lat="44.6735" lon="6.95876">
        <ele>2854.29</ele>
        <time>2018-08-20T08:21:56Z</time>
      </trkpt>
      <trkpt lat="44.67361" lon="6.95872">
        <ele>2854.29</ele>
        <time>2018-08-20T08:22:08Z</time>
      </trkpt>
      <trkpt lat="44.67363" lon="6.9587">
        <ele>2853.33</ele>
        <time>2018-08-20T08:22:10Z</time>
      </trkpt>
      <trkpt lat="44.67379" lon="6.95867">
        <ele>2852.85</ele>
        <time>2018-08-20T08:22:25Z</time>
      </trkpt>
      <trkpt lat="44.67387" lon="6.9587">
        <ele>2853.81</ele>
        <time>2018-08-20T08:22:33Z</time>
      </trkpt>
      <trkpt lat="44.67391" lon="6.9588">
        <ele>2855.73</ele>
        <time>2018-08-20T08:22:45Z</time>
      </trkpt>
      <trkpt lat="44.67394" lon="6.95884">
        <ele>2856.69</ele>
        <time>2018-08-20T08:22:51Z</time>
      </trkpt>
      <trkpt lat="44.67404" lon="6.95887">
        <ele>2859.1</ele>
        <time>2018-08-20T08:23:06Z</time>
      </trkpt>
      <trkpt lat="44.67409" lon="6.95892">
        <ele>2860.06</ele>
        <time>2018-08-20T08:23:17Z</time>
      </trkpt>
      <trkpt lat="44.67418" lon="6.95893">
        <ele>2861.98</ele>
        <time>2018-08-20T08:23:32Z</time>
      </trkpt>
      <trkpt lat="44.67429" lon="6.95892">
        <ele>2863.9</ele>
        <time>2018-08-20T08:23:46Z</time>
      </trkpt>
      <trkpt lat="44.67437" lon="6.95899">
        <ele>2865.35</ele>
        <time>2018-08-20T08:23:59Z</time>
      </trkpt>
      <trkpt lat="44.67444" lon="6.95904">
        <ele>2867.27</ele>
        <time>2018-08-20T08:24:14Z</time>
      </trkpt>
      <trkpt lat="44.67446" lon="6.95914">
        <ele>2869.67</ele>
        <time>2018-08-20T08:24:27Z</time>
      </trkpt>
      <trkpt lat="44.6745" lon="6.95913">
        <ele>2872.56</ele>
        <time>2018-08-20T08:24:41Z</time>
      </trkpt>
      <trkpt lat="44.67455" lon="6.95922">
        <ele>2873.52</ele>
        <time>2018-08-20T08:24:53Z</time>
      </trkpt>
      <trkpt lat="44.67458" lon="6.95928">
        <ele>2875.44</ele>
        <time>2018-08-20T08:25:06Z</time>
      </trkpt>
      <trkpt lat="44.67458" lon="6.95937">
        <ele>2876.88</ele>
        <time>2018-08-20T08:25:18Z</time>
      </trkpt>
      <trkpt lat="44.67461" lon="6.95942">
        <ele>2878.81</ele>
        <time>2018-08-20T08:25:32Z</time>
      </trkpt>
      <trkpt lat="44.67461" lon="6.95953">
        <ele>2881.21</ele>
        <time>2018-08-20T08:25:46Z</time>
      </trkpt>
      <trkpt lat="44.67467" lon="6.95958">
        <ele>2883.13</ele>
        <time>2018-08-20T08:25:59Z</time>
      </trkpt>
      <trkpt lat="44.67472" lon="6.95965">
        <ele>2884.09</ele>
        <time>2018-08-20T08:26:11Z</time>
      </trkpt>
      <trkpt lat="44.67478" lon="6.95974">
        <ele>2886.02</ele>
        <time>2018-08-20T08:26:27Z</time>
      </trkpt>
      <trkpt lat="44.67479" lon="6.95988">
        <ele>2887.94</ele>
        <time>2018-08-20T08:26:43Z</time>
      </trkpt>
      <trkpt lat="44.67483" lon="6.95991">
        <ele>2889.86</ele>
        <time>2018-08-20T08:26:55Z</time>
      </trkpt>
      <trkpt lat="44.67486" lon="6.95998">
        <ele>2892.26</ele>
        <time>2018-08-20T08:27:10Z</time>
      </trkpt>
      <trkpt lat="44.67491" lon="6.96004">
        <ele>2893.71</ele>
        <time>2018-08-20T08:27:24Z</time>
      </trkpt>
      <trkpt lat="44.67494" lon="6.96014">
        <ele>2897.07</ele>
        <time>2018-08-20T08:27:40Z</time>
      </trkpt>
      <trkpt lat="44.67499" lon="6.96022">
        <ele>2898.03</ele>
        <time>2018-08-20T08:27:53Z</time>
      </trkpt>
      <trkpt lat="44.67504" lon="6.96028">
        <ele>2900.92</ele>
        <time>2018-08-20T08:28:09Z</time>
      </trkpt>
      <trkpt lat="44.67508" lon="6.9603">
        <ele>2903.32</ele>
        <time>2018-08-20T08:28:23Z</time>
      </trkpt>
      <trkpt lat="44.67514" lon="6.96032">
        <ele>2904.76</ele>
        <time>2018-08-20T08:28:37Z</time>
      </trkpt>
      <trkpt lat="44.67517" lon="6.96036">
        <ele>2907.16</ele>
        <time>2018-08-20T08:28:51Z</time>
      </trkpt>
      <trkpt lat="44.6752" lon="6.96044">
        <ele>2909.09</ele>
        <time>2018-08-20T08:29:07Z</time>
      </trkpt>
      <trkpt lat="44.67526" lon="6.96048">
        <ele>2911.49</ele>
        <time>2018-08-20T08:29:21Z</time>
      </trkpt>
      <trkpt lat="44.67531" lon="6.96051">
        <ele>2913.89</ele>
        <time>2018-08-20T08:29:35Z</time>
      </trkpt>
      <trkpt lat="44.67529" lon="6.96062">
        <ele>2915.82</ele>
        <time>2018-08-20T08:29:49Z</time>
      </trkpt>
      <trkpt lat="44.67527" lon="6.96072">
        <ele>2918.22</ele>
        <time>2018-08-20T08:30:05Z</time>
      </trkpt>
      <trkpt lat="44.67525" lon="6.96083">
        <ele>2920.14</ele>
        <time>2018-08-20T08:30:19Z</time>
      </trkpt>
      <trkpt lat="44.67526" lon="6.96093">
        <ele>2922.06</ele>
        <time>2018-08-20T08:30:34Z</time>
      </trkpt>
      <trkpt lat="44.6753" lon="6.961">
        <ele>2923.51</ele>
        <time>2018-08-20T08:30:46Z</time>
      </trkpt>
      <trkpt lat="44.67532" lon="6.96109">
        <ele>2925.91</ele>
        <time>2018-08-20T08:31:00Z</time>
      </trkpt>
      <trkpt lat="44.67535" lon="6.96119">
        <ele>2927.35</ele>
        <time>2018-08-20T08:31:15Z</time>
      </trkpt>
      <trkpt lat="44.67536" lon="6.96132">
        <ele>2929.75</ele>
        <time>2018-08-20T08:31:30Z</time>
      </trkpt>
      <trkpt lat="44.6754" lon="6.96139">
        <ele>2931.68</ele>
        <time>2018-08-20T08:31:44Z</time>
      </trkpt>
      <trkpt lat="44.67542" lon="6.96149">
        <ele>2934.08</ele>
        <time>2018-08-20T08:31:59Z</time>
      </trkpt>
      <trkpt lat="44.67544" lon="6.96159">
        <ele>2936.48</ele>
        <time>2018-08-20T08:32:14Z</time>
      </trkpt>
      <trkpt lat="44.67546" lon="6.96158">
        <ele>2937.93</ele>
        <time>2018-08-20T08:32:27Z</time>
      </trkpt>
      <trkpt lat="44.67548" lon="6.96166">
        <ele>2938.89</ele>
        <time>2018-08-20T08:32:38Z</time>
      </trkpt>
      <trkpt lat="44.67551" lon="6.96176">
        <ele>2941.77</ele>
        <time>2018-08-20T08:32:53Z</time>
      </trkpt>
      <trkpt lat="44.67555" lon="6.96183">
        <ele>2943.69</ele>
        <time>2018-08-20T08:33:08Z</time>
      </trkpt>
      <trkpt lat="44.6756" lon="6.96177">
        <ele>2945.62</ele>
        <time>2018-08-20T08:33:21Z</time>
      </trkpt>
      <trkpt lat="44.67564" lon="6.96169">
        <ele>2946.58</ele>
        <time>2018-08-20T08:33:34Z</time>
      </trkpt>
      <trkpt lat="44.67571" lon="6.96165">
        <ele>2949.46</ele>
        <time>2018-08-20T08:33:47Z</time>
      </trkpt>
      <trkpt lat="44.67576" lon="6.96157">
        <ele>2951.38</ele>
        <time>2018-08-20T08:34:01Z</time>
      </trkpt>
      <trkpt lat="44.67582" lon="6.96144">
        <ele>2952.83</ele>
        <time>2018-08-20T08:34:16Z</time>
      </trkpt>
      <trkpt lat="44.67587" lon="6.96151">
        <ele>2955.71</ele>
        <time>2018-08-20T08:34:31Z</time>
      </trkpt>
      <trkpt lat="44.67589" lon="6.96156">
        <ele>2957.63</ele>
        <time>2018-08-20T08:34:45Z</time>
      </trkpt>
      <trkpt lat="44.67593" lon="6.96158">
        <ele>2960.04</ele>
        <time>2018-08-20T08:34:57Z</time>
      </trkpt>
      <trkpt lat="44.67596" lon="6.96154">
        <ele>2961</ele>
        <time>2018-08-20T08:35:06Z</time>
      </trkpt>
      <trkpt lat="44.67599" lon="6.96153">
        <ele>2962.92</ele>
        <time>2018-08-20T08:35:18Z</time>
      </trkpt>
      <trkpt lat="44.67602" lon="6.96161">
        <ele>2964.36</ele>
        <time>2018-08-20T08:35:30Z</time>
      </trkpt>
      <trkpt lat="44.67606" lon="6.96166">
        <ele>2966.29</ele>
        <time>2018-08-20T08:35:43Z</time>
      </trkpt>
      <trkpt lat="44.67612" lon="6.96162">
        <ele>2968.69</ele>
        <time>2018-08-20T08:35:57Z</time>
      </trkpt>
      <trkpt lat="44.67618" lon="6.96162">
        <ele>2970.61</ele>
        <time>2018-08-20T08:36:09Z</time>
      </trkpt>
      <trkpt lat="44.67622" lon="6.96164">
        <ele>2972.53</ele>
        <time>2018-08-20T08:36:21Z</time>
      </trkpt>
      <trkpt lat="44.67624" lon="6.96173">
        <ele>2973.98</ele>
        <time>2018-08-20T08:36:34Z</time>
      </trkpt>
      <trkpt lat="44.6763" lon="6.96172">
        <ele>2976.38</ele>
        <time>2018-08-20T08:36:48Z</time>
      </trkpt>
      <trkpt lat="44.67635" lon="6.9617">
        <ele>2978.78</ele>
        <time>2018-08-20T08:37:03Z</time>
      </trkpt>
      <trkpt lat="44.67641" lon="6.96168">
        <ele>2980.71</ele>
        <time>2018-08-20T08:37:18Z</time>
      </trkpt>
      <trkpt lat="44.67644" lon="6.96167">
        <ele>2983.11</ele>
        <time>2018-08-20T08:37:32Z</time>
      </trkpt>
      <trkpt lat="44.67652" lon="6.96166">
        <ele>2985.51</ele>
        <time>2018-08-20T08:37:47Z</time>
      </trkpt>
      <trkpt lat="44.67662" lon="6.96164">
        <ele>2986.95</ele>
        <time>2018-08-20T08:38:01Z</time>
      </trkpt>
      <trkpt lat="44.67666" lon="6.96171">
        <ele>2989.36</ele>
        <time>2018-08-20T08:38:14Z</time>
      </trkpt>
      <trkpt lat="44.67669" lon="6.96179">
        <ele>2991.28</ele>
        <time>2018-08-20T08:38:27Z</time>
      </trkpt>
      <trkpt lat="44.67675" lon="6.96184">
        <ele>2993.68</ele>
        <time>2018-08-20T08:38:41Z</time>
      </trkpt>
      <trkpt lat="44.67683" lon="6.9619">
        <ele>2995.6</ele>
        <time>2018-08-20T08:38:55Z</time>
      </trkpt>
      <trkpt lat="44.6769" lon="6.96196">
        <ele>2998.49</ele>
        <time>2018-08-20T08:39:11Z</time>
      </trkpt>
      <trkpt lat="44.67701" lon="6.96197">
        <ele>2998.97</ele>
        <time>2018-08-20T08:39:25Z</time>
      </trkpt>
      <trkpt lat="44.67706" lon="6.96202">
        <ele>3001.85</ele>
        <time>2018-08-20T08:39:39Z</time>
      </trkpt>
      <trkpt lat="44.67712" lon="6.96205">
        <ele>3003.3</ele>
        <time>2018-08-20T08:39:52Z</time>
      </trkpt>
      <trkpt lat="44.67718" lon="6.96208">
        <ele>3005.22</ele>
        <time>2018-08-20T08:40:04Z</time>
      </trkpt>
      <trkpt lat="44.67719" lon="6.96218">
        <ele>3007.62</ele>
        <time>2018-08-20T08:40:19Z</time>
      </trkpt>
      <trkpt lat="44.67721" lon="6.96226">
        <ele>3009.54</ele>
        <time>2018-08-20T08:40:33Z</time>
      </trkpt>
      <trkpt lat="44.67727" lon="6.96225">
        <ele>3010.99</ele>
        <time>2018-08-20T08:40:44Z</time>
      </trkpt>
      <trkpt lat="44.67731" lon="6.96228">
        <ele>3013.39</ele>
        <time>2018-08-20T08:40:55Z</time>
      </trkpt>
      <trkpt lat="44.67738" lon="6.96228">
        <ele>3014.35</ele>
        <time>2018-08-20T08:41:06Z</time>
      </trkpt>
      <trkpt lat="44.6774" lon="6.96228">
        <ele>3014.35</ele>
        <time>2018-08-20T08:41:10Z</time>
      </trkpt>
      <trkpt lat="44.67747" lon="6.96236">
        <ele>3014.35</ele>
        <time>2018-08-20T08:41:23Z</time>
      </trkpt>
      <trkpt lat="44.67747" lon="6.9624">
        <ele>3012.43</ele>
        <time>2018-08-20T08:41:33Z</time>
      </trkpt>
      <trkpt lat="44.67749" lon="6.96243">
        <ele>3010.51</ele>
        <time>2018-08-20T08:41:46Z</time>
      </trkpt>
      <trkpt lat="44.67749" lon="6.96243">
        <ele>3009.54</ele>
        <time>2018-08-20T08:41:57Z</time>
      </trkpt>
      <trkpt lat="44.6775" lon="6.96246">
        <ele>3008.1</ele>
        <time>2018-08-20T08:42:10Z</time>
      </trkpt>
      <trkpt lat="44.67756" lon="6.96253">
        <ele>3007.14</ele>
        <time>2018-08-20T08:42:24Z</time>
      </trkpt>
      <trkpt lat="44.67768" lon="6.96256">
        <ele>3007.14</ele>
        <time>2018-08-20T08:42:39Z</time>
      </trkpt>
      <trkpt lat="44.67776" lon="6.96258">
        <ele>3003.78</ele>
        <time>2018-08-20T08:42:53Z</time>
      </trkpt>
      <trkpt lat="44.6778" lon="6.96264">
        <ele>3001.37</ele>
        <time>2018-08-20T08:43:04Z</time>
      </trkpt>
      <trkpt lat="44.67782" lon="6.96263">
        <ele>3000.89</ele>
        <time>2018-08-20T08:43:06Z</time>
      </trkpt>
      <trkpt lat="44.67788" lon="6.96266">
        <ele>3000.89</ele>
        <time>2018-08-20T08:43:13Z</time>
      </trkpt>
      <trkpt lat="44.67792" lon="6.9627">
        <ele>3000.41</ele>
        <time>2018-08-20T08:43:19Z</time>
      </trkpt>
      <trkpt lat="44.67799" lon="6.96282">
        <ele>3001.85</ele>
        <time>2018-08-20T08:43:32Z</time>
      </trkpt>
      <trkpt lat="44.67809" lon="6.96287">
        <ele>3004.26</ele>
        <time>2018-08-20T08:43:47Z</time>
      </trkpt>
      <trkpt lat="44.67813" lon="6.96298">
        <ele>3006.66</ele>
        <time>2018-08-20T08:44:00Z</time>
      </trkpt>
      <trkpt lat="44.67818" lon="6.96308">
        <ele>3009.06</ele>
        <time>2018-08-20T08:44:14Z</time>
      </trkpt>
      <trkpt lat="44.67822" lon="6.96315">
        <ele>3010.51</ele>
        <time>2018-08-20T08:44:26Z</time>
      </trkpt>
      <trkpt lat="44.67826" lon="6.96326">
        <ele>3012.91</ele>
        <time>2018-08-20T08:44:40Z</time>
      </trkpt>
      <trkpt lat="44.67827" lon="6.96336">
        <ele>3014.35</ele>
        <time>2018-08-20T08:44:53Z</time>
      </trkpt>
      <trkpt lat="44.6783" lon="6.96346">
        <ele>3016.27</ele>
        <time>2018-08-20T08:45:04Z</time>
      </trkpt>
      <trkpt lat="44.67828" lon="6.96363">
        <ele>3017.23</ele>
        <time>2018-08-20T08:45:21Z</time>
      </trkpt>
      <trkpt lat="44.67829" lon="6.96369">
        <ele>3019.16</ele>
        <time>2018-08-20T08:45:34Z</time>
      </trkpt>
      <trkpt lat="44.67829" lon="6.96369">
        <ele>3019.16</ele>
        <time>2018-08-20T08:45:51Z</time>
      </trkpt>
      <trkpt lat="44.6783" lon="6.96369">
        <ele>3017.72</ele>
        <time>2018-08-20T08:45:53Z</time>
      </trkpt>
      <trkpt lat="44.67829" lon="6.96368">
        <ele>3017.72</ele>
        <time>2018-08-20T08:46:23Z</time>
      </trkpt>
      <trkpt lat="44.67829" lon="6.96368">
        <ele>3017.72</ele>
        <time>2018-08-20T08:46:57Z</time>
      </trkpt>
      <trkpt lat="44.67829" lon="6.96369">
        <ele>3019.64</ele>
        <time>2018-08-20T08:47:39Z</time>
      </trkpt>
      <trkpt lat="44.67828" lon="6.96368">
        <ele>3019.64</ele>
        <time>2018-08-20T08:47:55Z</time>
      </trkpt>
      <trkpt lat="44.67829" lon="6.96369">
        <ele>3020.12</ele>
        <time>2018-08-20T08:48:15Z</time>
      </trkpt>
      <trkpt lat="44.6783" lon="6.96369">
        <ele>3019.16</ele>
        <time>2018-08-20T08:48:38Z</time>
      </trkpt>
      <trkpt lat="44.6783" lon="6.96369">
        <ele>3019.16</ele>
        <time>2018-08-20T08:49:02Z</time>
      </trkpt>
      <trkpt lat="44.6783" lon="6.96369">
        <ele>3019.16</ele>
        <time>2018-08-20T08:49:22Z</time>
      </trkpt>
      <trkpt lat="44.6783" lon="6.96369">
        <ele>3018.68</ele>
        <time>2018-08-20T08:49:43Z</time>
      </trkpt>
      <trkpt lat="44.67829" lon="6.96368">
        <ele>3019.64</ele>
        <time>2018-08-20T08:50:27Z</time>
      </trkpt>
      <trkpt lat="44.67829" lon="6.96368">
        <ele>3019.64</ele>
        <time>2018-08-20T08:51:04Z</time>
      </trkpt>
      <trkpt lat="44.67828" lon="6.96367">
        <ele>3020.12</ele>
        <time>2018-08-20T08:51:50Z</time>
      </trkpt>
      <trkpt lat="44.67828" lon="6.96367">
        <ele>3020.12</ele>
        <time>2018-08-20T08:52:26Z</time>
      </trkpt>
      <trkpt lat="44.67829" lon="6.96367">
        <ele>3020.6</ele>
        <time>2018-08-20T08:53:10Z</time>
      </trkpt>
      <trkpt lat="44.67828" lon="6.96369">
        <ele>3020.6</ele>
        <time>2018-08-20T08:53:55Z</time>
      </trkpt>
      <trkpt lat="44.67827" lon="6.96368">
        <ele>3021.08</ele>
        <time>2018-08-20T08:54:43Z</time>
      </trkpt>
      <trkpt lat="44.67827" lon="6.96366">
        <ele>3021.56</ele>
        <time>2018-08-20T08:55:26Z</time>
      </trkpt>
      <trkpt lat="44.67829" lon="6.96368">
        <ele>3022.04</ele>
        <time>2018-08-20T08:55:41Z</time>
      </trkpt>
      <trkpt lat="44.6783" lon="6.9637">
        <ele>3022.04</ele>
        <time>2018-08-20T08:56:04Z</time>
      </trkpt>
      <trkpt lat="44.67828" lon="6.96368">
        <ele>3022.04</ele>
        <time>2018-08-20T08:56:23Z</time>
      </trkpt>
      <trkpt lat="44.67828" lon="6.96365">
        <ele>3022.04</ele>
        <time>2018-08-20T08:56:35Z</time>
      </trkpt>
      <trkpt lat="44.67827" lon="6.96364">
        <ele>3022.04</ele>
        <time>2018-08-20T08:56:55Z</time>
      </trkpt>
      <trkpt lat="44.67829" lon="6.96367">
        <ele>3022.04</ele>
        <time>2018-08-20T08:57:07Z</time>
      </trkpt>
      <trkpt lat="44.67828" lon="6.96366">
        <ele>3022.04</ele>
        <time>2018-08-20T08:57:21Z</time>
      </trkpt>
      <trkpt lat="44.67829" lon="6.96366">
        <ele>3022.04</ele>
        <time>2018-08-20T08:57:44Z</time>
      </trkpt>
      <trkpt lat="44.67828" lon="6.96366">
        <ele>3022.52</ele>
        <time>2018-08-20T08:58:03Z</time>
      </trkpt>
      <trkpt lat="44.67827" lon="6.96364">
        <ele>3021.08</ele>
        <time>2018-08-20T08:58:26Z</time>
      </trkpt>
      <trkpt lat="44.67826" lon="6.96355">
        <ele>3020.6</ele>
        <time>2018-08-20T08:58:37Z</time>
      </trkpt>
      <trkpt lat="44.67827" lon="6.96352">
        <ele>3020.6</ele>
        <time>2018-08-20T08:58:40Z</time>
      </trkpt>
      <trkpt lat="44.67826" lon="6.96335">
        <ele>3018.68</ele>
        <time>2018-08-20T08:58:55Z</time>
      </trkpt>
      <trkpt lat="44.67823" lon="6.96325">
        <ele>3016.75</ele>
        <time>2018-08-20T08:59:08Z</time>
      </trkpt>
      <trkpt lat="44.67822" lon="6.96309">
        <ele>3013.87</ele>
        <time>2018-08-20T08:59:23Z</time>
      </trkpt>
      <trkpt lat="44.67824" lon="6.96306">
        <ele>3012.91</ele>
        <time>2018-08-20T08:59:27Z</time>
      </trkpt>
      <trkpt lat="44.67833" lon="6.9631">
        <ele>3010.51</ele>
        <time>2018-08-20T08:59:41Z</time>
      </trkpt>
      <trkpt lat="44.67844" lon="6.96305">
        <ele>3009.06</ele>
        <time>2018-08-20T08:59:55Z</time>
      </trkpt>
      <trkpt lat="44.67855" lon="6.96296">
        <ele>3006.66</ele>
        <time>2018-08-20T09:00:12Z</time>
      </trkpt>
      <trkpt lat="44.67864" lon="6.96288">
        <ele>3003.3</ele>
        <time>2018-08-20T09:00:25Z</time>
      </trkpt>
      <trkpt lat="44.67872" lon="6.9628">
        <ele>3000.41</ele>
        <time>2018-08-20T09:00:40Z</time>
      </trkpt>
      <trkpt lat="44.67877" lon="6.96275">
        <ele>2997.53</ele>
        <time>2018-08-20T09:00:53Z</time>
      </trkpt>
      <trkpt lat="44.67874" lon="6.9627">
        <ele>2994.16</ele>
        <time>2018-08-20T09:01:01Z</time>
      </trkpt>
      <trkpt lat="44.67874" lon="6.96263">
        <ele>2991.76</ele>
        <time>2018-08-20T09:01:12Z</time>
      </trkpt>
      <trkpt lat="44.67873" lon="6.96259">
        <ele>2989.84</ele>
        <time>2018-08-20T09:01:18Z</time>
      </trkpt>
      <trkpt lat="44.67878" lon="6.96252">
        <ele>2987.43</ele>
        <time>2018-08-20T09:01:30Z</time>
      </trkpt>
      <trkpt lat="44.67887" lon="6.96244">
        <ele>2984.07</ele>
        <time>2018-08-20T09:01:44Z</time>
      </trkpt>
      <trkpt lat="44.67896" lon="6.96236">
        <ele>2981.19</ele>
        <time>2018-08-20T09:01:57Z</time>
      </trkpt>
      <trkpt lat="44.67905" lon="6.96227">
        <ele>2978.78</ele>
        <time>2018-08-20T09:02:12Z</time>
      </trkpt>
      <trkpt lat="44.67912" lon="6.96223">
        <ele>2977.82</ele>
        <time>2018-08-20T09:02:22Z</time>
      </trkpt>
      <trkpt lat="44.67922" lon="6.96218">
        <ele>2975.9</ele>
        <time>2018-08-20T09:02:35Z</time>
      </trkpt>
      <trkpt lat="44.67924" lon="6.96208">
        <ele>2973.5</ele>
        <time>2018-08-20T09:02:48Z</time>
      </trkpt>
      <trkpt lat="44.67923" lon="6.96201">
        <ele>2970.61</ele>
        <time>2018-08-20T09:03:00Z</time>
      </trkpt>
      <trkpt lat="44.67922" lon="6.96195">
        <ele>2969.17</ele>
        <time>2018-08-20T09:03:15Z</time>
      </trkpt>
      <trkpt lat="44.67925" lon="6.9619">
        <ele>2966.77</ele>
        <time>2018-08-20T09:03:28Z</time>
      </trkpt>
      <trkpt lat="44.6793" lon="6.96177">
        <ele>2963.4</ele>
        <time>2018-08-20T09:03:42Z</time>
      </trkpt>
      <trkpt lat="44.67932" lon="6.96173">
        <ele>2961.96</ele>
        <time>2018-08-20T09:03:47Z</time>
      </trkpt>
      <trkpt lat="44.67936" lon="6.96165">
        <ele>2961</ele>
        <time>2018-08-20T09:03:54Z</time>
      </trkpt>
      <trkpt lat="44.67939" lon="6.96161">
        <ele>2960.04</ele>
        <time>2018-08-20T09:03:59Z</time>
      </trkpt>
      <trkpt lat="44.6794" lon="6.96155">
        <ele>2959.08</ele>
        <time>2018-08-20T09:04:04Z</time>
      </trkpt>
      <trkpt lat="44.67948" lon="6.96146">
        <ele>2957.15</ele>
        <time>2018-08-20T09:04:18Z</time>
      </trkpt>
      <trkpt lat="44.6795" lon="6.96142">
        <ele>2956.67</ele>
        <time>2018-08-20T09:04:21Z</time>
      </trkpt>
      <trkpt lat="44.67955" lon="6.96135">
        <ele>2954.75</ele>
        <time>2018-08-20T09:04:29Z</time>
      </trkpt>
      <trkpt lat="44.67956" lon="6.96132">
        <ele>2954.75</ele>
        <time>2018-08-20T09:04:31Z</time>
      </trkpt>
      <trkpt lat="44.6796" lon="6.96121">
        <ele>2952.83</ele>
        <time>2018-08-20T09:04:41Z</time>
      </trkpt>
      <trkpt lat="44.67967" lon="6.96103">
        <ele>2950.9</ele>
        <time>2018-08-20T09:04:54Z</time>
      </trkpt>
      <trkpt lat="44.67971" lon="6.96098">
        <ele>2949.94</ele>
        <time>2018-08-20T09:04:59Z</time>
      </trkpt>
      <trkpt lat="44.67979" lon="6.96084">
        <ele>2947.06</ele>
        <time>2018-08-20T09:05:13Z</time>
      </trkpt>
      <trkpt lat="44.67984" lon="6.96069">
        <ele>2944.17</ele>
        <time>2018-08-20T09:05:27Z</time>
      </trkpt>
      <trkpt lat="44.67981" lon="6.96063">
        <ele>2942.73</ele>
        <time>2018-08-20T09:05:32Z</time>
      </trkpt>
      <trkpt lat="44.67983" lon="6.96054">
        <ele>2941.29</ele>
        <time>2018-08-20T09:05:41Z</time>
      </trkpt>
      <trkpt lat="44.67987" lon="6.96034">
        <ele>2937.93</ele>
        <time>2018-08-20T09:05:58Z</time>
      </trkpt>
      <trkpt lat="44.67988" lon="6.96031">
        <ele>2937.93</ele>
        <time>2018-08-20T09:06:00Z</time>
      </trkpt>
      <trkpt lat="44.67998" lon="6.96009">
        <ele>2935.52</ele>
        <time>2018-08-20T09:06:18Z</time>
      </trkpt>
      <trkpt lat="44.68004" lon="6.95994">
        <ele>2934.08</ele>
        <time>2018-08-20T09:06:30Z</time>
      </trkpt>
      <trkpt lat="44.68013" lon="6.95978">
        <ele>2931.2</ele>
        <time>2018-08-20T09:06:46Z</time>
      </trkpt>
      <trkpt lat="44.68013" lon="6.95977">
        <ele>2931.2</ele>
        <time>2018-08-20T09:06:47Z</time>
      </trkpt>
      <trkpt lat="44.68016" lon="6.95967">
        <ele>2929.75</ele>
        <time>2018-08-20T09:07:02Z</time>
      </trkpt>
      <trkpt lat="44.68022" lon="6.95956">
        <ele>2926.39</ele>
        <time>2018-08-20T09:07:14Z</time>
      </trkpt>
      <trkpt lat="44.68022" lon="6.95954">
        <ele>2926.39</ele>
        <time>2018-08-20T09:07:16Z</time>
      </trkpt>
      <trkpt lat="44.6803" lon="6.95947">
        <ele>2923.03</ele>
        <time>2018-08-20T09:07:31Z</time>
      </trkpt>
      <trkpt lat="44.6803" lon="6.95946">
        <ele>2923.03</ele>
        <time>2018-08-20T09:07:32Z</time>
      </trkpt>
      <trkpt lat="44.68033" lon="6.95935">
        <ele>2920.14</ele>
        <time>2018-08-20T09:07:43Z</time>
      </trkpt>
      <trkpt lat="44.68038" lon="6.95936">
        <ele>2917.26</ele>
        <time>2018-08-20T09:07:55Z</time>
      </trkpt>
      <trkpt lat="44.68044" lon="6.95934">
        <ele>2914.85</ele>
        <time>2018-08-20T09:08:08Z</time>
      </trkpt>
      <trkpt lat="44.68049" lon="6.95929">
        <ele>2911.49</ele>
        <time>2018-08-20T09:08:20Z</time>
      </trkpt>
      <trkpt lat="44.68053" lon="6.95916">
        <ele>2908.13</ele>
        <time>2018-08-20T09:08:32Z</time>
      </trkpt>
      <trkpt lat="44.6806" lon="6.95915">
        <ele>2906.2</ele>
        <time>2018-08-20T09:08:44Z</time>
      </trkpt>
      <trkpt lat="44.68066" lon="6.95921">
        <ele>2903.32</ele>
        <time>2018-08-20T09:08:55Z</time>
      </trkpt>
      <trkpt lat="44.68072" lon="6.95921">
        <ele>2900.44</ele>
        <time>2018-08-20T09:09:08Z</time>
      </trkpt>
      <trkpt lat="44.68078" lon="6.95927">
        <ele>2897.07</ele>
        <time>2018-08-20T09:09:20Z</time>
      </trkpt>
      <trkpt lat="44.68083" lon="6.95927">
        <ele>2896.11</ele>
        <time>2018-08-20T09:09:26Z</time>
      </trkpt>
      <trkpt lat="44.68087" lon="6.95926">
        <ele>2895.63</ele>
        <time>2018-08-20T09:09:30Z</time>
      </trkpt>
      <trkpt lat="44.68093" lon="6.95927">
        <ele>2895.15</ele>
        <time>2018-08-20T09:09:35Z</time>
      </trkpt>
      <trkpt lat="44.68111" lon="6.95922">
        <ele>2893.71</ele>
        <time>2018-08-20T09:09:52Z</time>
      </trkpt>
      <trkpt lat="44.68125" lon="6.95917">
        <ele>2891.78</ele>
        <time>2018-08-20T09:10:08Z</time>
      </trkpt>
      <trkpt lat="44.68131" lon="6.95915">
        <ele>2890.34</ele>
        <time>2018-08-20T09:10:14Z</time>
      </trkpt>
      <trkpt lat="44.68133" lon="6.95914">
        <ele>2890.82</ele>
        <time>2018-08-20T09:10:16Z</time>
      </trkpt>
      <trkpt lat="44.68141" lon="6.95904">
        <ele>2889.86</ele>
        <time>2018-08-20T09:10:32Z</time>
      </trkpt>
      <trkpt lat="44.68142" lon="6.95907">
        <ele>2889.38</ele>
        <time>2018-08-20T09:10:50Z</time>
      </trkpt>
      <trkpt lat="44.68142" lon="6.95907">
        <ele>2889.38</ele>
        <time>2018-08-20T09:11:16Z</time>
      </trkpt>
      <trkpt lat="44.68141" lon="6.95905">
        <ele>2889.38</ele>
        <time>2018-08-20T09:11:34Z</time>
      </trkpt>
      <trkpt lat="44.68142" lon="6.95906">
        <ele>2889.38</ele>
        <time>2018-08-20T09:11:59Z</time>
      </trkpt>
      <trkpt lat="44.68148" lon="6.9591">
        <ele>2889.38</ele>
        <time>2018-08-20T09:12:22Z</time>
      </trkpt>
      <trkpt lat="44.6815" lon="6.95914">
        <ele>2888.42</ele>
        <time>2018-08-20T09:12:26Z</time>
      </trkpt>
      <trkpt lat="44.68156" lon="6.95924">
        <ele>2886.02</ele>
        <time>2018-08-20T09:12:37Z</time>
      </trkpt>
      <trkpt lat="44.68156" lon="6.9593">
        <ele>2885.53</ele>
        <time>2018-08-20T09:12:41Z</time>
      </trkpt>
      <trkpt lat="44.68155" lon="6.9594">
        <ele>2884.57</ele>
        <time>2018-08-20T09:12:48Z</time>
      </trkpt>
      <trkpt lat="44.68156" lon="6.95968">
        <ele>2882.17</ele>
        <time>2018-08-20T09:13:06Z</time>
      </trkpt>
      <trkpt lat="44.68156" lon="6.95978">
        <ele>2881.69</ele>
        <time>2018-08-20T09:13:12Z</time>
      </trkpt>
      <trkpt lat="44.68154" lon="6.96004">
        <ele>2879.77</ele>
        <time>2018-08-20T09:13:29Z</time>
      </trkpt>
      <trkpt lat="44.68152" lon="6.96011">
        <ele>2879.77</ele>
        <time>2018-08-20T09:13:34Z</time>
      </trkpt>
      <trkpt lat="44.68145" lon="6.96026">
        <ele>2879.29</ele>
        <time>2018-08-20T09:13:47Z</time>
      </trkpt>
      <trkpt lat="44.68143" lon="6.96037">
        <ele>2877.84</ele>
        <time>2018-08-20T09:14:00Z</time>
      </trkpt>
      <trkpt lat="44.68138" lon="6.96041">
        <ele>2876.4</ele>
        <time>2018-08-20T09:14:12Z</time>
      </trkpt>
      <trkpt lat="44.68138" lon="6.96053">
        <ele>2873.04</ele>
        <time>2018-08-20T09:14:25Z</time>
      </trkpt>
      <trkpt lat="44.68138" lon="6.96054">
        <ele>2873.04</ele>
        <time>2018-08-20T09:14:26Z</time>
      </trkpt>
      <trkpt lat="44.68139" lon="6.9606">
        <ele>2871.6</ele>
        <time>2018-08-20T09:14:32Z</time>
      </trkpt>
      <trkpt lat="44.68135" lon="6.9607">
        <ele>2868.71</ele>
        <time>2018-08-20T09:14:44Z</time>
      </trkpt>
      <trkpt lat="44.68137" lon="6.9609">
        <ele>2865.83</ele>
        <time>2018-08-20T09:15:01Z</time>
      </trkpt>
      <trkpt lat="44.68136" lon="6.96103">
        <ele>2863.42</ele>
        <time>2018-08-20T09:15:14Z</time>
      </trkpt>
      <trkpt lat="44.68135" lon="6.96115">
        <ele>2860.54</ele>
        <time>2018-08-20T09:15:29Z</time>
      </trkpt>
      <trkpt lat="44.68137" lon="6.96121">
        <ele>2858.62</ele>
        <time>2018-08-20T09:15:35Z</time>
      </trkpt>
      <trkpt lat="44.68137" lon="6.96133">
        <ele>2856.21</ele>
        <time>2018-08-20T09:15:45Z</time>
      </trkpt>
      <trkpt lat="44.68136" lon="6.96149">
        <ele>2855.25</ele>
        <time>2018-08-20T09:15:58Z</time>
      </trkpt>
      <trkpt lat="44.68137" lon="6.96157">
        <ele>2852.85</ele>
        <time>2018-08-20T09:16:13Z</time>
      </trkpt>
      <trkpt lat="44.68143" lon="6.96152">
        <ele>2851.41</ele>
        <time>2018-08-20T09:16:29Z</time>
      </trkpt>
      <trkpt lat="44.68146" lon="6.96156">
        <ele>2849.48</ele>
        <time>2018-08-20T09:16:39Z</time>
      </trkpt>
      <trkpt lat="44.68144" lon="6.96168">
        <ele>2848.04</ele>
        <time>2018-08-20T09:17:00Z</time>
      </trkpt>
      <trkpt lat="44.68149" lon="6.9617">
        <ele>2844.68</ele>
        <time>2018-08-20T09:17:12Z</time>
      </trkpt>
      <trkpt lat="44.68156" lon="6.9617">
        <ele>2842.76</ele>
        <time>2018-08-20T09:17:20Z</time>
      </trkpt>
      <trkpt lat="44.68159" lon="6.96175">
        <ele>2841.79</ele>
        <time>2018-08-20T09:17:25Z</time>
      </trkpt>
      <trkpt lat="44.6816" lon="6.96178">
        <ele>2841.31</ele>
        <time>2018-08-20T09:17:28Z</time>
      </trkpt>
      <trkpt lat="44.68157" lon="6.96187">
        <ele>2840.35</ele>
        <time>2018-08-20T09:17:35Z</time>
      </trkpt>
      <trkpt lat="44.68152" lon="6.96201">
        <ele>2837.47</ele>
        <time>2018-08-20T09:17:48Z</time>
      </trkpt>
      <trkpt lat="44.68148" lon="6.96215">
        <ele>2834.1</ele>
        <time>2018-08-20T09:18:03Z</time>
      </trkpt>
      <trkpt lat="44.68147" lon="6.96218">
        <ele>2833.62</ele>
        <time>2018-08-20T09:18:07Z</time>
      </trkpt>
      <trkpt lat="44.68143" lon="6.96225">
        <ele>2831.7</ele>
        <time>2018-08-20T09:18:19Z</time>
      </trkpt>
      <trkpt lat="44.68142" lon="6.96228">
        <ele>2831.22</ele>
        <time>2018-08-20T09:18:22Z</time>
      </trkpt>
      <trkpt lat="44.68138" lon="6.9624">
        <ele>2827.85</ele>
        <time>2018-08-20T09:18:35Z</time>
      </trkpt>
      <trkpt lat="44.68139" lon="6.96246">
        <ele>2824.97</ele>
        <time>2018-08-20T09:18:47Z</time>
      </trkpt>
      <trkpt lat="44.68152" lon="6.96239">
        <ele>2822.57</ele>
        <time>2018-08-20T09:19:03Z</time>
      </trkpt>
      <trkpt lat="44.68162" lon="6.96236">
        <ele>2820.65</ele>
        <time>2018-08-20T09:19:15Z</time>
      </trkpt>
      <trkpt lat="44.6816" lon="6.96247">
        <ele>2817.76</ele>
        <time>2018-08-20T09:19:27Z</time>
      </trkpt>
      <trkpt lat="44.68159" lon="6.9625">
        <ele>2816.8</ele>
        <time>2018-08-20T09:19:30Z</time>
      </trkpt>
      <trkpt lat="44.68152" lon="6.96266">
        <ele>2813.44</ele>
        <time>2018-08-20T09:19:44Z</time>
      </trkpt>
      <trkpt lat="44.68147" lon="6.96279">
        <ele>2811.51</ele>
        <time>2018-08-20T09:19:55Z</time>
      </trkpt>
      <trkpt lat="44.68144" lon="6.96297">
        <ele>2808.63</ele>
        <time>2018-08-20T09:20:11Z</time>
      </trkpt>
      <trkpt lat="44.68137" lon="6.96309">
        <ele>2807.67</ele>
        <time>2018-08-20T09:20:23Z</time>
      </trkpt>
      <trkpt lat="44.68136" lon="6.96319">
        <ele>2804.78</ele>
        <time>2018-08-20T09:20:37Z</time>
      </trkpt>
      <trkpt lat="44.68141" lon="6.96324">
        <ele>2801.9</ele>
        <time>2018-08-20T09:20:51Z</time>
      </trkpt>
      <trkpt lat="44.6814" lon="6.96331">
        <ele>2799.5</ele>
        <time>2018-08-20T09:21:04Z</time>
      </trkpt>
      <trkpt lat="44.68136" lon="6.96333">
        <ele>2799.5</ele>
        <time>2018-08-20T09:21:14Z</time>
      </trkpt>
      <trkpt lat="44.68136" lon="6.96338">
        <ele>2799.02</ele>
        <time>2018-08-20T09:21:17Z</time>
      </trkpt>
      <trkpt lat="44.68136" lon="6.96344">
        <ele>2798.05</ele>
        <time>2018-08-20T09:21:32Z</time>
      </trkpt>
      <trkpt lat="44.68136" lon="6.96347">
        <ele>2796.61</ele>
        <time>2018-08-20T09:21:34Z</time>
      </trkpt>
      <trkpt lat="44.68134" lon="6.96356">
        <ele>2795.65</ele>
        <time>2018-08-20T09:21:40Z</time>
      </trkpt>
      <trkpt lat="44.68132" lon="6.96356">
        <ele>2795.17</ele>
        <time>2018-08-20T09:21:53Z</time>
      </trkpt>
      <trkpt lat="44.68132" lon="6.96356">
        <ele>2795.17</ele>
        <time>2018-08-20T09:21:54Z</time>
      </trkpt>
      <trkpt lat="44.68127" lon="6.96367">
        <ele>2792.29</ele>
        <time>2018-08-20T09:22:04Z</time>
      </trkpt>
      <trkpt lat="44.68122" lon="6.96376">
        <ele>2789.4</ele>
        <time>2018-08-20T09:22:13Z</time>
      </trkpt>
      <trkpt lat="44.68121" lon="6.96399">
        <ele>2787.48</ele>
        <time>2018-08-20T09:22:29Z</time>
      </trkpt>
      <trkpt lat="44.68118" lon="6.96417">
        <ele>2785.56</ele>
        <time>2018-08-20T09:22:44Z</time>
      </trkpt>
      <trkpt lat="44.68115" lon="6.96424">
        <ele>2785.08</ele>
        <time>2018-08-20T09:22:50Z</time>
      </trkpt>
      <trkpt lat="44.68108" lon="6.9644">
        <ele>2783.15</ele>
        <time>2018-08-20T09:23:03Z</time>
      </trkpt>
      <trkpt lat="44.68107" lon="6.96444">
        <ele>2782.19</ele>
        <time>2018-08-20T09:23:06Z</time>
      </trkpt>
      <trkpt lat="44.68097" lon="6.96456">
        <ele>2779.31</ele>
        <time>2018-08-20T09:23:20Z</time>
      </trkpt>
      <trkpt lat="44.68095" lon="6.96461">
        <ele>2778.83</ele>
        <time>2018-08-20T09:23:24Z</time>
      </trkpt>
      <trkpt lat="44.68094" lon="6.96474">
        <ele>2777.39</ele>
        <time>2018-08-20T09:23:38Z</time>
      </trkpt>
      <trkpt lat="44.68099" lon="6.96483">
        <ele>2774.02</ele>
        <time>2018-08-20T09:23:52Z</time>
      </trkpt>
      <trkpt lat="44.68102" lon="6.96486">
        <ele>2772.58</ele>
        <time>2018-08-20T09:23:59Z</time>
      </trkpt>
      <trkpt lat="44.68101" lon="6.96507">
        <ele>2770.66</ele>
        <time>2018-08-20T09:24:15Z</time>
      </trkpt>
      <trkpt lat="44.68104" lon="6.96516">
        <ele>2769.21</ele>
        <time>2018-08-20T09:24:28Z</time>
      </trkpt>
      <trkpt lat="44.68102" lon="6.9653">
        <ele>2766.81</ele>
        <time>2018-08-20T09:24:38Z</time>
      </trkpt>
      <trkpt lat="44.68102" lon="6.96546">
        <ele>2764.89</ele>
        <time>2018-08-20T09:24:51Z</time>
      </trkpt>
      <trkpt lat="44.68098" lon="6.96557">
        <ele>2764.41</ele>
        <time>2018-08-20T09:25:01Z</time>
      </trkpt>
      <trkpt lat="44.68098" lon="6.96561">
        <ele>2763.93</ele>
        <time>2018-08-20T09:25:04Z</time>
      </trkpt>
      <trkpt lat="44.68095" lon="6.96577">
        <ele>2764.89</ele>
        <time>2018-08-20T09:25:18Z</time>
      </trkpt>
      <trkpt lat="44.68091" lon="6.96595">
        <ele>2764.89</ele>
        <time>2018-08-20T09:25:31Z</time>
      </trkpt>
      <trkpt lat="44.68091" lon="6.96605">
        <ele>2763.45</ele>
        <time>2018-08-20T09:25:39Z</time>
      </trkpt>
      <trkpt lat="44.68096" lon="6.96609">
        <ele>2761.52</ele>
        <time>2018-08-20T09:25:47Z</time>
      </trkpt>
      <trkpt lat="44.68102" lon="6.96622">
        <ele>2759.12</ele>
        <time>2018-08-20T09:25:59Z</time>
      </trkpt>
      <trkpt lat="44.681" lon="6.96639">
        <ele>2758.64</ele>
        <time>2018-08-20T09:26:15Z</time>
      </trkpt>
      <trkpt lat="44.68108" lon="6.96645">
        <ele>2756.24</ele>
        <time>2018-08-20T09:26:28Z</time>
      </trkpt>
      <trkpt lat="44.6811" lon="6.96656">
        <ele>2754.8</ele>
        <time>2018-08-20T09:26:37Z</time>
      </trkpt>
      <trkpt lat="44.68108" lon="6.96664">
        <ele>2753.83</ele>
        <time>2018-08-20T09:26:45Z</time>
      </trkpt>
      <trkpt lat="44.68108" lon="6.96667">
        <ele>2753.83</ele>
        <time>2018-08-20T09:26:48Z</time>
      </trkpt>
      <trkpt lat="44.68109" lon="6.96675">
        <ele>2753.83</ele>
        <time>2018-08-20T09:26:53Z</time>
      </trkpt>
      <trkpt lat="44.68109" lon="6.96692">
        <ele>2753.35</ele>
        <time>2018-08-20T09:27:09Z</time>
      </trkpt>
      <trkpt lat="44.68113" lon="6.96704">
        <ele>2750.95</ele>
        <time>2018-08-20T09:27:22Z</time>
      </trkpt>
      <trkpt lat="44.68113" lon="6.96715">
        <ele>2752.39</ele>
        <time>2018-08-20T09:27:35Z</time>
      </trkpt>
      <trkpt lat="44.68113" lon="6.9672">
        <ele>2750.95</ele>
        <time>2018-08-20T09:27:47Z</time>
      </trkpt>
      <trkpt lat="44.68116" lon="6.96737">
        <ele>2749.03</ele>
        <time>2018-08-20T09:28:01Z</time>
      </trkpt>
      <trkpt lat="44.68115" lon="6.96749">
        <ele>2748.55</ele>
        <time>2018-08-20T09:28:09Z</time>
      </trkpt>
      <trkpt lat="44.68117" lon="6.96765">
        <ele>2746.62</ele>
        <time>2018-08-20T09:28:24Z</time>
      </trkpt>
      <trkpt lat="44.68116" lon="6.96769">
        <ele>2746.62</ele>
        <time>2018-08-20T09:28:28Z</time>
      </trkpt>
      <trkpt lat="44.6812" lon="6.96783">
        <ele>2744.7</ele>
        <time>2018-08-20T09:28:42Z</time>
      </trkpt>
      <trkpt lat="44.68121" lon="6.96783">
        <ele>2744.7</ele>
        <time>2018-08-20T09:28:50Z</time>
      </trkpt>
      <trkpt lat="44.68122" lon="6.96791">
        <ele>2743.74</ele>
        <time>2018-08-20T09:28:57Z</time>
      </trkpt>
      <trkpt lat="44.68121" lon="6.96807">
        <ele>2741.82</ele>
        <time>2018-08-20T09:29:11Z</time>
      </trkpt>
      <trkpt lat="44.68124" lon="6.96819">
        <ele>2740.86</ele>
        <time>2018-08-20T09:29:22Z</time>
      </trkpt>
      <trkpt lat="44.68126" lon="6.96831">
        <ele>2739.89</ele>
        <time>2018-08-20T09:29:34Z</time>
      </trkpt>
      <trkpt lat="44.68124" lon="6.96833">
        <ele>2741.34</ele>
        <time>2018-08-20T09:29:39Z</time>
      </trkpt>
      <trkpt lat="44.68127" lon="6.96846">
        <ele>2742.3</ele>
        <time>2018-08-20T09:29:52Z</time>
      </trkpt>
      <trkpt lat="44.68128" lon="6.9685">
        <ele>2740.86</ele>
        <time>2018-08-20T09:29:55Z</time>
      </trkpt>
      <trkpt lat="44.68128" lon="6.96854">
        <ele>2740.86</ele>
        <time>2018-08-20T09:29:58Z</time>
      </trkpt>
      <trkpt lat="44.68124" lon="6.96868">
        <ele>2740.38</ele>
        <time>2018-08-20T09:30:12Z</time>
      </trkpt>
      <trkpt lat="44.68126" lon="6.96869">
        <ele>2740.38</ele>
        <time>2018-08-20T09:30:14Z</time>
      </trkpt>
      <trkpt lat="44.68127" lon="6.96879">
        <ele>2739.41</ele>
        <time>2018-08-20T09:30:22Z</time>
      </trkpt>
      <trkpt lat="44.68129" lon="6.96887">
        <ele>2737.97</ele>
        <time>2018-08-20T09:30:29Z</time>
      </trkpt>
      <trkpt lat="44.68131" lon="6.96897">
        <ele>2737.49</ele>
        <time>2018-08-20T09:30:37Z</time>
      </trkpt>
      <trkpt lat="44.68133" lon="6.96906">
        <ele>2737.49</ele>
        <time>2018-08-20T09:30:44Z</time>
      </trkpt>
      <trkpt lat="44.68135" lon="6.96909">
        <ele>2736.53</ele>
        <time>2018-08-20T09:30:48Z</time>
      </trkpt>
      <trkpt lat="44.68135" lon="6.96916">
        <ele>2736.05</ele>
        <time>2018-08-20T09:30:54Z</time>
      </trkpt>
      <trkpt lat="44.68139" lon="6.96926">
        <ele>2735.09</ele>
        <time>2018-08-20T09:31:02Z</time>
      </trkpt>
      <trkpt lat="44.6814" lon="6.96946">
        <ele>2734.61</ele>
        <time>2018-08-20T09:31:17Z</time>
      </trkpt>
      <trkpt lat="44.68138" lon="6.96954">
        <ele>2736.05</ele>
        <time>2018-08-20T09:31:26Z</time>
      </trkpt>
      <trkpt lat="44.68137" lon="6.96956">
        <ele>2736.53</ele>
        <time>2018-08-20T09:31:28Z</time>
      </trkpt>
      <trkpt lat="44.68135" lon="6.96976">
        <ele>2737.49</ele>
        <time>2018-08-20T09:31:44Z</time>
      </trkpt>
      <trkpt lat="44.68133" lon="6.96998">
        <ele>2737.01</ele>
        <time>2018-08-20T09:32:00Z</time>
      </trkpt>
      <trkpt lat="44.68133" lon="6.97004">
        <ele>2736.05</ele>
        <time>2018-08-20T09:32:04Z</time>
      </trkpt>
      <trkpt lat="44.68138" lon="6.97016">
        <ele>2735.57</ele>
        <time>2018-08-20T09:32:17Z</time>
      </trkpt>
      <trkpt lat="44.68144" lon="6.97024">
        <ele>2732.2</ele>
        <time>2018-08-20T09:32:27Z</time>
      </trkpt>
      <trkpt lat="44.68145" lon="6.97028">
        <ele>2731.24</ele>
        <time>2018-08-20T09:32:32Z</time>
      </trkpt>
      <trkpt lat="44.68147" lon="6.97031">
        <ele>2731.24</ele>
        <time>2018-08-20T09:32:34Z</time>
      </trkpt>
      <trkpt lat="44.68147" lon="6.97033">
        <ele>2730.76</ele>
        <time>2018-08-20T09:32:36Z</time>
      </trkpt>
      <trkpt lat="44.68146" lon="6.97043">
        <ele>2729.8</ele>
        <time>2018-08-20T09:32:44Z</time>
      </trkpt>
      <trkpt lat="44.68149" lon="6.97053">
        <ele>2726.44</ele>
        <time>2018-08-20T09:32:55Z</time>
      </trkpt>
      <trkpt lat="44.68156" lon="6.97056">
        <ele>2724.03</ele>
        <time>2018-08-20T09:33:04Z</time>
      </trkpt>
      <trkpt lat="44.68159" lon="6.97063">
        <ele>2722.59</ele>
        <time>2018-08-20T09:33:19Z</time>
      </trkpt>
      <trkpt lat="44.68162" lon="6.97061">
        <ele>2722.11</ele>
        <time>2018-08-20T09:33:33Z</time>
      </trkpt>
      <trkpt lat="44.68162" lon="6.97061">
        <ele>2721.63</ele>
        <time>2018-08-20T09:34:13Z</time>
      </trkpt>
      <trkpt lat="44.68163" lon="6.97064">
        <ele>2723.07</ele>
        <time>2018-08-20T09:34:32Z</time>
      </trkpt>
      <trkpt lat="44.68161" lon="6.97064">
        <ele>2723.07</ele>
        <time>2018-08-20T09:34:49Z</time>
      </trkpt>
      <trkpt lat="44.6816" lon="6.97063">
        <ele>2722.59</ele>
        <time>2018-08-20T09:35:08Z</time>
      </trkpt>
      <trkpt lat="44.68162" lon="6.97061">
        <ele>2722.59</ele>
        <time>2018-08-20T09:35:22Z</time>
      </trkpt>
      <trkpt lat="44.68162" lon="6.97061">
        <ele>2722.59</ele>
        <time>2018-08-20T09:35:47Z</time>
      </trkpt>
      <trkpt lat="44.68164" lon="6.97068">
        <ele>2722.59</ele>
        <time>2018-08-20T09:35:58Z</time>
      </trkpt>
      <trkpt lat="44.68165" lon="6.97072">
        <ele>2722.59</ele>
        <time>2018-08-20T09:36:03Z</time>
      </trkpt>
      <trkpt lat="44.68167" lon="6.97075">
        <ele>2721.15</ele>
        <time>2018-08-20T09:36:06Z</time>
      </trkpt>
      <trkpt lat="44.68168" lon="6.97077">
        <ele>2720.19</ele>
        <time>2018-08-20T09:36:08Z</time>
      </trkpt>
      <trkpt lat="44.68171" lon="6.97084">
        <ele>2718.75</ele>
        <time>2018-08-20T09:36:14Z</time>
      </trkpt>
      <trkpt lat="44.68174" lon="6.97094">
        <ele>2717.78</ele>
        <time>2018-08-20T09:36:21Z</time>
      </trkpt>
      <trkpt lat="44.68174" lon="6.97102">
        <ele>2717.3</ele>
        <time>2018-08-20T09:36:27Z</time>
      </trkpt>
      <trkpt lat="44.6818" lon="6.9712">
        <ele>2714.42</ele>
        <time>2018-08-20T09:36:42Z</time>
      </trkpt>
      <trkpt lat="44.6818" lon="6.97123">
        <ele>2713.94</ele>
        <time>2018-08-20T09:36:44Z</time>
      </trkpt>
      <trkpt lat="44.68181" lon="6.97127">
        <ele>2713.94</ele>
        <time>2018-08-20T09:36:49Z</time>
      </trkpt>
      <trkpt lat="44.68181" lon="6.97134">
        <ele>2713.94</ele>
        <time>2018-08-20T09:36:54Z</time>
      </trkpt>
      <trkpt lat="44.68181" lon="6.97148">
        <ele>2711.54</ele>
        <time>2018-08-20T09:37:06Z</time>
      </trkpt>
      <trkpt lat="44.68191" lon="6.97156">
        <ele>2711.06</ele>
        <time>2018-08-20T09:37:18Z</time>
      </trkpt>
      <trkpt lat="44.68198" lon="6.97176">
        <ele>2710.09</ele>
        <time>2018-08-20T09:37:35Z</time>
      </trkpt>
      <trkpt lat="44.68203" lon="6.97185">
        <ele>2710.09</ele>
        <time>2018-08-20T09:37:45Z</time>
      </trkpt>
      <trkpt lat="44.68216" lon="6.972">
        <ele>2707.21</ele>
        <time>2018-08-20T09:38:01Z</time>
      </trkpt>
      <trkpt lat="44.68224" lon="6.97212">
        <ele>2705.29</ele>
        <time>2018-08-20T09:38:15Z</time>
      </trkpt>
      <trkpt lat="44.68226" lon="6.97212">
        <ele>2704.81</ele>
        <time>2018-08-20T09:38:20Z</time>
      </trkpt>
      <trkpt lat="44.68238" lon="6.97225">
        <ele>2702.88</ele>
        <time>2018-08-20T09:38:34Z</time>
      </trkpt>
      <trkpt lat="44.6825" lon="6.97233">
        <ele>2700</ele>
        <time>2018-08-20T09:38:46Z</time>
      </trkpt>
      <trkpt lat="44.68255" lon="6.97237">
        <ele>2699.52</ele>
        <time>2018-08-20T09:38:54Z</time>
      </trkpt>
      <trkpt lat="44.68271" lon="6.97247">
        <ele>2696.64</ele>
        <time>2018-08-20T09:39:10Z</time>
      </trkpt>
      <trkpt lat="44.6828" lon="6.97249">
        <ele>2695.19</ele>
        <time>2018-08-20T09:39:22Z</time>
      </trkpt>
      <trkpt lat="44.68284" lon="6.97257">
        <ele>2692.31</ele>
        <time>2018-08-20T09:39:35Z</time>
      </trkpt>
      <trkpt lat="44.68286" lon="6.97259">
        <ele>2691.35</ele>
        <time>2018-08-20T09:39:39Z</time>
      </trkpt>
      <trkpt lat="44.68289" lon="6.97267">
        <ele>2690.87</ele>
        <time>2018-08-20T09:39:51Z</time>
      </trkpt>
      <trkpt lat="44.68292" lon="6.97276">
        <ele>2689.91</ele>
        <time>2018-08-20T09:39:59Z</time>
      </trkpt>
      <trkpt lat="44.68295" lon="6.97297">
        <ele>2687.02</ele>
        <time>2018-08-20T09:40:15Z</time>
      </trkpt>
      <trkpt lat="44.68296" lon="6.97298">
        <ele>2687.5</ele>
        <time>2018-08-20T09:40:17Z</time>
      </trkpt>
      <trkpt lat="44.68299" lon="6.97303">
        <ele>2687.02</ele>
        <time>2018-08-20T09:40:23Z</time>
      </trkpt>
      <trkpt lat="44.683" lon="6.9732">
        <ele>2686.06</ele>
        <time>2018-08-20T09:40:34Z</time>
      </trkpt>
      <trkpt lat="44.68301" lon="6.9733">
        <ele>2686.06</ele>
        <time>2018-08-20T09:40:41Z</time>
      </trkpt>
      <trkpt lat="44.68307" lon="6.97337">
        <ele>2686.06</ele>
        <time>2018-08-20T09:40:56Z</time>
      </trkpt>
      <trkpt lat="44.68315" lon="6.97346">
        <ele>2685.58</ele>
        <time>2018-08-20T09:41:12Z</time>
      </trkpt>
      <trkpt lat="44.68319" lon="6.97353">
        <ele>2687.02</ele>
        <time>2018-08-20T09:41:24Z</time>
      </trkpt>
      <trkpt lat="44.68321" lon="6.97356">
        <ele>2687.02</ele>
        <time>2018-08-20T09:41:29Z</time>
      </trkpt>
      <trkpt lat="44.68326" lon="6.97361">
        <ele>2687.98</ele>
        <time>2018-08-20T09:41:41Z</time>
      </trkpt>
      <trkpt lat="44.68329" lon="6.97369">
        <ele>2687.98</ele>
        <time>2018-08-20T09:41:53Z</time>
      </trkpt>
      <trkpt lat="44.68332" lon="6.97382">
        <ele>2687.98</ele>
        <time>2018-08-20T09:42:06Z</time>
      </trkpt>
      <trkpt lat="44.68336" lon="6.97388">
        <ele>2688.94</ele>
        <time>2018-08-20T09:42:17Z</time>
      </trkpt>
      <trkpt lat="44.68338" lon="6.97395">
        <ele>2689.91</ele>
        <time>2018-08-20T09:42:29Z</time>
      </trkpt>
      <trkpt lat="44.68343" lon="6.97405">
        <ele>2692.31</ele>
        <time>2018-08-20T09:42:45Z</time>
      </trkpt>
      <trkpt lat="44.68348" lon="6.97417">
        <ele>2693.75</ele>
        <time>2018-08-20T09:42:58Z</time>
      </trkpt>
      <trkpt lat="44.68355" lon="6.97427">
        <ele>2696.15</ele>
        <time>2018-08-20T09:43:13Z</time>
      </trkpt>
      <trkpt lat="44.68361" lon="6.97437">
        <ele>2697.6</ele>
        <time>2018-08-20T09:43:27Z</time>
      </trkpt>
      <trkpt lat="44.68367" lon="6.97441">
        <ele>2698.56</ele>
        <time>2018-08-20T09:43:35Z</time>
      </trkpt>
      <trkpt lat="44.68368" lon="6.97443">
        <ele>2698.08</ele>
        <time>2018-08-20T09:43:37Z</time>
      </trkpt>
      <trkpt lat="44.68375" lon="6.97456">
        <ele>2699.52</ele>
        <time>2018-08-20T09:43:52Z</time>
      </trkpt>
      <trkpt lat="44.68378" lon="6.97463">
        <ele>2700</ele>
        <time>2018-08-20T09:44:04Z</time>
      </trkpt>
      <trkpt lat="44.68379" lon="6.97463">
        <ele>2700</ele>
        <time>2018-08-20T09:44:05Z</time>
      </trkpt>
      <trkpt lat="44.68384" lon="6.97472">
        <ele>2700</ele>
        <time>2018-08-20T09:44:16Z</time>
      </trkpt>
      <trkpt lat="44.68393" lon="6.97484">
        <ele>2700</ele>
        <time>2018-08-20T09:44:31Z</time>
      </trkpt>
      <trkpt lat="44.68396" lon="6.97488">
        <ele>2697.6</ele>
        <time>2018-08-20T09:44:43Z</time>
      </trkpt>
      <trkpt lat="44.68403" lon="6.97494">
        <ele>2694.71</ele>
        <time>2018-08-20T09:44:55Z</time>
      </trkpt>
      <trkpt lat="44.68406" lon="6.97496">
        <ele>2693.75</ele>
        <time>2018-08-20T09:45:00Z</time>
      </trkpt>
      <trkpt lat="44.68413" lon="6.97509">
        <ele>2691.83</ele>
        <time>2018-08-20T09:45:15Z</time>
      </trkpt>
      <trkpt lat="44.68421" lon="6.97522">
        <ele>2691.83</ele>
        <time>2018-08-20T09:45:31Z</time>
      </trkpt>
      <trkpt lat="44.6842" lon="6.97521">
        <ele>2691.83</ele>
        <time>2018-08-20T09:45:48Z</time>
      </trkpt>
      <trkpt lat="44.6842" lon="6.97525">
        <ele>2691.83</ele>
        <time>2018-08-20T09:46:05Z</time>
      </trkpt>
      <trkpt lat="44.68421" lon="6.97522">
        <ele>2691.83</ele>
        <time>2018-08-20T09:46:16Z</time>
      </trkpt>
      <trkpt lat="44.68422" lon="6.97521">
        <ele>2690.87</ele>
        <time>2018-08-20T09:46:32Z</time>
      </trkpt>
      <trkpt lat="44.68423" lon="6.97521">
        <ele>2690.87</ele>
        <time>2018-08-20T09:46:54Z</time>
      </trkpt>
      <trkpt lat="44.68421" lon="6.97522">
        <ele>2690.87</ele>
        <time>2018-08-20T09:47:26Z</time>
      </trkpt>
      <trkpt lat="44.6842" lon="6.97525">
        <ele>2690.87</ele>
        <time>2018-08-20T09:47:52Z</time>
      </trkpt>
      <trkpt lat="44.68419" lon="6.97524">
        <ele>2690.87</ele>
        <time>2018-08-20T09:48:32Z</time>
      </trkpt>
      <trkpt lat="44.68418" lon="6.97523">
        <ele>2690.87</ele>
        <time>2018-08-20T09:49:06Z</time>
      </trkpt>
      <trkpt lat="44.68418" lon="6.97523">
        <ele>2690.87</ele>
        <time>2018-08-20T09:49:38Z</time>
      </trkpt>
      <trkpt lat="44.68419" lon="6.97523">
        <ele>2690.87</ele>
        <time>2018-08-20T09:50:01Z</time>
      </trkpt>
      <trkpt lat="44.68421" lon="6.97523">
        <ele>2690.39</ele>
        <time>2018-08-20T09:50:38Z</time>
      </trkpt>
      <trkpt lat="44.6842" lon="6.97524">
        <ele>2690.39</ele>
        <time>2018-08-20T09:51:15Z</time>
      </trkpt>
      <trkpt lat="44.6842" lon="6.97524">
        <ele>2690.39</ele>
        <time>2018-08-20T09:51:52Z</time>
      </trkpt>
      <trkpt lat="44.68421" lon="6.97522">
        <ele>2690.39</ele>
        <time>2018-08-20T09:52:31Z</time>
      </trkpt>
      <trkpt lat="44.68421" lon="6.97523">
        <ele>2690.39</ele>
        <time>2018-08-20T09:53:09Z</time>
      </trkpt>
      <trkpt lat="44.68422" lon="6.97523">
        <ele>2690.87</ele>
        <time>2018-08-20T09:53:38Z</time>
      </trkpt>
      <trkpt lat="44.68419" lon="6.97521">
        <ele>2690.87</ele>
        <time>2018-08-20T09:54:16Z</time>
      </trkpt>
      <trkpt lat="44.68421" lon="6.97523">
        <ele>2690.39</ele>
        <time>2018-08-20T09:54:49Z</time>
      </trkpt>
      <trkpt lat="44.68422" lon="6.97521">
        <ele>2690.39</ele>
        <time>2018-08-20T09:55:25Z</time>
      </trkpt>
      <trkpt lat="44.68423" lon="6.97522">
        <ele>2691.83</ele>
        <time>2018-08-20T09:56:03Z</time>
      </trkpt>
      <trkpt lat="44.68422" lon="6.97521">
        <ele>2690.39</ele>
        <time>2018-08-20T09:56:06Z</time>
      </trkpt>
      <trkpt lat="44.6842" lon="6.9752">
        <ele>2690.39</ele>
        <time>2018-08-20T09:56:45Z</time>
      </trkpt>
      <trkpt lat="44.68422" lon="6.97522">
        <ele>2690.39</ele>
        <time>2018-08-20T09:57:20Z</time>
      </trkpt>
      <trkpt lat="44.68421" lon="6.97521">
        <ele>2690.39</ele>
        <time>2018-08-20T09:57:53Z</time>
      </trkpt>
      <trkpt lat="44.6842" lon="6.97522">
        <ele>2690.39</ele>
        <time>2018-08-20T09:58:22Z</time>
      </trkpt>
      <trkpt lat="44.68418" lon="6.97522">
        <ele>2690.39</ele>
        <time>2018-08-20T09:58:55Z</time>
      </trkpt>
      <trkpt lat="44.68418" lon="6.9752">
        <ele>2689.91</ele>
        <time>2018-08-20T09:59:24Z</time>
      </trkpt>
      <trkpt lat="44.6842" lon="6.97524">
        <ele>2689.91</ele>
        <time>2018-08-20T09:59:57Z</time>
      </trkpt>
      <trkpt lat="44.68419" lon="6.97521">
        <ele>2689.91</ele>
        <time>2018-08-20T10:00:35Z</time>
      </trkpt>
      <trkpt lat="44.68418" lon="6.97522">
        <ele>2689.91</ele>
        <time>2018-08-20T10:01:09Z</time>
      </trkpt>
      <trkpt lat="44.68417" lon="6.97522">
        <ele>2690.39</ele>
        <time>2018-08-20T10:01:39Z</time>
      </trkpt>
      <trkpt lat="44.68419" lon="6.97522">
        <ele>2690.87</ele>
        <time>2018-08-20T10:02:08Z</time>
      </trkpt>
      <trkpt lat="44.68418" lon="6.97522">
        <ele>2689.91</ele>
        <time>2018-08-20T10:02:47Z</time>
      </trkpt>
      <trkpt lat="44.68418" lon="6.97523">
        <ele>2689.91</ele>
        <time>2018-08-20T10:03:26Z</time>
      </trkpt>
      <trkpt lat="44.68421" lon="6.97523">
        <ele>2689.43</ele>
        <time>2018-08-20T10:04:05Z</time>
      </trkpt>
      <trkpt lat="44.68424" lon="6.97524">
        <ele>2689.43</ele>
        <time>2018-08-20T10:04:32Z</time>
      </trkpt>
      <trkpt lat="44.68424" lon="6.97525">
        <ele>2689.43</ele>
        <time>2018-08-20T10:05:00Z</time>
      </trkpt>
      <trkpt lat="44.68424" lon="6.97524">
        <ele>2689.43</ele>
        <time>2018-08-20T10:05:40Z</time>
      </trkpt>
      <trkpt lat="44.68424" lon="6.97522">
        <ele>2689.43</ele>
        <time>2018-08-20T10:06:22Z</time>
      </trkpt>
      <trkpt lat="44.68423" lon="6.97523">
        <ele>2688.94</ele>
        <time>2018-08-20T10:07:04Z</time>
      </trkpt>
      <trkpt lat="44.68423" lon="6.97523">
        <ele>2688.94</ele>
        <time>2018-08-20T10:07:35Z</time>
      </trkpt>
      <trkpt lat="44.68422" lon="6.97525">
        <ele>2688.94</ele>
        <time>2018-08-20T10:08:11Z</time>
      </trkpt>
      <trkpt lat="44.6842" lon="6.97526">
        <ele>2688.94</ele>
        <time>2018-08-20T10:08:46Z</time>
      </trkpt>
      <trkpt lat="44.6842" lon="6.97525">
        <ele>2688.46</ele>
        <time>2018-08-20T10:09:22Z</time>
      </trkpt>
      <trkpt lat="44.6842" lon="6.97524">
        <ele>2688.46</ele>
        <time>2018-08-20T10:09:58Z</time>
      </trkpt>
      <trkpt lat="44.68419" lon="6.97526">
        <ele>2687.98</ele>
        <time>2018-08-20T10:10:49Z</time>
      </trkpt>
      <trkpt lat="44.6842" lon="6.97524">
        <ele>2687.5</ele>
        <time>2018-08-20T10:11:29Z</time>
      </trkpt>
      <trkpt lat="44.68419" lon="6.97525">
        <ele>2687.5</ele>
        <time>2018-08-20T10:12:04Z</time>
      </trkpt>
      <trkpt lat="44.68419" lon="6.97525">
        <ele>2687.5</ele>
        <time>2018-08-20T10:12:36Z</time>
      </trkpt>
      <trkpt lat="44.68419" lon="6.97525">
        <ele>2687.02</ele>
        <time>2018-08-20T10:13:05Z</time>
      </trkpt>
      <trkpt lat="44.68419" lon="6.97525">
        <ele>2688.46</ele>
        <time>2018-08-20T10:13:37Z</time>
      </trkpt>
      <trkpt lat="44.68419" lon="6.97525">
        <ele>2687.98</ele>
        <time>2018-08-20T10:14:18Z</time>
      </trkpt>
      <trkpt lat="44.68421" lon="6.97525">
        <ele>2687.98</ele>
        <time>2018-08-20T10:14:48Z</time>
      </trkpt>
      <trkpt lat="44.6842" lon="6.97526">
        <ele>2687.98</ele>
        <time>2018-08-20T10:15:26Z</time>
      </trkpt>
      <trkpt lat="44.68421" lon="6.97525">
        <ele>2688.46</ele>
        <time>2018-08-20T10:15:50Z</time>
      </trkpt>
      <trkpt lat="44.68421" lon="6.97525">
        <ele>2687.98</ele>
        <time>2018-08-20T10:16:06Z</time>
      </trkpt>
      <trkpt lat="44.68421" lon="6.97526">
        <ele>2687.98</ele>
        <time>2018-08-20T10:16:27Z</time>
      </trkpt>
      <trkpt lat="44.68425" lon="6.97533">
        <ele>2688.46</ele>
        <time>2018-08-20T10:16:41Z</time>
      </trkpt>
      <trkpt lat="44.68426" lon="6.97533">
        <ele>2687.5</ele>
        <time>2018-08-20T10:16:42Z</time>
      </trkpt>
      <trkpt lat="44.6843" lon="6.97549">
        <ele>2688.46</ele>
        <time>2018-08-20T10:16:57Z</time>
      </trkpt>
      <trkpt lat="44.68431" lon="6.97563">
        <ele>2690.39</ele>
        <time>2018-08-20T10:17:12Z</time>
      </trkpt>
      <trkpt lat="44.68432" lon="6.97564">
        <ele>2690.39</ele>
        <time>2018-08-20T10:17:13Z</time>
      </trkpt>
      <trkpt lat="44.68439" lon="6.97577">
        <ele>2691.35</ele>
        <time>2018-08-20T10:17:27Z</time>
      </trkpt>
      <trkpt lat="44.68442" lon="6.97586">
        <ele>2692.79</ele>
        <time>2018-08-20T10:17:40Z</time>
      </trkpt>
      <trkpt lat="44.68446" lon="6.97598">
        <ele>2694.71</ele>
        <time>2018-08-20T10:17:54Z</time>
      </trkpt>
      <trkpt lat="44.68446" lon="6.97604">
        <ele>2695.67</ele>
        <time>2018-08-20T10:18:02Z</time>
      </trkpt>
      <trkpt lat="44.68447" lon="6.97606">
        <ele>2695.67</ele>
        <time>2018-08-20T10:18:04Z</time>
      </trkpt>
      <trkpt lat="44.68449" lon="6.97619">
        <ele>2697.6</ele>
        <time>2018-08-20T10:18:18Z</time>
      </trkpt>
      <trkpt lat="44.68452" lon="6.97632">
        <ele>2698.08</ele>
        <time>2018-08-20T10:18:31Z</time>
      </trkpt>
      <trkpt lat="44.68454" lon="6.97642">
        <ele>2699.52</ele>
        <time>2018-08-20T10:18:45Z</time>
      </trkpt>
      <trkpt lat="44.68458" lon="6.97653">
        <ele>2700.96</ele>
        <time>2018-08-20T10:18:57Z</time>
      </trkpt>
      <trkpt lat="44.68462" lon="6.97664">
        <ele>2701.92</ele>
        <time>2018-08-20T10:19:10Z</time>
      </trkpt>
      <trkpt lat="44.68464" lon="6.97672">
        <ele>2703.85</ele>
        <time>2018-08-20T10:19:21Z</time>
      </trkpt>
      <trkpt lat="44.68465" lon="6.97682">
        <ele>2704.81</ele>
        <time>2018-08-20T10:19:32Z</time>
      </trkpt>
      <trkpt lat="44.6847" lon="6.97695">
        <ele>2706.25</ele>
        <time>2018-08-20T10:19:46Z</time>
      </trkpt>
      <trkpt lat="44.68476" lon="6.97709">
        <ele>2707.21</ele>
        <time>2018-08-20T10:20:00Z</time>
      </trkpt>
      <trkpt lat="44.68478" lon="6.97718">
        <ele>2708.65</ele>
        <time>2018-08-20T10:20:13Z</time>
      </trkpt>
      <trkpt lat="44.68479" lon="6.97728">
        <ele>2710.09</ele>
        <time>2018-08-20T10:20:27Z</time>
      </trkpt>
      <trkpt lat="44.68479" lon="6.97734">
        <ele>2710.57</ele>
        <time>2018-08-20T10:20:41Z</time>
      </trkpt>
      <trkpt lat="44.6848" lon="6.97737">
        <ele>2710.57</ele>
        <time>2018-08-20T10:20:55Z</time>
      </trkpt>
      <trkpt lat="44.6848" lon="6.97753">
        <ele>2709.13</ele>
        <time>2018-08-20T10:21:08Z</time>
      </trkpt>
      <trkpt lat="44.68482" lon="6.97766">
        <ele>2707.21</ele>
        <time>2018-08-20T10:21:24Z</time>
      </trkpt>
      <trkpt lat="44.68482" lon="6.9778">
        <ele>2707.21</ele>
        <time>2018-08-20T10:21:38Z</time>
      </trkpt>
      <trkpt lat="44.68483" lon="6.97784">
        <ele>2707.21</ele>
        <time>2018-08-20T10:21:43Z</time>
      </trkpt>
      <trkpt lat="44.68485" lon="6.9779">
        <ele>2706.25</ele>
        <time>2018-08-20T10:21:48Z</time>
      </trkpt>
      <trkpt lat="44.68486" lon="6.97797">
        <ele>2705.77</ele>
        <time>2018-08-20T10:21:53Z</time>
      </trkpt>
      <trkpt lat="44.68486" lon="6.978">
        <ele>2705.29</ele>
        <time>2018-08-20T10:21:55Z</time>
      </trkpt>
      <trkpt lat="44.68487" lon="6.97809">
        <ele>2705.29</ele>
        <time>2018-08-20T10:22:01Z</time>
      </trkpt>
      <trkpt lat="44.68483" lon="6.97826">
        <ele>2705.29</ele>
        <time>2018-08-20T10:22:14Z</time>
      </trkpt>
      <trkpt lat="44.6848" lon="6.97842">
        <ele>2708.65</ele>
        <time>2018-08-20T10:22:26Z</time>
      </trkpt>
      <trkpt lat="44.68479" lon="6.97844">
        <ele>2708.65</ele>
        <time>2018-08-20T10:22:27Z</time>
      </trkpt>
      <trkpt lat="44.68478" lon="6.97849">
        <ele>2708.65</ele>
        <time>2018-08-20T10:22:31Z</time>
      </trkpt>
      <trkpt lat="44.68474" lon="6.97867">
        <ele>2709.61</ele>
        <time>2018-08-20T10:22:45Z</time>
      </trkpt>
      <trkpt lat="44.68472" lon="6.97892">
        <ele>2712.02</ele>
        <time>2018-08-20T10:23:02Z</time>
      </trkpt>
      <trkpt lat="44.68471" lon="6.979">
        <ele>2712.98</ele>
        <time>2018-08-20T10:23:08Z</time>
      </trkpt>
      <trkpt lat="44.68465" lon="6.97912">
        <ele>2714.42</ele>
        <time>2018-08-20T10:23:20Z</time>
      </trkpt>
      <trkpt lat="44.68463" lon="6.9793">
        <ele>2716.34</ele>
        <time>2018-08-20T10:23:35Z</time>
      </trkpt>
      <trkpt lat="44.68463" lon="6.97931">
        <ele>2716.34</ele>
        <time>2018-08-20T10:23:36Z</time>
      </trkpt>
      <trkpt lat="44.68463" lon="6.97938">
        <ele>2716.82</ele>
        <time>2018-08-20T10:23:41Z</time>
      </trkpt>
      <trkpt lat="44.68458" lon="6.97937">
        <ele>2718.27</ele>
        <time>2018-08-20T10:23:47Z</time>
      </trkpt>
      <trkpt lat="44.68446" lon="6.97925">
        <ele>2720.19</ele>
        <time>2018-08-20T10:24:01Z</time>
      </trkpt>
      <trkpt lat="44.68434" lon="6.97915">
        <ele>2722.59</ele>
        <time>2018-08-20T10:24:17Z</time>
      </trkpt>
      <trkpt lat="44.68427" lon="6.97908">
        <ele>2724.51</ele>
        <time>2018-08-20T10:24:27Z</time>
      </trkpt>
      <trkpt lat="44.6842" lon="6.97894">
        <ele>2727.4</ele>
        <time>2018-08-20T10:24:41Z</time>
      </trkpt>
      <trkpt lat="44.68413" lon="6.97886">
        <ele>2728.84</ele>
        <time>2018-08-20T10:24:55Z</time>
      </trkpt>
      <trkpt lat="44.68407" lon="6.97878">
        <ele>2731.72</ele>
        <time>2018-08-20T10:25:10Z</time>
      </trkpt>
      <trkpt lat="44.68406" lon="6.97893">
        <ele>2734.61</ele>
        <time>2018-08-20T10:25:23Z</time>
      </trkpt>
      <trkpt lat="44.68406" lon="6.97903">
        <ele>2735.57</ele>
        <time>2018-08-20T10:25:33Z</time>
      </trkpt>
      <trkpt lat="44.68403" lon="6.97913">
        <ele>2736.05</ele>
        <time>2018-08-20T10:25:47Z</time>
      </trkpt>
      <trkpt lat="44.68395" lon="6.97905">
        <ele>2738.45</ele>
        <time>2018-08-20T10:26:00Z</time>
      </trkpt>
      <trkpt lat="44.68392" lon="6.97911">
        <ele>2740.86</ele>
        <time>2018-08-20T10:26:13Z</time>
      </trkpt>
      <trkpt lat="44.6839" lon="6.97926">
        <ele>2743.26</ele>
        <time>2018-08-20T10:26:29Z</time>
      </trkpt>
      <trkpt lat="44.68385" lon="6.97933">
        <ele>2746.62</ele>
        <time>2018-08-20T10:26:43Z</time>
      </trkpt>
      <trkpt lat="44.68383" lon="6.9794">
        <ele>2746.62</ele>
        <time>2018-08-20T10:26:56Z</time>
      </trkpt>
      <trkpt lat="44.68381" lon="6.9794">
        <ele>2746.62</ele>
        <time>2018-08-20T10:27:12Z</time>
      </trkpt>
      <trkpt lat="44.68379" lon="6.97938">
        <ele>2746.62</ele>
        <time>2018-08-20T10:27:24Z</time>
      </trkpt>
      <trkpt lat="44.68376" lon="6.97939">
        <ele>2746.62</ele>
        <time>2018-08-20T10:27:36Z</time>
      </trkpt>
      <trkpt lat="44.68377" lon="6.97941">
        <ele>2746.62</ele>
        <time>2018-08-20T10:27:52Z</time>
      </trkpt>
      <trkpt lat="44.68381" lon="6.97948">
        <ele>2746.62</ele>
        <time>2018-08-20T10:28:05Z</time>
      </trkpt>
      <trkpt lat="44.68384" lon="6.97945">
        <ele>2746.62</ele>
        <time>2018-08-20T10:28:20Z</time>
      </trkpt>
      <trkpt lat="44.68382" lon="6.97941">
        <ele>2745.66</ele>
        <time>2018-08-20T10:28:40Z</time>
      </trkpt>
      <trkpt lat="44.68384" lon="6.97943">
        <ele>2745.66</ele>
        <time>2018-08-20T10:28:53Z</time>
      </trkpt>
      <trkpt lat="44.68382" lon="6.97936">
        <ele>2745.66</ele>
        <time>2018-08-20T10:29:05Z</time>
      </trkpt>
      <trkpt lat="44.68385" lon="6.97937">
        <ele>2747.1</ele>
        <time>2018-08-20T10:29:29Z</time>
      </trkpt>
      <trkpt lat="44.68383" lon="6.97933">
        <ele>2745.66</ele>
        <time>2018-08-20T10:29:37Z</time>
      </trkpt>
      <trkpt lat="44.68382" lon="6.97933">
        <ele>2745.66</ele>
        <time>2018-08-20T10:29:38Z</time>
      </trkpt>
      <trkpt lat="44.68376" lon="6.97926">
        <ele>2747.1</ele>
        <time>2018-08-20T10:29:46Z</time>
      </trkpt>
      <trkpt lat="44.68375" lon="6.97925">
        <ele>2747.1</ele>
        <time>2018-08-20T10:29:52Z</time>
      </trkpt>
      <trkpt lat="44.68373" lon="6.97913">
        <ele>2749.51</ele>
        <time>2018-08-20T10:30:05Z</time>
      </trkpt>
      <trkpt lat="44.68377" lon="6.97906">
        <ele>2751.43</ele>
        <time>2018-08-20T10:30:17Z</time>
      </trkpt>
      <trkpt lat="44.6838" lon="6.97907">
        <ele>2751.91</ele>
        <time>2018-08-20T10:30:28Z</time>
      </trkpt>
      <trkpt lat="44.68381" lon="6.97908">
        <ele>2751.91</ele>
        <time>2018-08-20T10:30:47Z</time>
      </trkpt>
      <trkpt lat="44.68381" lon="6.97907">
        <ele>2751.91</ele>
        <time>2018-08-20T10:31:09Z</time>
      </trkpt>
      <trkpt lat="44.68381" lon="6.97909">
        <ele>2751.91</ele>
        <time>2018-08-20T10:31:28Z</time>
      </trkpt>
      <trkpt lat="44.68381" lon="6.97907">
        <ele>2751.91</ele>
        <time>2018-08-20T10:31:50Z</time>
      </trkpt>
      <trkpt lat="44.68382" lon="6.97906">
        <ele>2751.91</ele>
        <time>2018-08-20T10:32:05Z</time>
      </trkpt>
      <trkpt lat="44.68381" lon="6.97907">
        <ele>2752.39</ele>
        <time>2018-08-20T10:32:27Z</time>
      </trkpt>
      <trkpt lat="44.68379" lon="6.97917">
        <ele>2751.43</ele>
        <time>2018-08-20T10:32:42Z</time>
      </trkpt>
      <trkpt lat="44.68376" lon="6.97918">
        <ele>2749.51</ele>
        <time>2018-08-20T10:32:48Z</time>
      </trkpt>
      <trkpt lat="44.68374" lon="6.9792">
        <ele>2748.55</ele>
        <time>2018-08-20T10:32:50Z</time>
      </trkpt>
      <trkpt lat="44.68374" lon="6.97925">
        <ele>2747.1</ele>
        <time>2018-08-20T10:32:54Z</time>
      </trkpt>
      <trkpt lat="44.68377" lon="6.9793">
        <ele>2746.62</ele>
        <time>2018-08-20T10:32:58Z</time>
      </trkpt>
      <trkpt lat="44.68385" lon="6.97945">
        <ele>2746.14</ele>
        <time>2018-08-20T10:33:14Z</time>
      </trkpt>
      <trkpt lat="44.68389" lon="6.97951">
        <ele>2745.66</ele>
        <time>2018-08-20T10:33:26Z</time>
      </trkpt>
      <trkpt lat="44.68391" lon="6.97954">
        <ele>2745.66</ele>
        <time>2018-08-20T10:33:29Z</time>
      </trkpt>
      <trkpt lat="44.68393" lon="6.97962">
        <ele>2743.74</ele>
        <time>2018-08-20T10:33:44Z</time>
      </trkpt>
      <trkpt lat="44.68396" lon="6.97963">
        <ele>2743.74</ele>
        <time>2018-08-20T10:34:01Z</time>
      </trkpt>
      <trkpt lat="44.68404" lon="6.97974">
        <ele>2743.74</ele>
        <time>2018-08-20T10:34:18Z</time>
      </trkpt>
      <trkpt lat="44.68407" lon="6.97981">
        <ele>2743.26</ele>
        <time>2018-08-20T10:34:24Z</time>
      </trkpt>
      <trkpt lat="44.68416" lon="6.97998">
        <ele>2742.3</ele>
        <time>2018-08-20T10:34:41Z</time>
      </trkpt>
      <trkpt lat="44.68423" lon="6.98019">
        <ele>2740.86</ele>
        <time>2018-08-20T10:34:59Z</time>
      </trkpt>
      <trkpt lat="44.68425" lon="6.98027">
        <ele>2743.74</ele>
        <time>2018-08-20T10:35:09Z</time>
      </trkpt>
      <trkpt lat="44.68429" lon="6.98037">
        <ele>2745.18</ele>
        <time>2018-08-20T10:35:20Z</time>
      </trkpt>
      <trkpt lat="44.68433" lon="6.98038">
        <ele>2745.18</ele>
        <time>2018-08-20T10:35:24Z</time>
      </trkpt>
      <trkpt lat="44.68437" lon="6.98041">
        <ele>2744.22</ele>
        <time>2018-08-20T10:35:29Z</time>
      </trkpt>
      <trkpt lat="44.68438" lon="6.98048">
        <ele>2746.62</ele>
        <time>2018-08-20T10:35:42Z</time>
      </trkpt>
      <trkpt lat="44.68446" lon="6.98057">
        <ele>2747.1</ele>
        <time>2018-08-20T10:35:53Z</time>
      </trkpt>
      <trkpt lat="44.68453" lon="6.9807">
        <ele>2747.59</ele>
        <time>2018-08-20T10:36:06Z</time>
      </trkpt>
      <trkpt lat="44.68461" lon="6.98083">
        <ele>2748.07</ele>
        <time>2018-08-20T10:36:20Z</time>
      </trkpt>
      <trkpt lat="44.68466" lon="6.9809">
        <ele>2749.51</ele>
        <time>2018-08-20T10:36:27Z</time>
      </trkpt>
      <trkpt lat="44.68477" lon="6.981">
        <ele>2749.99</ele>
        <time>2018-08-20T10:36:41Z</time>
      </trkpt>
      <trkpt lat="44.6848" lon="6.98103">
        <ele>2750.47</ele>
        <time>2018-08-20T10:36:45Z</time>
      </trkpt>
      <trkpt lat="44.68492" lon="6.98117">
        <ele>2751.91</ele>
        <time>2018-08-20T10:37:02Z</time>
      </trkpt>
      <trkpt lat="44.68497" lon="6.98128">
        <ele>2753.35</ele>
        <time>2018-08-20T10:37:13Z</time>
      </trkpt>
      <trkpt lat="44.685" lon="6.98141">
        <ele>2755.76</ele>
        <time>2018-08-20T10:37:27Z</time>
      </trkpt>
      <trkpt lat="44.685" lon="6.9814">
        <ele>2755.76</ele>
        <time>2018-08-20T10:37:39Z</time>
      </trkpt>
      <trkpt lat="44.68496" lon="6.98141">
        <ele>2755.76</ele>
        <time>2018-08-20T10:38:11Z</time>
      </trkpt>
      <trkpt lat="44.68502" lon="6.9815">
        <ele>2755.76</ele>
        <time>2018-08-20T10:38:31Z</time>
      </trkpt>
      <trkpt lat="44.68511" lon="6.98163">
        <ele>2757.2</ele>
        <time>2018-08-20T10:38:44Z</time>
      </trkpt>
      <trkpt lat="44.68519" lon="6.9817">
        <ele>2759.12</ele>
        <time>2018-08-20T10:38:55Z</time>
      </trkpt>
      <trkpt lat="44.68522" lon="6.98176">
        <ele>2760.56</ele>
        <time>2018-08-20T10:39:03Z</time>
      </trkpt>
      <trkpt lat="44.68525" lon="6.98182">
        <ele>2762</ele>
        <time>2018-08-20T10:39:11Z</time>
      </trkpt>
      <trkpt lat="44.68528" lon="6.98187">
        <ele>2762.97</ele>
        <time>2018-08-20T10:39:16Z</time>
      </trkpt>
      <trkpt lat="44.6853" lon="6.98189">
        <ele>2762.97</ele>
        <time>2018-08-20T10:39:18Z</time>
      </trkpt>
      <trkpt lat="44.68534" lon="6.98202">
        <ele>2765.37</ele>
        <time>2018-08-20T10:39:31Z</time>
      </trkpt>
      <trkpt lat="44.68539" lon="6.98215">
        <ele>2767.29</ele>
        <time>2018-08-20T10:39:44Z</time>
      </trkpt>
      <trkpt lat="44.6854" lon="6.98218">
        <ele>2767.77</ele>
        <time>2018-08-20T10:39:47Z</time>
      </trkpt>
      <trkpt lat="44.68542" lon="6.98224">
        <ele>2768.25</ele>
        <time>2018-08-20T10:39:53Z</time>
      </trkpt>
      <trkpt lat="44.68551" lon="6.98243">
        <ele>2768.73</ele>
        <time>2018-08-20T10:40:09Z</time>
      </trkpt>
      <trkpt lat="44.68558" lon="6.98257">
        <ele>2769.21</ele>
        <time>2018-08-20T10:40:21Z</time>
      </trkpt>
      <trkpt lat="44.68566" lon="6.98272">
        <ele>2770.66</ele>
        <time>2018-08-20T10:40:35Z</time>
      </trkpt>
      <trkpt lat="44.68566" lon="6.98273">
        <ele>2771.14</ele>
        <time>2018-08-20T10:40:36Z</time>
      </trkpt>
      <trkpt lat="44.68569" lon="6.98284">
        <ele>2771.62</ele>
        <time>2018-08-20T10:40:46Z</time>
      </trkpt>
      <trkpt lat="44.68574" lon="6.98296">
        <ele>2772.58</ele>
        <time>2018-08-20T10:40:57Z</time>
      </trkpt>
      <trkpt lat="44.68577" lon="6.98307">
        <ele>2774.02</ele>
        <time>2018-08-20T10:41:06Z</time>
      </trkpt>
      <trkpt lat="44.68589" lon="6.98325">
        <ele>2774.5</ele>
        <time>2018-08-20T10:41:23Z</time>
      </trkpt>
      <trkpt lat="44.68591" lon="6.98328">
        <ele>2774.5</ele>
        <time>2018-08-20T10:41:26Z</time>
      </trkpt>
      <trkpt lat="44.68599" lon="6.9834">
        <ele>2775.94</ele>
        <time>2018-08-20T10:41:39Z</time>
      </trkpt>
      <trkpt lat="44.68606" lon="6.98352">
        <ele>2776.42</ele>
        <time>2018-08-20T10:41:52Z</time>
      </trkpt>
      <trkpt lat="44.68613" lon="6.98362">
        <ele>2777.39</ele>
        <time>2018-08-20T10:42:02Z</time>
      </trkpt>
      <trkpt lat="44.68621" lon="6.98376">
        <ele>2778.83</ele>
        <time>2018-08-20T10:42:15Z</time>
      </trkpt>
      <trkpt lat="44.68628" lon="6.98389">
        <ele>2779.79</ele>
        <time>2018-08-20T10:42:28Z</time>
      </trkpt>
      <trkpt lat="44.68632" lon="6.98403">
        <ele>2780.75</ele>
        <time>2018-08-20T10:42:40Z</time>
      </trkpt>
      <trkpt lat="44.68636" lon="6.98419">
        <ele>2781.23</ele>
        <time>2018-08-20T10:42:53Z</time>
      </trkpt>
      <trkpt lat="44.68638" lon="6.98425">
        <ele>2782.19</ele>
        <time>2018-08-20T10:42:58Z</time>
      </trkpt>
      <trkpt lat="44.68637" lon="6.98427">
        <ele>2782.67</ele>
        <time>2018-08-20T10:43:14Z</time>
      </trkpt>
      <trkpt lat="44.68637" lon="6.98425">
        <ele>2781.71</ele>
        <time>2018-08-20T10:43:25Z</time>
      </trkpt>
      <trkpt lat="44.68634" lon="6.98424">
        <ele>2781.71</ele>
        <time>2018-08-20T10:43:57Z</time>
      </trkpt>
      <trkpt lat="44.68635" lon="6.98424">
        <ele>2781.71</ele>
        <time>2018-08-20T10:44:22Z</time>
      </trkpt>
      <trkpt lat="44.68636" lon="6.98423">
        <ele>2781.71</ele>
        <time>2018-08-20T10:44:37Z</time>
      </trkpt>
      <trkpt lat="44.68638" lon="6.98427">
        <ele>2783.15</ele>
        <time>2018-08-20T10:44:46Z</time>
      </trkpt>
      <trkpt lat="44.68636" lon="6.98427">
        <ele>2783.15</ele>
        <time>2018-08-20T10:45:06Z</time>
      </trkpt>
      <trkpt lat="44.68635" lon="6.98426">
        <ele>2783.15</ele>
        <time>2018-08-20T10:45:29Z</time>
      </trkpt>
      <trkpt lat="44.68636" lon="6.98428">
        <ele>2783.15</ele>
        <time>2018-08-20T10:45:43Z</time>
      </trkpt>
      <trkpt lat="44.68638" lon="6.98429">
        <ele>2783.15</ele>
        <time>2018-08-20T10:46:05Z</time>
      </trkpt>
      <trkpt lat="44.68646" lon="6.98432">
        <ele>2783.63</ele>
        <time>2018-08-20T10:46:17Z</time>
      </trkpt>
      <trkpt lat="44.68653" lon="6.98436">
        <ele>2784.6</ele>
        <time>2018-08-20T10:46:27Z</time>
      </trkpt>
      <trkpt lat="44.68666" lon="6.98448">
        <ele>2786.04</ele>
        <time>2018-08-20T10:46:42Z</time>
      </trkpt>
      <trkpt lat="44.68676" lon="6.98455">
        <ele>2788.44</ele>
        <time>2018-08-20T10:46:58Z</time>
      </trkpt>
      <trkpt lat="44.68684" lon="6.98457">
        <ele>2790.36</ele>
        <time>2018-08-20T10:47:10Z</time>
      </trkpt>
      <trkpt lat="44.68692" lon="6.98461">
        <ele>2792.77</ele>
        <time>2018-08-20T10:47:24Z</time>
      </trkpt>
      <trkpt lat="44.687" lon="6.98466">
        <ele>2795.17</ele>
        <time>2018-08-20T10:47:38Z</time>
      </trkpt>
      <trkpt lat="44.68706" lon="6.98473">
        <ele>2797.09</ele>
        <time>2018-08-20T10:47:49Z</time>
      </trkpt>
      <trkpt lat="44.68712" lon="6.98478">
        <ele>2798.54</ele>
        <time>2018-08-20T10:48:00Z</time>
      </trkpt>
      <trkpt lat="44.6872" lon="6.98482">
        <ele>2800.46</ele>
        <time>2018-08-20T10:48:13Z</time>
      </trkpt>
      <trkpt lat="44.68727" lon="6.9849">
        <ele>2802.86</ele>
        <time>2018-08-20T10:48:25Z</time>
      </trkpt>
      <trkpt lat="44.68728" lon="6.98492">
        <ele>2802.86</ele>
        <time>2018-08-20T10:48:27Z</time>
      </trkpt>
      <trkpt lat="44.68738" lon="6.98505">
        <ele>2804.3</ele>
        <time>2018-08-20T10:48:40Z</time>
      </trkpt>
      <trkpt lat="44.6875" lon="6.98524">
        <ele>2805.75</ele>
        <time>2018-08-20T10:48:58Z</time>
      </trkpt>
      <trkpt lat="44.68756" lon="6.98533">
        <ele>2806.71</ele>
        <time>2018-08-20T10:49:07Z</time>
      </trkpt>
      <trkpt lat="44.68758" lon="6.98535">
        <ele>2808.63</ele>
        <time>2018-08-20T10:49:12Z</time>
      </trkpt>
      <trkpt lat="44.6876" lon="6.98538">
        <ele>2809.11</ele>
        <time>2018-08-20T10:49:17Z</time>
      </trkpt>
      <trkpt lat="44.6877" lon="6.98549">
        <ele>2811.51</ele>
        <time>2018-08-20T10:49:31Z</time>
      </trkpt>
      <trkpt lat="44.68772" lon="6.98554">
        <ele>2811.51</ele>
        <time>2018-08-20T10:49:35Z</time>
      </trkpt>
      <trkpt lat="44.68778" lon="6.98568">
        <ele>2812.96</ele>
        <time>2018-08-20T10:49:48Z</time>
      </trkpt>
      <trkpt lat="44.68786" lon="6.9858">
        <ele>2813.44</ele>
        <time>2018-08-20T10:50:00Z</time>
      </trkpt>
      <trkpt lat="44.68789" lon="6.9859">
        <ele>2813.92</ele>
        <time>2018-08-20T10:50:09Z</time>
      </trkpt>
      <trkpt lat="44.68791" lon="6.98592">
        <ele>2813.92</ele>
        <time>2018-08-20T10:50:11Z</time>
      </trkpt>
      <trkpt lat="44.68797" lon="6.98604">
        <ele>2814.88</ele>
        <time>2018-08-20T10:50:23Z</time>
      </trkpt>
      <trkpt lat="44.68804" lon="6.98614">
        <ele>2817.76</ele>
        <time>2018-08-20T10:50:36Z</time>
      </trkpt>
      <trkpt lat="44.68809" lon="6.98619">
        <ele>2819.2</ele>
        <time>2018-08-20T10:50:47Z</time>
      </trkpt>
      <trkpt lat="44.68812" lon="6.98627">
        <ele>2821.61</ele>
        <time>2018-08-20T10:51:00Z</time>
      </trkpt>
      <trkpt lat="44.68817" lon="6.9863">
        <ele>2823.53</ele>
        <time>2018-08-20T10:51:12Z</time>
      </trkpt>
      <trkpt lat="44.68824" lon="6.98631">
        <ele>2825.93</ele>
        <time>2018-08-20T10:51:27Z</time>
      </trkpt>
      <trkpt lat="44.68827" lon="6.98635">
        <ele>2828.34</ele>
        <time>2018-08-20T10:51:39Z</time>
      </trkpt>
      <trkpt lat="44.6883" lon="6.98638">
        <ele>2829.78</ele>
        <time>2018-08-20T10:51:49Z</time>
      </trkpt>
      <trkpt lat="44.68837" lon="6.98644">
        <ele>2832.66</ele>
        <time>2018-08-20T10:52:04Z</time>
      </trkpt>
      <trkpt lat="44.68838" lon="6.98648">
        <ele>2832.66</ele>
        <time>2018-08-20T10:52:08Z</time>
      </trkpt>
      <trkpt lat="44.6884" lon="6.98655">
        <ele>2833.14</ele>
        <time>2018-08-20T10:52:14Z</time>
      </trkpt>
      <trkpt lat="44.68846" lon="6.98662">
        <ele>2833.14</ele>
        <time>2018-08-20T10:52:21Z</time>
      </trkpt>
      <trkpt lat="44.68847" lon="6.98665">
        <ele>2833.14</ele>
        <time>2018-08-20T10:52:24Z</time>
      </trkpt>
      <trkpt lat="44.68856" lon="6.9869">
        <ele>2830.26</ele>
        <time>2018-08-20T10:52:42Z</time>
      </trkpt>
      <trkpt lat="44.68859" lon="6.987">
        <ele>2830.26</ele>
        <time>2018-08-20T10:52:49Z</time>
      </trkpt>
      <trkpt lat="44.6886" lon="6.98703">
        <ele>2830.26</ele>
        <time>2018-08-20T10:52:51Z</time>
      </trkpt>
      <trkpt lat="44.6886" lon="6.98705">
        <ele>2830.26</ele>
        <time>2018-08-20T10:52:53Z</time>
      </trkpt>
      <trkpt lat="44.68865" lon="6.98725">
        <ele>2832.18</ele>
        <time>2018-08-20T10:53:09Z</time>
      </trkpt>
      <trkpt lat="44.68873" lon="6.98734">
        <ele>2834.1</ele>
        <time>2018-08-20T10:53:22Z</time>
      </trkpt>
      <trkpt lat="44.68882" lon="6.98746">
        <ele>2836.51</ele>
        <time>2018-08-20T10:53:38Z</time>
      </trkpt>
      <trkpt lat="44.68889" lon="6.98757">
        <ele>2838.43</ele>
        <time>2018-08-20T10:53:53Z</time>
      </trkpt>
      <trkpt lat="44.68895" lon="6.9877">
        <ele>2840.83</ele>
        <time>2018-08-20T10:54:08Z</time>
      </trkpt>
      <trkpt lat="44.68898" lon="6.98782">
        <ele>2842.28</ele>
        <time>2018-08-20T10:54:20Z</time>
      </trkpt>
      <trkpt lat="44.68898" lon="6.98794">
        <ele>2844.2</ele>
        <time>2018-08-20T10:54:33Z</time>
      </trkpt>
      <trkpt lat="44.68901" lon="6.98805">
        <ele>2846.12</ele>
        <time>2018-08-20T10:54:46Z</time>
      </trkpt>
      <trkpt lat="44.68905" lon="6.98811">
        <ele>2848.04</ele>
        <time>2018-08-20T10:54:58Z</time>
      </trkpt>
      <trkpt lat="44.68909" lon="6.98816">
        <ele>2850.45</ele>
        <time>2018-08-20T10:55:12Z</time>
      </trkpt>
      <trkpt lat="44.68908" lon="6.98823">
        <ele>2852.85</ele>
        <time>2018-08-20T10:55:24Z</time>
      </trkpt>
      <trkpt lat="44.68914" lon="6.98829">
        <ele>2855.73</ele>
        <time>2018-08-20T10:55:40Z</time>
      </trkpt>
      <trkpt lat="44.68919" lon="6.98835">
        <ele>2858.62</ele>
        <time>2018-08-20T10:55:55Z</time>
      </trkpt>
      <trkpt lat="44.6892" lon="6.98845">
        <ele>2861.02</ele>
        <time>2018-08-20T10:56:08Z</time>
      </trkpt>
      <trkpt lat="44.68921" lon="6.98855">
        <ele>2862.94</ele>
        <time>2018-08-20T10:56:23Z</time>
      </trkpt>
      <trkpt lat="44.68923" lon="6.98864">
        <ele>2865.35</ele>
        <time>2018-08-20T10:56:37Z</time>
      </trkpt>
      <trkpt lat="44.68923" lon="6.98875">
        <ele>2868.23</ele>
        <time>2018-08-20T10:56:53Z</time>
      </trkpt>
      <trkpt lat="44.68928" lon="6.98883">
        <ele>2870.15</ele>
        <time>2018-08-20T10:57:08Z</time>
      </trkpt>
      <trkpt lat="44.68938" lon="6.98886">
        <ele>2872.08</ele>
        <time>2018-08-20T10:57:21Z</time>
      </trkpt>
      <trkpt lat="44.68947" lon="6.98889">
        <ele>2874</ele>
        <time>2018-08-20T10:57:35Z</time>
      </trkpt>
      <trkpt lat="44.68951" lon="6.989">
        <ele>2875.92</ele>
        <time>2018-08-20T10:57:49Z</time>
      </trkpt>
      <trkpt lat="44.68956" lon="6.98907">
        <ele>2877.84</ele>
        <time>2018-08-20T10:58:02Z</time>
      </trkpt>
      <trkpt lat="44.68965" lon="6.98913">
        <ele>2880.25</ele>
        <time>2018-08-20T10:58:16Z</time>
      </trkpt>
      <trkpt lat="44.68973" lon="6.98916">
        <ele>2882.17</ele>
        <time>2018-08-20T10:58:30Z</time>
      </trkpt>
      <trkpt lat="44.68983" lon="6.9892">
        <ele>2883.61</ele>
        <time>2018-08-20T10:58:43Z</time>
      </trkpt>
      <trkpt lat="44.68992" lon="6.98923">
        <ele>2885.53</ele>
        <time>2018-08-20T10:58:57Z</time>
      </trkpt>
      <trkpt lat="44.68998" lon="6.98928">
        <ele>2887.94</ele>
        <time>2018-08-20T10:59:10Z</time>
      </trkpt>
      <trkpt lat="44.69003" lon="6.9893">
        <ele>2890.34</ele>
        <time>2018-08-20T10:59:24Z</time>
      </trkpt>
      <trkpt lat="44.69008" lon="6.98931">
        <ele>2892.26</ele>
        <time>2018-08-20T10:59:37Z</time>
      </trkpt>
      <trkpt lat="44.69014" lon="6.98931">
        <ele>2894.67</ele>
        <time>2018-08-20T10:59:50Z</time>
      </trkpt>
      <trkpt lat="44.69018" lon="6.98932">
        <ele>2896.59</ele>
        <time>2018-08-20T11:00:02Z</time>
      </trkpt>
      <trkpt lat="44.69024" lon="6.98937">
        <ele>2898.99</ele>
        <time>2018-08-20T11:00:15Z</time>
      </trkpt>
      <trkpt lat="44.69023" lon="6.98937">
        <ele>2899.47</ele>
        <time>2018-08-20T11:00:31Z</time>
      </trkpt>
      <trkpt lat="44.69029" lon="6.98942">
        <ele>2901.4</ele>
        <time>2018-08-20T11:00:46Z</time>
      </trkpt>
      <trkpt lat="44.6903" lon="6.98949">
        <ele>2903.32</ele>
        <time>2018-08-20T11:01:00Z</time>
      </trkpt>
      <trkpt lat="44.6903" lon="6.9895">
        <ele>2904.28</ele>
        <time>2018-08-20T11:01:12Z</time>
      </trkpt>
      <trkpt lat="44.69029" lon="6.98954">
        <ele>2905.72</ele>
        <time>2018-08-20T11:01:30Z</time>
      </trkpt>
      <trkpt lat="44.69029" lon="6.9896">
        <ele>2906.2</ele>
        <time>2018-08-20T11:01:50Z</time>
      </trkpt>
      <trkpt lat="44.69025" lon="6.98967">
        <ele>2909.57</ele>
        <time>2018-08-20T11:02:03Z</time>
      </trkpt>
      <trkpt lat="44.69018" lon="6.98977">
        <ele>2911.49</ele>
        <time>2018-08-20T11:02:19Z</time>
      </trkpt>
      <trkpt lat="44.69015" lon="6.98985">
        <ele>2914.37</ele>
        <time>2018-08-20T11:02:33Z</time>
      </trkpt>
      <trkpt lat="44.69014" lon="6.98991">
        <ele>2916.78</ele>
        <time>2018-08-20T11:02:45Z</time>
      </trkpt>
      <trkpt lat="44.69014" lon="6.98998">
        <ele>2918.7</ele>
        <time>2018-08-20T11:02:59Z</time>
      </trkpt>
      <trkpt lat="44.69012" lon="6.99007">
        <ele>2921.58</ele>
        <time>2018-08-20T11:03:15Z</time>
      </trkpt>
      <trkpt lat="44.69013" lon="6.99015">
        <ele>2923.99</ele>
        <time>2018-08-20T11:03:29Z</time>
      </trkpt>
      <trkpt lat="44.69015" lon="6.99027">
        <ele>2925.91</ele>
        <time>2018-08-20T11:03:42Z</time>
      </trkpt>
      <trkpt lat="44.69016" lon="6.99037">
        <ele>2928.31</ele>
        <time>2018-08-20T11:03:56Z</time>
      </trkpt>
      <trkpt lat="44.69016" lon="6.99049">
        <ele>2931.2</ele>
        <time>2018-08-20T11:04:10Z</time>
      </trkpt>
      <trkpt lat="44.69019" lon="6.99059">
        <ele>2933.6</ele>
        <time>2018-08-20T11:04:24Z</time>
      </trkpt>
      <trkpt lat="44.6902" lon="6.99068">
        <ele>2936</ele>
        <time>2018-08-20T11:04:38Z</time>
      </trkpt>
      <trkpt lat="44.69017" lon="6.99076">
        <ele>2937.93</ele>
        <time>2018-08-20T11:04:52Z</time>
      </trkpt>
      <trkpt lat="44.69013" lon="6.99083">
        <ele>2940.33</ele>
        <time>2018-08-20T11:05:05Z</time>
      </trkpt>
      <trkpt lat="44.6901" lon="6.99086">
        <ele>2942.73</ele>
        <time>2018-08-20T11:05:17Z</time>
      </trkpt>
      <trkpt lat="44.69006" lon="6.99092">
        <ele>2944.17</ele>
        <time>2018-08-20T11:05:29Z</time>
      </trkpt>
      <trkpt lat="44.69006" lon="6.99099">
        <ele>2946.58</ele>
        <time>2018-08-20T11:05:43Z</time>
      </trkpt>
      <trkpt lat="44.69002" lon="6.99105">
        <ele>2949.94</ele>
        <time>2018-08-20T11:05:58Z</time>
      </trkpt>
      <trkpt lat="44.69003" lon="6.99113">
        <ele>2952.35</ele>
        <time>2018-08-20T11:06:13Z</time>
      </trkpt>
      <trkpt lat="44.68998" lon="6.99118">
        <ele>2954.27</ele>
        <time>2018-08-20T11:06:25Z</time>
      </trkpt>
      <trkpt lat="44.68995" lon="6.99125">
        <ele>2955.71</ele>
        <time>2018-08-20T11:06:36Z</time>
      </trkpt>
      <trkpt lat="44.68994" lon="6.9913">
        <ele>2958.59</ele>
        <time>2018-08-20T11:06:51Z</time>
      </trkpt>
      <trkpt lat="44.68987" lon="6.99135">
        <ele>2961.48</ele>
        <time>2018-08-20T11:07:06Z</time>
      </trkpt>
      <trkpt lat="44.68991" lon="6.99139">
        <ele>2962.92</ele>
        <time>2018-08-20T11:07:18Z</time>
      </trkpt>
      <trkpt lat="44.68988" lon="6.99147">
        <ele>2965.32</ele>
        <time>2018-08-20T11:07:32Z</time>
      </trkpt>
      <trkpt lat="44.68987" lon="6.99153">
        <ele>2967.25</ele>
        <time>2018-08-20T11:07:46Z</time>
      </trkpt>
      <trkpt lat="44.68987" lon="6.99156">
        <ele>2969.17</ele>
        <time>2018-08-20T11:07:57Z</time>
      </trkpt>
      <trkpt lat="44.68988" lon="6.99161">
        <ele>2971.57</ele>
        <time>2018-08-20T11:08:09Z</time>
      </trkpt>
      <trkpt lat="44.68988" lon="6.99165">
        <ele>2973.5</ele>
        <time>2018-08-20T11:08:21Z</time>
      </trkpt>
      <trkpt lat="44.68989" lon="6.9917">
        <ele>2975.9</ele>
        <time>2018-08-20T11:08:35Z</time>
      </trkpt>
      <trkpt lat="44.68989" lon="6.99173">
        <ele>2977.82</ele>
        <time>2018-08-20T11:08:46Z</time>
      </trkpt>
      <trkpt lat="44.6899" lon="6.99181">
        <ele>2979.74</ele>
        <time>2018-08-20T11:09:00Z</time>
      </trkpt>
      <trkpt lat="44.68994" lon="6.99182">
        <ele>2981.67</ele>
        <time>2018-08-20T11:09:10Z</time>
      </trkpt>
      <trkpt lat="44.68999" lon="6.99188">
        <ele>2984.07</ele>
        <time>2018-08-20T11:09:23Z</time>
      </trkpt>
      <trkpt lat="44.69001" lon="6.99194">
        <ele>2986.47</ele>
        <time>2018-08-20T11:09:36Z</time>
      </trkpt>
      <trkpt lat="44.69007" lon="6.99198">
        <ele>2988.4</ele>
        <time>2018-08-20T11:09:49Z</time>
      </trkpt>
      <trkpt lat="44.69007" lon="6.99202">
        <ele>2990.32</ele>
        <time>2018-08-20T11:10:01Z</time>
      </trkpt>
      <trkpt lat="44.69004" lon="6.99209">
        <ele>2992.72</ele>
        <time>2018-08-20T11:10:16Z</time>
      </trkpt>
      <trkpt lat="44.68999" lon="6.99215">
        <ele>2995.12</ele>
        <time>2018-08-20T11:10:31Z</time>
      </trkpt>
      <trkpt lat="44.68998" lon="6.99219">
        <ele>2997.05</ele>
        <time>2018-08-20T11:10:44Z</time>
      </trkpt>
      <trkpt lat="44.69003" lon="6.99221">
        <ele>2999.45</ele>
        <time>2018-08-20T11:10:59Z</time>
      </trkpt>
      <trkpt lat="44.69002" lon="6.99226">
        <ele>3001.37</ele>
        <time>2018-08-20T11:11:13Z</time>
      </trkpt>
      <trkpt lat="44.69002" lon="6.99232">
        <ele>3003.3</ele>
        <time>2018-08-20T11:11:26Z</time>
      </trkpt>
      <trkpt lat="44.69002" lon="6.99237">
        <ele>3004.74</ele>
        <time>2018-08-20T11:11:37Z</time>
      </trkpt>
      <trkpt lat="44.69003" lon="6.99241">
        <ele>3007.14</ele>
        <time>2018-08-20T11:11:50Z</time>
      </trkpt>
      <trkpt lat="44.69003" lon="6.99244">
        <ele>3008.58</ele>
        <time>2018-08-20T11:12:02Z</time>
      </trkpt>
      <trkpt lat="44.69002" lon="6.99248">
        <ele>3010.51</ele>
        <time>2018-08-20T11:12:13Z</time>
      </trkpt>
      <trkpt lat="44.69003" lon="6.99251">
        <ele>3011.95</ele>
        <time>2018-08-20T11:12:25Z</time>
      </trkpt>
      <trkpt lat="44.69003" lon="6.99257">
        <ele>3014.83</ele>
        <time>2018-08-20T11:12:40Z</time>
      </trkpt>
      <trkpt lat="44.69003" lon="6.99262">
        <ele>3016.75</ele>
        <time>2018-08-20T11:12:52Z</time>
      </trkpt>
      <trkpt lat="44.69004" lon="6.99265">
        <ele>3018.2</ele>
        <time>2018-08-20T11:13:04Z</time>
      </trkpt>
      <trkpt lat="44.69002" lon="6.99269">
        <ele>3020.6</ele>
        <time>2018-08-20T11:13:18Z</time>
      </trkpt>
      <trkpt lat="44.69002" lon="6.99273">
        <ele>3022.52</ele>
        <time>2018-08-20T11:13:30Z</time>
      </trkpt>
      <trkpt lat="44.69" lon="6.99276">
        <ele>3023.96</ele>
        <time>2018-08-20T11:13:40Z</time>
      </trkpt>
      <trkpt lat="44.68997" lon="6.99282">
        <ele>3026.85</ele>
        <time>2018-08-20T11:13:58Z</time>
      </trkpt>
      <trkpt lat="44.68995" lon="6.99287">
        <ele>3028.77</ele>
        <time>2018-08-20T11:14:11Z</time>
      </trkpt>
      <trkpt lat="44.68992" lon="6.99291">
        <ele>3030.21</ele>
        <time>2018-08-20T11:14:22Z</time>
      </trkpt>
      <trkpt lat="44.68989" lon="6.99296">
        <ele>3032.14</ele>
        <time>2018-08-20T11:14:35Z</time>
      </trkpt>
      <trkpt lat="44.68987" lon="6.99301">
        <ele>3034.06</ele>
        <time>2018-08-20T11:14:46Z</time>
      </trkpt>
      <trkpt lat="44.68985" lon="6.99304">
        <ele>3035.98</ele>
        <time>2018-08-20T11:14:56Z</time>
      </trkpt>
      <trkpt lat="44.68985" lon="6.99308">
        <ele>3037.42</ele>
        <time>2018-08-20T11:15:08Z</time>
      </trkpt>
      <trkpt lat="44.68988" lon="6.99308">
        <ele>3038.86</ele>
        <time>2018-08-20T11:15:19Z</time>
      </trkpt>
      <trkpt lat="44.6899" lon="6.9931">
        <ele>3041.27</ele>
        <time>2018-08-20T11:15:31Z</time>
      </trkpt>
      <trkpt lat="44.68995" lon="6.99311">
        <ele>3042.71</ele>
        <time>2018-08-20T11:15:46Z</time>
      </trkpt>
      <trkpt lat="44.68996" lon="6.99312">
        <ele>3044.15</ele>
        <time>2018-08-20T11:15:58Z</time>
      </trkpt>
      <trkpt lat="44.68996" lon="6.99316">
        <ele>3045.59</ele>
        <time>2018-08-20T11:16:10Z</time>
      </trkpt>
      <trkpt lat="44.69" lon="6.99316">
        <ele>3048</ele>
        <time>2018-08-20T11:16:23Z</time>
      </trkpt>
      <trkpt lat="44.69002" lon="6.99319">
        <ele>3048.96</ele>
        <time>2018-08-20T11:16:36Z</time>
      </trkpt>
      <trkpt lat="44.68999" lon="6.99322">
        <ele>3050.88</ele>
        <time>2018-08-20T11:16:48Z</time>
      </trkpt>
      <trkpt lat="44.69002" lon="6.99326">
        <ele>3052.32</ele>
        <time>2018-08-20T11:16:59Z</time>
      </trkpt>
      <trkpt lat="44.69005" lon="6.99328">
        <ele>3054.25</ele>
        <time>2018-08-20T11:17:12Z</time>
      </trkpt>
      <trkpt lat="44.69004" lon="6.99333">
        <ele>3056.65</ele>
        <time>2018-08-20T11:17:25Z</time>
      </trkpt>
      <trkpt lat="44.69003" lon="6.99336">
        <ele>3058.09</ele>
        <time>2018-08-20T11:17:35Z</time>
      </trkpt>
      <trkpt lat="44.69002" lon="6.9934">
        <ele>3060.01</ele>
        <time>2018-08-20T11:17:48Z</time>
      </trkpt>
      <trkpt lat="44.69" lon="6.99345">
        <ele>3061.94</ele>
        <time>2018-08-20T11:18:02Z</time>
      </trkpt>
      <trkpt lat="44.68998" lon="6.99348">
        <ele>3063.86</ele>
        <time>2018-08-20T11:18:17Z</time>
      </trkpt>
      <trkpt lat="44.68998" lon="6.99349">
        <ele>3064.82</ele>
        <time>2018-08-20T11:18:33Z</time>
      </trkpt>
      <trkpt lat="44.68999" lon="6.99353">
        <ele>3065.78</ele>
        <time>2018-08-20T11:18:45Z</time>
      </trkpt>
      <trkpt lat="44.69" lon="6.99355">
        <ele>3067.22</ele>
        <time>2018-08-20T11:18:57Z</time>
      </trkpt>
      <trkpt lat="44.69005" lon="6.99357">
        <ele>3069.63</ele>
        <time>2018-08-20T11:19:10Z</time>
      </trkpt>
      <trkpt lat="44.69007" lon="6.99359">
        <ele>3071.07</ele>
        <time>2018-08-20T11:19:23Z</time>
      </trkpt>
      <trkpt lat="44.69009" lon="6.99363">
        <ele>3072.99</ele>
        <time>2018-08-20T11:19:33Z</time>
      </trkpt>
      <trkpt lat="44.69006" lon="6.99368">
        <ele>3075.4</ele>
        <time>2018-08-20T11:19:45Z</time>
      </trkpt>
      <trkpt lat="44.69009" lon="6.99371">
        <ele>3076.84</ele>
        <time>2018-08-20T11:19:58Z</time>
      </trkpt>
      <trkpt lat="44.69012" lon="6.99375">
        <ele>3078.76</ele>
        <time>2018-08-20T11:20:13Z</time>
      </trkpt>
      <trkpt lat="44.69013" lon="6.99374">
        <ele>3079.72</ele>
        <time>2018-08-20T11:20:25Z</time>
      </trkpt>
      <trkpt lat="44.69012" lon="6.99376">
        <ele>3079.72</ele>
        <time>2018-08-20T11:20:39Z</time>
      </trkpt>
      <trkpt lat="44.69011" lon="6.99376">
        <ele>3081.16</ele>
        <time>2018-08-20T11:20:41Z</time>
      </trkpt>
      <trkpt lat="44.6901" lon="6.9938">
        <ele>3082.6</ele>
        <time>2018-08-20T11:20:50Z</time>
      </trkpt>
      <trkpt lat="44.69008" lon="6.99384">
        <ele>3085.01</ele>
        <time>2018-08-20T11:21:04Z</time>
      </trkpt>
      <trkpt lat="44.69008" lon="6.99388">
        <ele>3086.93</ele>
        <time>2018-08-20T11:21:18Z</time>
      </trkpt>
      <trkpt lat="44.69009" lon="6.99391">
        <ele>3088.37</ele>
        <time>2018-08-20T11:21:30Z</time>
      </trkpt>
      <trkpt lat="44.69008" lon="6.99395">
        <ele>3090.78</ele>
        <time>2018-08-20T11:21:45Z</time>
      </trkpt>
      <trkpt lat="44.69008" lon="6.994">
        <ele>3092.7</ele>
        <time>2018-08-20T11:21:56Z</time>
      </trkpt>
      <trkpt lat="44.69009" lon="6.99403">
        <ele>3094.62</ele>
        <time>2018-08-20T11:22:06Z</time>
      </trkpt>
      <trkpt lat="44.69008" lon="6.99405">
        <ele>3097.02</ele>
        <time>2018-08-20T11:22:18Z</time>
      </trkpt>
      <trkpt lat="44.69006" lon="6.99409">
        <ele>3098.47</ele>
        <time>2018-08-20T11:22:30Z</time>
      </trkpt>
      <trkpt lat="44.69007" lon="6.99413">
        <ele>3099.91</ele>
        <time>2018-08-20T11:22:45Z</time>
      </trkpt>
      <trkpt lat="44.69008" lon="6.99418">
        <ele>3102.79</ele>
        <time>2018-08-20T11:22:59Z</time>
      </trkpt>
      <trkpt lat="44.69006" lon="6.9942">
        <ele>3104.23</ele>
        <time>2018-08-20T11:23:10Z</time>
      </trkpt>
      <trkpt lat="44.69004" lon="6.99424">
        <ele>3105.68</ele>
        <time>2018-08-20T11:23:23Z</time>
      </trkpt>
      <trkpt lat="44.68999" lon="6.99428">
        <ele>3106.64</ele>
        <time>2018-08-20T11:23:35Z</time>
      </trkpt>
      <trkpt lat="44.68997" lon="6.99434">
        <ele>3109.04</ele>
        <time>2018-08-20T11:23:50Z</time>
      </trkpt>
      <trkpt lat="44.68999" lon="6.99436">
        <ele>3110.48</ele>
        <time>2018-08-20T11:24:01Z</time>
      </trkpt>
      <trkpt lat="44.69001" lon="6.99438">
        <ele>3112.89</ele>
        <time>2018-08-20T11:24:16Z</time>
      </trkpt>
      <trkpt lat="44.69001" lon="6.9944">
        <ele>3113.85</ele>
        <time>2018-08-20T11:24:27Z</time>
      </trkpt>
      <trkpt lat="44.69002" lon="6.99445">
        <ele>3116.73</ele>
        <time>2018-08-20T11:24:42Z</time>
      </trkpt>
      <trkpt lat="44.69" lon="6.99451">
        <ele>3118.17</ele>
        <time>2018-08-20T11:24:55Z</time>
      </trkpt>
      <trkpt lat="44.69004" lon="6.99451">
        <ele>3120.1</ele>
        <time>2018-08-20T11:25:06Z</time>
      </trkpt>
      <trkpt lat="44.69005" lon="6.99453">
        <ele>3120.1</ele>
        <time>2018-08-20T11:25:20Z</time>
      </trkpt>
      <trkpt lat="44.69005" lon="6.99458">
        <ele>3122.98</ele>
        <time>2018-08-20T11:25:33Z</time>
      </trkpt>
      <trkpt lat="44.69003" lon="6.99463">
        <ele>3124.42</ele>
        <time>2018-08-20T11:25:46Z</time>
      </trkpt>
      <trkpt lat="44.69002" lon="6.9947">
        <ele>3127.79</ele>
        <time>2018-08-20T11:26:05Z</time>
      </trkpt>
      <trkpt lat="44.69004" lon="6.99469">
        <ele>3128.27</ele>
        <time>2018-08-20T11:26:21Z</time>
      </trkpt>
      <trkpt lat="44.69008" lon="6.99468">
        <ele>3130.67</ele>
        <time>2018-08-20T11:26:33Z</time>
      </trkpt>
      <trkpt lat="44.69012" lon="6.99466">
        <ele>3132.11</ele>
        <time>2018-08-20T11:26:46Z</time>
      </trkpt>
      <trkpt lat="44.69015" lon="6.99468">
        <ele>3134.04</ele>
        <time>2018-08-20T11:27:00Z</time>
      </trkpt>
      <trkpt lat="44.69018" lon="6.99469">
        <ele>3136.44</ele>
        <time>2018-08-20T11:27:12Z</time>
      </trkpt>
      <trkpt lat="44.69021" lon="6.9947">
        <ele>3137.88</ele>
        <time>2018-08-20T11:27:22Z</time>
      </trkpt>
      <trkpt lat="44.69023" lon="6.99473">
        <ele>3139.32</ele>
        <time>2018-08-20T11:27:34Z</time>
      </trkpt>
      <trkpt lat="44.69024" lon="6.99476">
        <ele>3141.25</ele>
        <time>2018-08-20T11:27:47Z</time>
      </trkpt>
      <trkpt lat="44.69027" lon="6.99478">
        <ele>3143.17</ele>
        <time>2018-08-20T11:27:58Z</time>
      </trkpt>
      <trkpt lat="44.69031" lon="6.99478">
        <ele>3145.09</ele>
        <time>2018-08-20T11:28:10Z</time>
      </trkpt>
      <trkpt lat="44.69033" lon="6.9948">
        <ele>3146.53</ele>
        <time>2018-08-20T11:28:21Z</time>
      </trkpt>
      <trkpt lat="44.69036" lon="6.99482">
        <ele>3148.46</ele>
        <time>2018-08-20T11:28:34Z</time>
      </trkpt>
      <trkpt lat="44.69042" lon="6.99481">
        <ele>3150.38</ele>
        <time>2018-08-20T11:28:46Z</time>
      </trkpt>
      <trkpt lat="44.69044" lon="6.99484">
        <ele>3152.78</ele>
        <time>2018-08-20T11:28:57Z</time>
      </trkpt>
      <trkpt lat="44.69048" lon="6.99489">
        <ele>3153.74</ele>
        <time>2018-08-20T11:29:09Z</time>
      </trkpt>
      <trkpt lat="44.69047" lon="6.99492">
        <ele>3155.66</ele>
        <time>2018-08-20T11:29:23Z</time>
      </trkpt>
      <trkpt lat="44.69044" lon="6.99498">
        <ele>3158.07</ele>
        <time>2018-08-20T11:29:38Z</time>
      </trkpt>
      <trkpt lat="44.69042" lon="6.99504">
        <ele>3159.51</ele>
        <time>2018-08-20T11:29:51Z</time>
      </trkpt>
      <trkpt lat="44.6904" lon="6.99508">
        <ele>3161.43</ele>
        <time>2018-08-20T11:30:04Z</time>
      </trkpt>
      <trkpt lat="44.69041" lon="6.99511">
        <ele>3163.36</ele>
        <time>2018-08-20T11:30:16Z</time>
      </trkpt>
      <trkpt lat="44.69039" lon="6.99517">
        <ele>3166.24</ele>
        <time>2018-08-20T11:30:31Z</time>
      </trkpt>
      <trkpt lat="44.69041" lon="6.99519">
        <ele>3168.16</ele>
        <time>2018-08-20T11:30:44Z</time>
      </trkpt>
      <trkpt lat="44.69038" lon="6.99523">
        <ele>3169.12</ele>
        <time>2018-08-20T11:30:59Z</time>
      </trkpt>
      <trkpt lat="44.69039" lon="6.99527">
        <ele>3171.05</ele>
        <time>2018-08-20T11:31:10Z</time>
      </trkpt>
      <trkpt lat="44.69039" lon="6.99529">
        <ele>3171.53</ele>
        <time>2018-08-20T11:31:21Z</time>
      </trkpt>
      <trkpt lat="44.69038" lon="6.99535">
        <ele>3173.45</ele>
        <time>2018-08-20T11:31:36Z</time>
      </trkpt>
      <trkpt lat="44.69042" lon="6.99534">
        <ele>3175.37</ele>
        <time>2018-08-20T11:31:49Z</time>
      </trkpt>
      <trkpt lat="44.69043" lon="6.99538">
        <ele>3177.78</ele>
        <time>2018-08-20T11:32:01Z</time>
      </trkpt>
      <trkpt lat="44.69044" lon="6.99543">
        <ele>3179.7</ele>
        <time>2018-08-20T11:32:13Z</time>
      </trkpt>
      <trkpt lat="44.69044" lon="6.99547">
        <ele>3181.14</ele>
        <time>2018-08-20T11:32:27Z</time>
      </trkpt>
      <trkpt lat="44.69043" lon="6.9955">
        <ele>3183.54</ele>
        <time>2018-08-20T11:32:42Z</time>
      </trkpt>
      <trkpt lat="44.69044" lon="6.9955">
        <ele>3184.98</ele>
        <time>2018-08-20T11:32:54Z</time>
      </trkpt>
      <trkpt lat="44.69044" lon="6.99554">
        <ele>3185.95</ele>
        <time>2018-08-20T11:33:07Z</time>
      </trkpt>
      <trkpt lat="44.69042" lon="6.99559">
        <ele>3187.39</ele>
        <time>2018-08-20T11:33:19Z</time>
      </trkpt>
      <trkpt lat="44.69044" lon="6.99568">
        <ele>3189.79</ele>
        <time>2018-08-20T11:33:33Z</time>
      </trkpt>
      <trkpt lat="44.69044" lon="6.99573">
        <ele>3192.2</ele>
        <time>2018-08-20T11:33:45Z</time>
      </trkpt>
      <trkpt lat="44.69043" lon="6.99579">
        <ele>3193.16</ele>
        <time>2018-08-20T11:33:54Z</time>
      </trkpt>
      <trkpt lat="44.6904" lon="6.99581">
        <ele>3195.08</ele>
        <time>2018-08-20T11:34:07Z</time>
      </trkpt>
      <trkpt lat="44.69039" lon="6.99586">
        <ele>3197</ele>
        <time>2018-08-20T11:34:20Z</time>
      </trkpt>
      <trkpt lat="44.69039" lon="6.99591">
        <ele>3197.48</ele>
        <time>2018-08-20T11:34:29Z</time>
      </trkpt>
      <trkpt lat="44.6904" lon="6.99595">
        <ele>3198.92</ele>
        <time>2018-08-20T11:34:38Z</time>
      </trkpt>
      <trkpt lat="44.69039" lon="6.996">
        <ele>3199.4</ele>
        <time>2018-08-20T11:34:49Z</time>
      </trkpt>
      <trkpt lat="44.69042" lon="6.99607">
        <ele>3199.89</ele>
        <time>2018-08-20T11:35:04Z</time>
      </trkpt>
      <trkpt lat="44.69042" lon="6.99612">
        <ele>3199.89</ele>
        <time>2018-08-20T11:35:17Z</time>
      </trkpt>
      <trkpt lat="44.69043" lon="6.99617">
        <ele>3199.89</ele>
        <time>2018-08-20T11:35:27Z</time>
      </trkpt>
      <trkpt lat="44.69045" lon="6.99623">
        <ele>3200.85</ele>
        <time>2018-08-20T11:35:38Z</time>
      </trkpt>
      <trkpt lat="44.69046" lon="6.99626">
        <ele>3200.85</ele>
        <time>2018-08-20T11:35:50Z</time>
      </trkpt>
      <trkpt lat="44.69045" lon="6.9963">
        <ele>3200.85</ele>
        <time>2018-08-20T11:35:59Z</time>
      </trkpt>
      <trkpt lat="44.69048" lon="6.99636">
        <ele>3200.85</ele>
        <time>2018-08-20T11:36:11Z</time>
      </trkpt>
      <trkpt lat="44.69048" lon="6.99642">
        <ele>3200.85</ele>
        <time>2018-08-20T11:36:22Z</time>
      </trkpt>
      <trkpt lat="44.69049" lon="6.99642">
        <ele>3200.85</ele>
        <time>2018-08-20T11:36:42Z</time>
      </trkpt>
      <trkpt lat="44.69048" lon="6.99641">
        <ele>3200.85</ele>
        <time>2018-08-20T11:36:56Z</time>
      </trkpt>
      <trkpt lat="44.69048" lon="6.99641">
        <ele>3200.85</ele>
        <time>2018-08-20T11:37:11Z</time>
      </trkpt>
      <trkpt lat="44.69047" lon="6.99641">
        <ele>3199.4</ele>
        <time>2018-08-20T11:37:15Z</time>
      </trkpt>
      <trkpt lat="44.69048" lon="6.99641">
        <ele>3199.4</ele>
        <time>2018-08-20T11:37:38Z</time>
      </trkpt>
      <trkpt lat="44.69048" lon="6.99639">
        <ele>3199.4</ele>
        <time>2018-08-20T11:38:06Z</time>
      </trkpt>
      <trkpt lat="44.69049" lon="6.99638">
        <ele>3199.89</ele>
        <time>2018-08-20T11:38:50Z</time>
      </trkpt>
      <trkpt lat="44.6905" lon="6.99638">
        <ele>3199.4</ele>
        <time>2018-08-20T11:39:38Z</time>
      </trkpt>
      <trkpt lat="44.6905" lon="6.99638">
        <ele>3199.89</ele>
        <time>2018-08-20T11:40:19Z</time>
      </trkpt>
      <trkpt lat="44.69049" lon="6.9964">
        <ele>3199.89</ele>
        <time>2018-08-20T11:40:54Z</time>
      </trkpt>
      <trkpt lat="44.69048" lon="6.99641">
        <ele>3201.33</ele>
        <time>2018-08-20T11:41:10Z</time>
      </trkpt>
      <trkpt lat="44.69048" lon="6.99642">
        <ele>3201.33</ele>
        <time>2018-08-20T11:41:28Z</time>
      </trkpt>
      <trkpt lat="44.69048" lon="6.99636">
        <ele>3201.81</ele>
        <time>2018-08-20T11:41:42Z</time>
      </trkpt>
      <trkpt lat="44.69048" lon="6.99628">
        <ele>3200.37</ele>
        <time>2018-08-20T11:41:54Z</time>
      </trkpt>
      <trkpt lat="44.69048" lon="6.99621">
        <ele>3198.92</ele>
        <time>2018-08-20T11:42:10Z</time>
      </trkpt>
      <trkpt lat="44.69044" lon="6.99611">
        <ele>3198.92</ele>
        <time>2018-08-20T11:42:23Z</time>
      </trkpt>
      <trkpt lat="44.69043" lon="6.99609">
        <ele>3199.89</ele>
        <time>2018-08-20T11:42:26Z</time>
      </trkpt>
      <trkpt lat="44.69045" lon="6.99603">
        <ele>3197.96</ele>
        <time>2018-08-20T11:42:38Z</time>
      </trkpt>
      <trkpt lat="44.69047" lon="6.99594">
        <ele>3195.08</ele>
        <time>2018-08-20T11:42:51Z</time>
      </trkpt>
      <trkpt lat="44.69047" lon="6.99588">
        <ele>3193.64</ele>
        <time>2018-08-20T11:42:58Z</time>
      </trkpt>
      <trkpt lat="44.69047" lon="6.99579">
        <ele>3192.68</ele>
        <time>2018-08-20T11:43:10Z</time>
      </trkpt>
      <trkpt lat="44.69045" lon="6.99569">
        <ele>3190.75</ele>
        <time>2018-08-20T11:43:22Z</time>
      </trkpt>
      <trkpt lat="44.69046" lon="6.9956">
        <ele>3189.31</ele>
        <time>2018-08-20T11:43:34Z</time>
      </trkpt>
      <trkpt lat="44.69047" lon="6.99554">
        <ele>3186.91</ele>
        <time>2018-08-20T11:43:45Z</time>
      </trkpt>
      <trkpt lat="44.69048" lon="6.99549">
        <ele>3185.47</ele>
        <time>2018-08-20T11:43:56Z</time>
      </trkpt>
      <trkpt lat="44.69048" lon="6.99547">
        <ele>3184.02</ele>
        <time>2018-08-20T11:44:10Z</time>
      </trkpt>
      <trkpt lat="44.69047" lon="6.99548">
        <ele>3184.02</ele>
        <time>2018-08-20T11:44:36Z</time>
      </trkpt>
      <trkpt lat="44.69048" lon="6.99545">
        <ele>3183.54</ele>
        <time>2018-08-20T11:44:48Z</time>
      </trkpt>
      <trkpt lat="44.69051" lon="6.99544">
        <ele>3181.62</ele>
        <time>2018-08-20T11:45:05Z</time>
      </trkpt>
      <trkpt lat="44.69055" lon="6.99545">
        <ele>3180.66</ele>
        <time>2018-08-20T11:45:22Z</time>
      </trkpt>
      <trkpt lat="44.69059" lon="6.99548">
        <ele>3180.18</ele>
        <time>2018-08-20T11:45:37Z</time>
      </trkpt>
      <trkpt lat="44.6906" lon="6.99539">
        <ele>3176.81</ele>
        <time>2018-08-20T11:45:50Z</time>
      </trkpt>
      <trkpt lat="44.6906" lon="6.99537">
        <ele>3176.33</ele>
        <time>2018-08-20T11:45:53Z</time>
      </trkpt>
      <trkpt lat="44.6906" lon="6.99531">
        <ele>3175.37</ele>
        <time>2018-08-20T11:46:04Z</time>
      </trkpt>
      <trkpt lat="44.69057" lon="6.99531">
        <ele>3174.89</ele>
        <time>2018-08-20T11:46:22Z</time>
      </trkpt>
      <trkpt lat="44.69058" lon="6.9953">
        <ele>3175.37</ele>
        <time>2018-08-20T11:46:52Z</time>
      </trkpt>
      <trkpt lat="44.69059" lon="6.99532">
        <ele>3175.37</ele>
        <time>2018-08-20T11:47:18Z</time>
      </trkpt>
      <trkpt lat="44.6906" lon="6.99535">
        <ele>3176.33</ele>
        <time>2018-08-20T11:47:55Z</time>
      </trkpt>
      <trkpt lat="44.6906" lon="6.99532">
        <ele>3176.33</ele>
        <time>2018-08-20T11:48:13Z</time>
      </trkpt>
      <trkpt lat="44.69058" lon="6.99536">
        <ele>3176.33</ele>
        <time>2018-08-20T11:48:39Z</time>
      </trkpt>
      <trkpt lat="44.6906" lon="6.99534">
        <ele>3175.37</ele>
        <time>2018-08-20T11:48:54Z</time>
      </trkpt>
      <trkpt lat="44.69062" lon="6.99532">
        <ele>3176.81</ele>
        <time>2018-08-20T11:49:13Z</time>
      </trkpt>
      <trkpt lat="44.6906" lon="6.99531">
        <ele>3176.33</ele>
        <time>2018-08-20T11:49:36Z</time>
      </trkpt>
      <trkpt lat="44.69057" lon="6.99532">
        <ele>3176.33</ele>
        <time>2018-08-20T11:49:56Z</time>
      </trkpt>
      <trkpt lat="44.69057" lon="6.99529">
        <ele>3176.33</ele>
        <time>2018-08-20T11:50:18Z</time>
      </trkpt>
      <trkpt lat="44.69058" lon="6.99524">
        <ele>3174.89</ele>
        <time>2018-08-20T11:50:30Z</time>
      </trkpt>
      <trkpt lat="44.69062" lon="6.99523">
        <ele>3172.01</ele>
        <time>2018-08-20T11:50:42Z</time>
      </trkpt>
      <trkpt lat="44.69061" lon="6.99519">
        <ele>3171.05</ele>
        <time>2018-08-20T11:50:54Z</time>
      </trkpt>
      <trkpt lat="44.69058" lon="6.99513">
        <ele>3169.12</ele>
        <time>2018-08-20T11:51:04Z</time>
      </trkpt>
      <trkpt lat="44.69056" lon="6.9951">
        <ele>3168.16</ele>
        <time>2018-08-20T11:51:17Z</time>
      </trkpt>
      <trkpt lat="44.69057" lon="6.99505">
        <ele>3166.24</ele>
        <time>2018-08-20T11:51:28Z</time>
      </trkpt>
      <trkpt lat="44.69053" lon="6.99501">
        <ele>3164.32</ele>
        <time>2018-08-20T11:51:42Z</time>
      </trkpt>
      <trkpt lat="44.69051" lon="6.99496">
        <ele>3161.43</ele>
        <time>2018-08-20T11:51:55Z</time>
      </trkpt>
      <trkpt lat="44.69049" lon="6.99491">
        <ele>3159.51</ele>
        <time>2018-08-20T11:52:10Z</time>
      </trkpt>
      <trkpt lat="44.69053" lon="6.99486">
        <ele>3157.11</ele>
        <time>2018-08-20T11:52:23Z</time>
      </trkpt>
      <trkpt lat="44.69057" lon="6.99485">
        <ele>3155.66</ele>
        <time>2018-08-20T11:52:36Z</time>
      </trkpt>
      <trkpt lat="44.69054" lon="6.9948">
        <ele>3154.22</ele>
        <time>2018-08-20T11:52:46Z</time>
      </trkpt>
      <trkpt lat="44.69054" lon="6.99475">
        <ele>3152.3</ele>
        <time>2018-08-20T11:52:57Z</time>
      </trkpt>
      <trkpt lat="44.69056" lon="6.9947">
        <ele>3150.38</ele>
        <time>2018-08-20T11:53:10Z</time>
      </trkpt>
      <trkpt lat="44.69054" lon="6.99466">
        <ele>3147.49</ele>
        <time>2018-08-20T11:53:22Z</time>
      </trkpt>
      <trkpt lat="44.69053" lon="6.9946">
        <ele>3145.57</ele>
        <time>2018-08-20T11:53:34Z</time>
      </trkpt>
      <trkpt lat="44.69056" lon="6.99457">
        <ele>3143.65</ele>
        <time>2018-08-20T11:53:46Z</time>
      </trkpt>
      <trkpt lat="44.6906" lon="6.99455">
        <ele>3140.76</ele>
        <time>2018-08-20T11:53:58Z</time>
      </trkpt>
      <trkpt lat="44.69059" lon="6.99449">
        <ele>3139.8</ele>
        <time>2018-08-20T11:54:09Z</time>
      </trkpt>
      <trkpt lat="44.69059" lon="6.99443">
        <ele>3136.44</ele>
        <time>2018-08-20T11:54:21Z</time>
      </trkpt>
      <trkpt lat="44.69062" lon="6.99439">
        <ele>3134.52</ele>
        <time>2018-08-20T11:54:34Z</time>
      </trkpt>
      <trkpt lat="44.69064" lon="6.99435">
        <ele>3132.59</ele>
        <time>2018-08-20T11:54:46Z</time>
      </trkpt>
      <trkpt lat="44.69068" lon="6.99433">
        <ele>3130.19</ele>
        <time>2018-08-20T11:54:59Z</time>
      </trkpt>
      <trkpt lat="44.69071" lon="6.9943">
        <ele>3127.31</ele>
        <time>2018-08-20T11:55:12Z</time>
      </trkpt>
      <trkpt lat="44.69072" lon="6.99424">
        <ele>3124.42</ele>
        <time>2018-08-20T11:55:24Z</time>
      </trkpt>
      <trkpt lat="44.69075" lon="6.99421">
        <ele>3122.02</ele>
        <time>2018-08-20T11:55:39Z</time>
      </trkpt>
      <trkpt lat="44.69076" lon="6.99414">
        <ele>3119.62</ele>
        <time>2018-08-20T11:55:50Z</time>
      </trkpt>
      <trkpt lat="44.69077" lon="6.99407">
        <ele>3117.69</ele>
        <time>2018-08-20T11:56:02Z</time>
      </trkpt>
      <trkpt lat="44.69083" lon="6.99407">
        <ele>3114.81</ele>
        <time>2018-08-20T11:56:16Z</time>
      </trkpt>
      <trkpt lat="44.6908" lon="6.99398">
        <ele>3112.41</ele>
        <time>2018-08-20T11:56:29Z</time>
      </trkpt>
      <trkpt lat="44.69084" lon="6.99395">
        <ele>3110.96</ele>
        <time>2018-08-20T11:56:40Z</time>
      </trkpt>
      <trkpt lat="44.69089" lon="6.99393">
        <ele>3108.56</ele>
        <time>2018-08-20T11:56:53Z</time>
      </trkpt>
      <trkpt lat="44.69091" lon="6.99391">
        <ele>3106.16</ele>
        <time>2018-08-20T11:57:03Z</time>
      </trkpt>
      <trkpt lat="44.69094" lon="6.99388">
        <ele>3103.75</ele>
        <time>2018-08-20T11:57:15Z</time>
      </trkpt>
      <trkpt lat="44.69089" lon="6.99377">
        <ele>3101.83</ele>
        <time>2018-08-20T11:57:28Z</time>
      </trkpt>
      <trkpt lat="44.69085" lon="6.9937">
        <ele>3098.95</ele>
        <time>2018-08-20T11:57:40Z</time>
      </trkpt>
      <trkpt lat="44.69085" lon="6.99364">
        <ele>3096.06</ele>
        <time>2018-08-20T11:57:54Z</time>
      </trkpt>
      <trkpt lat="44.69083" lon="6.99357">
        <ele>3093.66</ele>
        <time>2018-08-20T11:58:06Z</time>
      </trkpt>
      <trkpt lat="44.69088" lon="6.99353">
        <ele>3090.29</ele>
        <time>2018-08-20T11:58:20Z</time>
      </trkpt>
      <trkpt lat="44.69088" lon="6.99348">
        <ele>3087.41</ele>
        <time>2018-08-20T11:58:34Z</time>
      </trkpt>
      <trkpt lat="44.69089" lon="6.99342">
        <ele>3084.53</ele>
        <time>2018-08-20T11:58:47Z</time>
      </trkpt>
      <trkpt lat="44.69091" lon="6.99342">
        <ele>3083.09</ele>
        <time>2018-08-20T11:59:01Z</time>
      </trkpt>
      <trkpt lat="44.69092" lon="6.99337">
        <ele>3081.16</ele>
        <time>2018-08-20T11:59:13Z</time>
      </trkpt>
      <trkpt lat="44.69094" lon="6.99333">
        <ele>3078.76</ele>
        <time>2018-08-20T11:59:24Z</time>
      </trkpt>
      <trkpt lat="44.69093" lon="6.99324">
        <ele>3075.88</ele>
        <time>2018-08-20T11:59:38Z</time>
      </trkpt>
      <trkpt lat="44.69098" lon="6.99324">
        <ele>3072.99</ele>
        <time>2018-08-20T11:59:52Z</time>
      </trkpt>
      <trkpt lat="44.691" lon="6.9932">
        <ele>3070.59</ele>
        <time>2018-08-20T12:00:06Z</time>
      </trkpt>
      <trkpt lat="44.69102" lon="6.99316">
        <ele>3068.19</ele>
        <time>2018-08-20T12:00:16Z</time>
      </trkpt>
      <trkpt lat="44.69103" lon="6.99314">
        <ele>3066.74</ele>
        <time>2018-08-20T12:00:28Z</time>
      </trkpt>
      <trkpt lat="44.69102" lon="6.99309">
        <ele>3064.34</ele>
        <time>2018-08-20T12:00:41Z</time>
      </trkpt>
      <trkpt lat="44.69102" lon="6.99303">
        <ele>3062.42</ele>
        <time>2018-08-20T12:00:51Z</time>
      </trkpt>
      <trkpt lat="44.69103" lon="6.993">
        <ele>3060.49</ele>
        <time>2018-08-20T12:01:02Z</time>
      </trkpt>
      <trkpt lat="44.69105" lon="6.99296">
        <ele>3058.57</ele>
        <time>2018-08-20T12:01:17Z</time>
      </trkpt>
      <trkpt lat="44.69103" lon="6.99288">
        <ele>3056.65</ele>
        <time>2018-08-20T12:01:29Z</time>
      </trkpt>
      <trkpt lat="44.69104" lon="6.99283">
        <ele>3055.21</ele>
        <time>2018-08-20T12:01:41Z</time>
      </trkpt>
      <trkpt lat="44.69105" lon="6.99284">
        <ele>3054.25</ele>
        <time>2018-08-20T12:01:54Z</time>
      </trkpt>
      <trkpt lat="44.69107" lon="6.99283">
        <ele>3052.32</ele>
        <time>2018-08-20T12:02:06Z</time>
      </trkpt>
      <trkpt lat="44.6911" lon="6.99282">
        <ele>3050.4</ele>
        <time>2018-08-20T12:02:17Z</time>
      </trkpt>
      <trkpt lat="44.69111" lon="6.99279">
        <ele>3047.52</ele>
        <time>2018-08-20T12:02:30Z</time>
      </trkpt>
      <trkpt lat="44.69114" lon="6.99277">
        <ele>3044.63</ele>
        <time>2018-08-20T12:02:43Z</time>
      </trkpt>
      <trkpt lat="44.69114" lon="6.99276">
        <ele>3043.67</ele>
        <time>2018-08-20T12:02:45Z</time>
      </trkpt>
      <trkpt lat="44.69115" lon="6.99264">
        <ele>3041.75</ele>
        <time>2018-08-20T12:02:56Z</time>
      </trkpt>
      <trkpt lat="44.69115" lon="6.99258">
        <ele>3040.79</ele>
        <time>2018-08-20T12:03:04Z</time>
      </trkpt>
      <trkpt lat="44.69118" lon="6.99253">
        <ele>3038.86</ele>
        <time>2018-08-20T12:03:18Z</time>
      </trkpt>
      <trkpt lat="44.6912" lon="6.99254">
        <ele>3035.98</ele>
        <time>2018-08-20T12:03:30Z</time>
      </trkpt>
      <trkpt lat="44.69124" lon="6.9925">
        <ele>3034.06</ele>
        <time>2018-08-20T12:03:43Z</time>
      </trkpt>
      <trkpt lat="44.69124" lon="6.99263">
        <ele>3033.58</ele>
        <time>2018-08-20T12:03:54Z</time>
      </trkpt>
      <trkpt lat="44.69126" lon="6.99258">
        <ele>3031.66</ele>
        <time>2018-08-20T12:04:04Z</time>
      </trkpt>
      <trkpt lat="44.69128" lon="6.99252">
        <ele>3029.25</ele>
        <time>2018-08-20T12:04:16Z</time>
      </trkpt>
      <trkpt lat="44.6913" lon="6.99246">
        <ele>3027.33</ele>
        <time>2018-08-20T12:04:28Z</time>
      </trkpt>
      <trkpt lat="44.69133" lon="6.99247">
        <ele>3025.89</ele>
        <time>2018-08-20T12:04:41Z</time>
      </trkpt>
      <trkpt lat="44.69133" lon="6.99243">
        <ele>3024.93</ele>
        <time>2018-08-20T12:04:55Z</time>
      </trkpt>
      <trkpt lat="44.69136" lon="6.99239">
        <ele>3023.48</ele>
        <time>2018-08-20T12:05:09Z</time>
      </trkpt>
      <trkpt lat="44.69133" lon="6.99235">
        <ele>3023.48</ele>
        <time>2018-08-20T12:05:21Z</time>
      </trkpt>
      <trkpt lat="44.69134" lon="6.9923">
        <ele>3020.6</ele>
        <time>2018-08-20T12:05:30Z</time>
      </trkpt>
      <trkpt lat="44.69134" lon="6.9923">
        <ele>3019.16</ele>
        <time>2018-08-20T12:05:46Z</time>
      </trkpt>
      <trkpt lat="44.69133" lon="6.99227">
        <ele>3017.72</ele>
        <time>2018-08-20T12:05:59Z</time>
      </trkpt>
      <trkpt lat="44.69137" lon="6.99221">
        <ele>3014.83</ele>
        <time>2018-08-20T12:06:12Z</time>
      </trkpt>
      <trkpt lat="44.69136" lon="6.99212">
        <ele>3012.91</ele>
        <time>2018-08-20T12:06:21Z</time>
      </trkpt>
      <trkpt lat="44.69136" lon="6.99198">
        <ele>3011.47</ele>
        <time>2018-08-20T12:06:34Z</time>
      </trkpt>
      <trkpt lat="44.69135" lon="6.99194">
        <ele>3009.06</ele>
        <time>2018-08-20T12:06:48Z</time>
      </trkpt>
      <trkpt lat="44.69135" lon="6.99191">
        <ele>3006.18</ele>
        <time>2018-08-20T12:07:03Z</time>
      </trkpt>
      <trkpt lat="44.69134" lon="6.99188">
        <ele>3004.74</ele>
        <time>2018-08-20T12:07:17Z</time>
      </trkpt>
      <trkpt lat="44.69133" lon="6.99185">
        <ele>3001.37</ele>
        <time>2018-08-20T12:07:29Z</time>
      </trkpt>
      <trkpt lat="44.69133" lon="6.99186">
        <ele>3000.41</ele>
        <time>2018-08-20T12:07:46Z</time>
      </trkpt>
      <trkpt lat="44.69131" lon="6.99184">
        <ele>2998.97</ele>
        <time>2018-08-20T12:08:01Z</time>
      </trkpt>
      <trkpt lat="44.69128" lon="6.99179">
        <ele>2997.05</ele>
        <time>2018-08-20T12:08:16Z</time>
      </trkpt>
      <trkpt lat="44.69126" lon="6.99174">
        <ele>2994.64</ele>
        <time>2018-08-20T12:08:29Z</time>
      </trkpt>
      <trkpt lat="44.69126" lon="6.99171">
        <ele>2993.2</ele>
        <time>2018-08-20T12:08:42Z</time>
      </trkpt>
      <trkpt lat="44.69126" lon="6.99173">
        <ele>2993.2</ele>
        <time>2018-08-20T12:09:13Z</time>
      </trkpt>
      <trkpt lat="44.69126" lon="6.99174">
        <ele>2993.2</ele>
        <time>2018-08-20T12:09:32Z</time>
      </trkpt>
      <trkpt lat="44.69126" lon="6.99174">
        <ele>2993.2</ele>
        <time>2018-08-20T12:10:01Z</time>
      </trkpt>
      <trkpt lat="44.69127" lon="6.99172">
        <ele>2991.28</ele>
        <time>2018-08-20T12:10:17Z</time>
      </trkpt>
      <trkpt lat="44.69125" lon="6.99167">
        <ele>2990.32</ele>
        <time>2018-08-20T12:10:27Z</time>
      </trkpt>
      <trkpt lat="44.69124" lon="6.99166">
        <ele>2987.91</ele>
        <time>2018-08-20T12:10:39Z</time>
      </trkpt>
      <trkpt lat="44.69121" lon="6.99162">
        <ele>2985.99</ele>
        <time>2018-08-20T12:10:54Z</time>
      </trkpt>
      <trkpt lat="44.69119" lon="6.99157">
        <ele>2983.59</ele>
        <time>2018-08-20T12:11:05Z</time>
      </trkpt>
      <trkpt lat="44.6912" lon="6.99154">
        <ele>2981.67</ele>
        <time>2018-08-20T12:11:20Z</time>
      </trkpt>
      <trkpt lat="44.69118" lon="6.99154">
        <ele>2980.71</ele>
        <time>2018-08-20T12:11:32Z</time>
      </trkpt>
      <trkpt lat="44.69121" lon="6.99153">
        <ele>2980.22</ele>
        <time>2018-08-20T12:11:49Z</time>
      </trkpt>
      <trkpt lat="44.69126" lon="6.99151">
        <ele>2979.26</ele>
        <time>2018-08-20T12:12:02Z</time>
      </trkpt>
      <trkpt lat="44.69127" lon="6.9915">
        <ele>2977.82</ele>
        <time>2018-08-20T12:12:04Z</time>
      </trkpt>
      <trkpt lat="44.69129" lon="6.99149">
        <ele>2976.86</ele>
        <time>2018-08-20T12:12:09Z</time>
      </trkpt>
      <trkpt lat="44.69131" lon="6.99148">
        <ele>2976.38</ele>
        <time>2018-08-20T12:12:12Z</time>
      </trkpt>
      <trkpt lat="44.69142" lon="6.99147">
        <ele>2974.46</ele>
        <time>2018-08-20T12:12:23Z</time>
      </trkpt>
      <trkpt lat="44.6915" lon="6.99143">
        <ele>2973.5</ele>
        <time>2018-08-20T12:12:31Z</time>
      </trkpt>
      <trkpt lat="44.69153" lon="6.99137">
        <ele>2971.57</ele>
        <time>2018-08-20T12:12:44Z</time>
      </trkpt>
      <trkpt lat="44.69153" lon="6.99136">
        <ele>2971.57</ele>
        <time>2018-08-20T12:12:45Z</time>
      </trkpt>
      <trkpt lat="44.69155" lon="6.99122">
        <ele>2968.69</ele>
        <time>2018-08-20T12:12:58Z</time>
      </trkpt>
      <trkpt lat="44.69159" lon="6.99112">
        <ele>2965.32</ele>
        <time>2018-08-20T12:13:10Z</time>
      </trkpt>
      <trkpt lat="44.69164" lon="6.99102">
        <ele>2962.44</ele>
        <time>2018-08-20T12:13:22Z</time>
      </trkpt>
      <trkpt lat="44.69167" lon="6.99096">
        <ele>2960.04</ele>
        <time>2018-08-20T12:13:28Z</time>
      </trkpt>
      <trkpt lat="44.69172" lon="6.99093">
        <ele>2958.11</ele>
        <time>2018-08-20T12:13:33Z</time>
      </trkpt>
      <trkpt lat="44.69188" lon="6.99084">
        <ele>2954.75</ele>
        <time>2018-08-20T12:13:46Z</time>
      </trkpt>
      <trkpt lat="44.69193" lon="6.99079">
        <ele>2953.79</ele>
        <time>2018-08-20T12:13:52Z</time>
      </trkpt>
      <trkpt lat="44.69196" lon="6.99068">
        <ele>2949.46</ele>
        <time>2018-08-20T12:14:01Z</time>
      </trkpt>
      <trkpt lat="44.69198" lon="6.99056">
        <ele>2946.1</ele>
        <time>2018-08-20T12:14:09Z</time>
      </trkpt>
      <trkpt lat="44.69205" lon="6.99045">
        <ele>2943.21</ele>
        <time>2018-08-20T12:14:17Z</time>
      </trkpt>
      <trkpt lat="44.69209" lon="6.99041">
        <ele>2943.21</ele>
        <time>2018-08-20T12:14:22Z</time>
      </trkpt>
      <trkpt lat="44.69206" lon="6.9903">
        <ele>2940.81</ele>
        <time>2018-08-20T12:14:31Z</time>
      </trkpt>
      <trkpt lat="44.69207" lon="6.99027">
        <ele>2940.33</ele>
        <time>2018-08-20T12:14:33Z</time>
      </trkpt>
      <trkpt lat="44.69211" lon="6.99023">
        <ele>2938.41</ele>
        <time>2018-08-20T12:14:39Z</time>
      </trkpt>
      <trkpt lat="44.69225" lon="6.99003">
        <ele>2934.56</ele>
        <time>2018-08-20T12:14:55Z</time>
      </trkpt>
      <trkpt lat="44.69239" lon="6.98987">
        <ele>2931.2</ele>
        <time>2018-08-20T12:15:10Z</time>
      </trkpt>
      <trkpt lat="44.69254" lon="6.98968">
        <ele>2927.83</ele>
        <time>2018-08-20T12:15:26Z</time>
      </trkpt>
      <trkpt lat="44.69265" lon="6.98947">
        <ele>2925.43</ele>
        <time>2018-08-20T12:15:40Z</time>
      </trkpt>
      <trkpt lat="44.69266" lon="6.98946">
        <ele>2925.43</ele>
        <time>2018-08-20T12:15:41Z</time>
      </trkpt>
      <trkpt lat="44.6927" lon="6.9894">
        <ele>2924.95</ele>
        <time>2018-08-20T12:15:46Z</time>
      </trkpt>
      <trkpt lat="44.69289" lon="6.98925">
        <ele>2921.1</ele>
        <time>2018-08-20T12:16:03Z</time>
      </trkpt>
      <trkpt lat="44.69303" lon="6.98902">
        <ele>2920.62</ele>
        <time>2018-08-20T12:16:20Z</time>
      </trkpt>
      <trkpt lat="44.69303" lon="6.98903">
        <ele>2920.62</ele>
        <time>2018-08-20T12:16:26Z</time>
      </trkpt>
      <trkpt lat="44.69303" lon="6.98906">
        <ele>2922.54</ele>
        <time>2018-08-20T12:16:28Z</time>
      </trkpt>
      <trkpt lat="44.69301" lon="6.98914">
        <ele>2923.03</ele>
        <time>2018-08-20T12:16:34Z</time>
      </trkpt>
      <trkpt lat="44.693" lon="6.98918">
        <ele>2923.03</ele>
        <time>2018-08-20T12:16:39Z</time>
      </trkpt>
      <trkpt lat="44.69302" lon="6.98909">
        <ele>2923.03</ele>
        <time>2018-08-20T12:16:45Z</time>
      </trkpt>
      <trkpt lat="44.69304" lon="6.98895">
        <ele>2923.03</ele>
        <time>2018-08-20T12:17:00Z</time>
      </trkpt>
      <trkpt lat="44.69302" lon="6.98894">
        <ele>2923.03</ele>
        <time>2018-08-20T12:17:08Z</time>
      </trkpt>
      <trkpt lat="44.693" lon="6.98892">
        <ele>2920.14</ele>
        <time>2018-08-20T12:17:13Z</time>
      </trkpt>
      <trkpt lat="44.69301" lon="6.98894">
        <ele>2919.66</ele>
        <time>2018-08-20T12:17:36Z</time>
      </trkpt>
      <trkpt lat="44.69303" lon="6.98894">
        <ele>2919.18</ele>
        <time>2018-08-20T12:18:14Z</time>
      </trkpt>
      <trkpt lat="44.69304" lon="6.98891">
        <ele>2920.14</ele>
        <time>2018-08-20T12:18:50Z</time>
      </trkpt>
      <trkpt lat="44.69305" lon="6.98896">
        <ele>2921.58</ele>
        <time>2018-08-20T12:19:10Z</time>
      </trkpt>
      <trkpt lat="44.69301" lon="6.98917">
        <ele>2923.51</ele>
        <time>2018-08-20T12:19:24Z</time>
      </trkpt>
      <trkpt lat="44.69301" lon="6.98922">
        <ele>2923.51</ele>
        <time>2018-08-20T12:19:27Z</time>
      </trkpt>
      <trkpt lat="44.69301" lon="6.98926">
        <ele>2921.1</ele>
        <time>2018-08-20T12:19:32Z</time>
      </trkpt>
      <trkpt lat="44.693" lon="6.98925">
        <ele>2920.62</ele>
        <time>2018-08-20T12:19:47Z</time>
      </trkpt>
      <trkpt lat="44.693" lon="6.98925">
        <ele>2920.14</ele>
        <time>2018-08-20T12:20:07Z</time>
      </trkpt>
      <trkpt lat="44.69299" lon="6.98924">
        <ele>2920.14</ele>
        <time>2018-08-20T12:20:59Z</time>
      </trkpt>
      <trkpt lat="44.69299" lon="6.98924">
        <ele>2921.1</ele>
        <time>2018-08-20T12:21:17Z</time>
      </trkpt>
      <trkpt lat="44.69299" lon="6.98924">
        <ele>2919.66</ele>
        <time>2018-08-20T12:21:23Z</time>
      </trkpt>
      <trkpt lat="44.693" lon="6.98924">
        <ele>2920.62</ele>
        <time>2018-08-20T12:21:57Z</time>
      </trkpt>
      <trkpt lat="44.69299" lon="6.98925">
        <ele>2919.18</ele>
        <time>2018-08-20T12:22:24Z</time>
      </trkpt>
      <trkpt lat="44.693" lon="6.98926">
        <ele>2919.18</ele>
        <time>2018-08-20T12:22:47Z</time>
      </trkpt>
      <trkpt lat="44.69299" lon="6.98924">
        <ele>2919.18</ele>
        <time>2018-08-20T12:23:01Z</time>
      </trkpt>
      <trkpt lat="44.693" lon="6.98925">
        <ele>2919.18</ele>
        <time>2018-08-20T12:23:18Z</time>
      </trkpt>
      <trkpt lat="44.69299" lon="6.98924">
        <ele>2920.14</ele>
        <time>2018-08-20T12:23:34Z</time>
      </trkpt>
      <trkpt lat="44.69298" lon="6.98924">
        <ele>2920.14</ele>
        <time>2018-08-20T12:23:54Z</time>
      </trkpt>
      <trkpt lat="44.69299" lon="6.98924">
        <ele>2920.14</ele>
        <time>2018-08-20T12:24:15Z</time>
      </trkpt>
      <trkpt lat="44.693" lon="6.98923">
        <ele>2920.14</ele>
        <time>2018-08-20T12:24:30Z</time>
      </trkpt>
      <trkpt lat="44.69299" lon="6.98924">
        <ele>2920.14</ele>
        <time>2018-08-20T12:24:49Z</time>
      </trkpt>
      <trkpt lat="44.693" lon="6.98924">
        <ele>2919.66</ele>
        <time>2018-08-20T12:25:06Z</time>
      </trkpt>
      <trkpt lat="44.693" lon="6.98925">
        <ele>2918.22</ele>
        <time>2018-08-20T12:25:12Z</time>
      </trkpt>
      <trkpt lat="44.693" lon="6.98924">
        <ele>2918.22</ele>
        <time>2018-08-20T12:25:13Z</time>
      </trkpt>
      <trkpt lat="44.69304" lon="6.98902">
        <ele>2917.26</ele>
        <time>2018-08-20T12:25:28Z</time>
      </trkpt>
      <trkpt lat="44.69309" lon="6.98893">
        <ele>2916.78</ele>
        <time>2018-08-20T12:25:36Z</time>
      </trkpt>
      <trkpt lat="44.6931" lon="6.98891">
        <ele>2915.82</ele>
        <time>2018-08-20T12:25:38Z</time>
      </trkpt>
      <trkpt lat="44.69312" lon="6.98886">
        <ele>2913.41</ele>
        <time>2018-08-20T12:25:44Z</time>
      </trkpt>
      <trkpt lat="44.69314" lon="6.98884">
        <ele>2911.49</ele>
        <time>2018-08-20T12:25:47Z</time>
      </trkpt>
      <trkpt lat="44.69316" lon="6.98883">
        <ele>2911.01</ele>
        <time>2018-08-20T12:25:50Z</time>
      </trkpt>
      <trkpt lat="44.69316" lon="6.98878">
        <ele>2909.57</ele>
        <time>2018-08-20T12:25:54Z</time>
      </trkpt>
      <trkpt lat="44.69327" lon="6.98876">
        <ele>2906.2</ele>
        <time>2018-08-20T12:26:03Z</time>
      </trkpt>
      <trkpt lat="44.69329" lon="6.98876">
        <ele>2905.24</ele>
        <time>2018-08-20T12:26:05Z</time>
      </trkpt>
      <trkpt lat="44.69331" lon="6.98878">
        <ele>2904.76</ele>
        <time>2018-08-20T12:26:07Z</time>
      </trkpt>
      <trkpt lat="44.69335" lon="6.98883">
        <ele>2902.84</ele>
        <time>2018-08-20T12:26:12Z</time>
      </trkpt>
      <trkpt lat="44.69337" lon="6.9888">
        <ele>2902.84</ele>
        <time>2018-08-20T12:26:16Z</time>
      </trkpt>
      <trkpt lat="44.69342" lon="6.9888">
        <ele>2898.99</ele>
        <time>2018-08-20T12:26:21Z</time>
      </trkpt>
      <trkpt lat="44.69344" lon="6.98881">
        <ele>2898.03</ele>
        <time>2018-08-20T12:26:23Z</time>
      </trkpt>
      <trkpt lat="44.69348" lon="6.98883">
        <ele>2897.55</ele>
        <time>2018-08-20T12:26:27Z</time>
      </trkpt>
      <trkpt lat="44.69352" lon="6.98879">
        <ele>2896.11</ele>
        <time>2018-08-20T12:26:35Z</time>
      </trkpt>
      <trkpt lat="44.69354" lon="6.98869">
        <ele>2893.23</ele>
        <time>2018-08-20T12:26:43Z</time>
      </trkpt>
      <trkpt lat="44.69369" lon="6.98866">
        <ele>2889.38</ele>
        <time>2018-08-20T12:26:57Z</time>
      </trkpt>
      <trkpt lat="44.69387" lon="6.98865">
        <ele>2886.02</ele>
        <time>2018-08-20T12:27:11Z</time>
      </trkpt>
      <trkpt lat="44.69389" lon="6.98866">
        <ele>2885.05</ele>
        <time>2018-08-20T12:27:13Z</time>
      </trkpt>
      <trkpt lat="44.69398" lon="6.98862">
        <ele>2882.65</ele>
        <time>2018-08-20T12:27:20Z</time>
      </trkpt>
      <trkpt lat="44.69401" lon="6.98862">
        <ele>2881.69</ele>
        <time>2018-08-20T12:27:23Z</time>
      </trkpt>
      <trkpt lat="44.6942" lon="6.98867">
        <ele>2879.77</ele>
        <time>2018-08-20T12:27:37Z</time>
      </trkpt>
      <trkpt lat="44.69443" lon="6.98871">
        <ele>2877.36</ele>
        <time>2018-08-20T12:27:54Z</time>
      </trkpt>
      <trkpt lat="44.69461" lon="6.98862">
        <ele>2876.88</ele>
        <time>2018-08-20T12:28:10Z</time>
      </trkpt>
      <trkpt lat="44.69467" lon="6.98862">
        <ele>2873.04</ele>
        <time>2018-08-20T12:28:20Z</time>
      </trkpt>
      <trkpt lat="44.69469" lon="6.9885">
        <ele>2869.67</ele>
        <time>2018-08-20T12:28:28Z</time>
      </trkpt>
      <trkpt lat="44.69471" lon="6.9885">
        <ele>2867.75</ele>
        <time>2018-08-20T12:28:31Z</time>
      </trkpt>
      <trkpt lat="44.69475" lon="6.98844">
        <ele>2865.35</ele>
        <time>2018-08-20T12:28:38Z</time>
      </trkpt>
      <trkpt lat="44.69483" lon="6.98837">
        <ele>2861.98</ele>
        <time>2018-08-20T12:28:49Z</time>
      </trkpt>
      <trkpt lat="44.69485" lon="6.98825">
        <ele>2858.62</ele>
        <time>2018-08-20T12:29:01Z</time>
      </trkpt>
      <trkpt lat="44.69484" lon="6.98818">
        <ele>2855.73</ele>
        <time>2018-08-20T12:29:09Z</time>
      </trkpt>
      <trkpt lat="44.69486" lon="6.98814">
        <ele>2852.37</ele>
        <time>2018-08-20T12:29:20Z</time>
      </trkpt>
      <trkpt lat="44.69487" lon="6.98801">
        <ele>2848.52</ele>
        <time>2018-08-20T12:29:31Z</time>
      </trkpt>
      <trkpt lat="44.69487" lon="6.9879">
        <ele>2846.12</ele>
        <time>2018-08-20T12:29:39Z</time>
      </trkpt>
      <trkpt lat="44.69487" lon="6.98787">
        <ele>2845.64</ele>
        <time>2018-08-20T12:29:41Z</time>
      </trkpt>
      <trkpt lat="44.6949" lon="6.98782">
        <ele>2843.72</ele>
        <time>2018-08-20T12:29:46Z</time>
      </trkpt>
      <trkpt lat="44.69499" lon="6.98782">
        <ele>2840.83</ele>
        <time>2018-08-20T12:29:54Z</time>
      </trkpt>
      <trkpt lat="44.69506" lon="6.98769">
        <ele>2836.99</ele>
        <time>2018-08-20T12:30:04Z</time>
      </trkpt>
      <trkpt lat="44.69509" lon="6.98764">
        <ele>2836.03</ele>
        <time>2018-08-20T12:30:08Z</time>
      </trkpt>
      <trkpt lat="44.69513" lon="6.98762">
        <ele>2834.1</ele>
        <time>2018-08-20T12:30:11Z</time>
      </trkpt>
      <trkpt lat="44.69514" lon="6.98761">
        <ele>2833.14</ele>
        <time>2018-08-20T12:30:12Z</time>
      </trkpt>
      <trkpt lat="44.69524" lon="6.98754">
        <ele>2829.3</ele>
        <time>2018-08-20T12:30:22Z</time>
      </trkpt>
      <trkpt lat="44.69536" lon="6.98742">
        <ele>2826.41</ele>
        <time>2018-08-20T12:30:33Z</time>
      </trkpt>
      <trkpt lat="44.69553" lon="6.98718">
        <ele>2824.97</ele>
        <time>2018-08-20T12:30:51Z</time>
      </trkpt>
      <trkpt lat="44.69561" lon="6.98694">
        <ele>2822.09</ele>
        <time>2018-08-20T12:31:05Z</time>
      </trkpt>
      <trkpt lat="44.69564" lon="6.98676">
        <ele>2818.24</ele>
        <time>2018-08-20T12:31:16Z</time>
      </trkpt>
      <trkpt lat="44.69563" lon="6.98666">
        <ele>2816.8</ele>
        <time>2018-08-20T12:31:22Z</time>
      </trkpt>
      <trkpt lat="44.69548" lon="6.98661">
        <ele>2814.88</ele>
        <time>2018-08-20T12:31:35Z</time>
      </trkpt>
      <trkpt lat="44.69539" lon="6.98651">
        <ele>2812.96</ele>
        <time>2018-08-20T12:31:46Z</time>
      </trkpt>
      <trkpt lat="44.69533" lon="6.98634">
        <ele>2809.59</ele>
        <time>2018-08-20T12:31:57Z</time>
      </trkpt>
      <trkpt lat="44.69529" lon="6.98618">
        <ele>2806.23</ele>
        <time>2018-08-20T12:32:07Z</time>
      </trkpt>
      <trkpt lat="44.69525" lon="6.98602">
        <ele>2803.34</ele>
        <time>2018-08-20T12:32:17Z</time>
      </trkpt>
      <trkpt lat="44.69525" lon="6.98595">
        <ele>2802.38</ele>
        <time>2018-08-20T12:32:21Z</time>
      </trkpt>
      <trkpt lat="44.69516" lon="6.98586">
        <ele>2800.94</ele>
        <time>2018-08-20T12:32:33Z</time>
      </trkpt>
      <trkpt lat="44.69515" lon="6.98585">
        <ele>2800.94</ele>
        <time>2018-08-20T12:32:34Z</time>
      </trkpt>
      <trkpt lat="44.69499" lon="6.9858">
        <ele>2797.57</ele>
        <time>2018-08-20T12:32:50Z</time>
      </trkpt>
      <trkpt lat="44.69481" lon="6.98566">
        <ele>2795.17</ele>
        <time>2018-08-20T12:33:06Z</time>
      </trkpt>
      <trkpt lat="44.6946" lon="6.98556">
        <ele>2792.29</ele>
        <time>2018-08-20T12:33:23Z</time>
      </trkpt>
      <trkpt lat="44.69446" lon="6.98538">
        <ele>2789.4</ele>
        <time>2018-08-20T12:33:40Z</time>
      </trkpt>
      <trkpt lat="44.69442" lon="6.98533">
        <ele>2787.96</ele>
        <time>2018-08-20T12:33:44Z</time>
      </trkpt>
      <trkpt lat="44.69441" lon="6.98521">
        <ele>2785.08</ele>
        <time>2018-08-20T12:33:51Z</time>
      </trkpt>
      <trkpt lat="44.69443" lon="6.98503">
        <ele>2781.71</ele>
        <time>2018-08-20T12:34:01Z</time>
      </trkpt>
      <trkpt lat="44.69443" lon="6.985">
        <ele>2781.71</ele>
        <time>2018-08-20T12:34:03Z</time>
      </trkpt>
      <trkpt lat="44.69437" lon="6.98481">
        <ele>2778.35</ele>
        <time>2018-08-20T12:34:14Z</time>
      </trkpt>
      <trkpt lat="44.69432" lon="6.98458">
        <ele>2776.42</ele>
        <time>2018-08-20T12:34:27Z</time>
      </trkpt>
      <trkpt lat="44.69417" lon="6.98438">
        <ele>2773.06</ele>
        <time>2018-08-20T12:34:43Z</time>
      </trkpt>
      <trkpt lat="44.69412" lon="6.98422">
        <ele>2770.18</ele>
        <time>2018-08-20T12:34:52Z</time>
      </trkpt>
      <trkpt lat="44.69401" lon="6.98413">
        <ele>2769.21</ele>
        <time>2018-08-20T12:35:02Z</time>
      </trkpt>
      <trkpt lat="44.6939" lon="6.98384">
        <ele>2765.37</ele>
        <time>2018-08-20T12:35:20Z</time>
      </trkpt>
      <trkpt lat="44.69376" lon="6.98361">
        <ele>2762</ele>
        <time>2018-08-20T12:35:37Z</time>
      </trkpt>
      <trkpt lat="44.69366" lon="6.98348">
        <ele>2759.12</ele>
        <time>2018-08-20T12:35:48Z</time>
      </trkpt>
      <trkpt lat="44.69365" lon="6.98347">
        <ele>2758.64</ele>
        <time>2018-08-20T12:35:49Z</time>
      </trkpt>
      <trkpt lat="44.69349" lon="6.98329">
        <ele>2754.8</ele>
        <time>2018-08-20T12:36:04Z</time>
      </trkpt>
      <trkpt lat="44.69339" lon="6.98308">
        <ele>2751.43</ele>
        <time>2018-08-20T12:36:17Z</time>
      </trkpt>
      <trkpt lat="44.69329" lon="6.98288">
        <ele>2748.55</ele>
        <time>2018-08-20T12:36:31Z</time>
      </trkpt>
      <trkpt lat="44.69314" lon="6.98272">
        <ele>2745.18</ele>
        <time>2018-08-20T12:36:46Z</time>
      </trkpt>
      <trkpt lat="44.69303" lon="6.98255">
        <ele>2744.7</ele>
        <time>2018-08-20T12:36:59Z</time>
      </trkpt>
      <trkpt lat="44.69293" lon="6.98234">
        <ele>2741.34</ele>
        <time>2018-08-20T12:37:13Z</time>
      </trkpt>
      <trkpt lat="44.69276" lon="6.98208">
        <ele>2739.41</ele>
        <time>2018-08-20T12:37:32Z</time>
      </trkpt>
      <trkpt lat="44.69265" lon="6.98179">
        <ele>2737.97</ele>
        <time>2018-08-20T12:37:50Z</time>
      </trkpt>
      <trkpt lat="44.69256" lon="6.98146">
        <ele>2737.97</ele>
        <time>2018-08-20T12:38:09Z</time>
      </trkpt>
      <trkpt lat="44.69242" lon="6.98125">
        <ele>2734.61</ele>
        <time>2018-08-20T12:38:25Z</time>
      </trkpt>
      <trkpt lat="44.69229" lon="6.98106">
        <ele>2731.24</ele>
        <time>2018-08-20T12:38:40Z</time>
      </trkpt>
      <trkpt lat="44.69219" lon="6.98083">
        <ele>2727.88</ele>
        <time>2018-08-20T12:38:57Z</time>
      </trkpt>
      <trkpt lat="44.69225" lon="6.98074">
        <ele>2724.99</ele>
        <time>2018-08-20T12:39:05Z</time>
      </trkpt>
      <trkpt lat="44.69225" lon="6.98073">
        <ele>2724.51</ele>
        <time>2018-08-20T12:39:06Z</time>
      </trkpt>
      <trkpt lat="44.69217" lon="6.98073">
        <ele>2722.59</ele>
        <time>2018-08-20T12:39:12Z</time>
      </trkpt>
      <trkpt lat="44.69198" lon="6.98071">
        <ele>2718.75</ele>
        <time>2018-08-20T12:39:26Z</time>
      </trkpt>
      <trkpt lat="44.69194" lon="6.98071">
        <ele>2717.3</ele>
        <time>2018-08-20T12:39:30Z</time>
      </trkpt>
      <trkpt lat="44.69189" lon="6.9807">
        <ele>2715.86</ele>
        <time>2018-08-20T12:39:34Z</time>
      </trkpt>
      <trkpt lat="44.69175" lon="6.98068">
        <ele>2712.98</ele>
        <time>2018-08-20T12:39:46Z</time>
      </trkpt>
      <trkpt lat="44.69173" lon="6.98068">
        <ele>2712.5</ele>
        <time>2018-08-20T12:39:49Z</time>
      </trkpt>
      <trkpt lat="44.69169" lon="6.98068">
        <ele>2712.02</ele>
        <time>2018-08-20T12:39:53Z</time>
      </trkpt>
      <trkpt lat="44.69168" lon="6.98061">
        <ele>2710.57</ele>
        <time>2018-08-20T12:39:57Z</time>
      </trkpt>
      <trkpt lat="44.69169" lon="6.98056">
        <ele>2709.61</ele>
        <time>2018-08-20T12:40:00Z</time>
      </trkpt>
      <trkpt lat="44.69159" lon="6.98054">
        <ele>2707.69</ele>
        <time>2018-08-20T12:40:08Z</time>
      </trkpt>
      <trkpt lat="44.69156" lon="6.98055">
        <ele>2706.25</ele>
        <time>2018-08-20T12:40:11Z</time>
      </trkpt>
      <trkpt lat="44.69153" lon="6.98049">
        <ele>2704.81</ele>
        <time>2018-08-20T12:40:15Z</time>
      </trkpt>
      <trkpt lat="44.69165" lon="6.98025">
        <ele>2702.4</ele>
        <time>2018-08-20T12:40:31Z</time>
      </trkpt>
      <trkpt lat="44.69166" lon="6.98024">
        <ele>2701.92</ele>
        <time>2018-08-20T12:40:32Z</time>
      </trkpt>
      <trkpt lat="44.6917" lon="6.98021">
        <ele>2700.96</ele>
        <time>2018-08-20T12:40:36Z</time>
      </trkpt>
      <trkpt lat="44.69164" lon="6.98007">
        <ele>2697.6</ele>
        <time>2018-08-20T12:40:48Z</time>
      </trkpt>
      <trkpt lat="44.69171" lon="6.97998">
        <ele>2694.71</ele>
        <time>2018-08-20T12:40:55Z</time>
      </trkpt>
      <trkpt lat="44.69187" lon="6.97988">
        <ele>2690.87</ele>
        <time>2018-08-20T12:41:09Z</time>
      </trkpt>
      <trkpt lat="44.6919" lon="6.97987">
        <ele>2689.91</ele>
        <time>2018-08-20T12:41:11Z</time>
      </trkpt>
      <trkpt lat="44.69187" lon="6.97977">
        <ele>2688.46</ele>
        <time>2018-08-20T12:41:17Z</time>
      </trkpt>
      <trkpt lat="44.69203" lon="6.97965">
        <ele>2685.1</ele>
        <time>2018-08-20T12:41:32Z</time>
      </trkpt>
      <trkpt lat="44.69216" lon="6.97949">
        <ele>2681.73</ele>
        <time>2018-08-20T12:41:45Z</time>
      </trkpt>
      <trkpt lat="44.6922" lon="6.97945">
        <ele>2681.25</ele>
        <time>2018-08-20T12:41:48Z</time>
      </trkpt>
      <trkpt lat="44.69222" lon="6.97938">
        <ele>2680.77</ele>
        <time>2018-08-20T12:41:52Z</time>
      </trkpt>
      <trkpt lat="44.69238" lon="6.9792">
        <ele>2677.41</ele>
        <time>2018-08-20T12:42:08Z</time>
      </trkpt>
      <trkpt lat="44.69259" lon="6.97901">
        <ele>2675.97</ele>
        <time>2018-08-20T12:42:26Z</time>
      </trkpt>
      <trkpt lat="44.69278" lon="6.97884">
        <ele>2673.56</ele>
        <time>2018-08-20T12:42:43Z</time>
      </trkpt>
      <trkpt lat="44.69283" lon="6.97871">
        <ele>2672.6</ele>
        <time>2018-08-20T12:42:51Z</time>
      </trkpt>
      <trkpt lat="44.69285" lon="6.97862">
        <ele>2672.6</ele>
        <time>2018-08-20T12:42:56Z</time>
      </trkpt>
      <trkpt lat="44.69287" lon="6.97848">
        <ele>2672.12</ele>
        <time>2018-08-20T12:43:04Z</time>
      </trkpt>
      <trkpt lat="44.6929" lon="6.97832">
        <ele>2671.16</ele>
        <time>2018-08-20T12:43:13Z</time>
      </trkpt>
      <trkpt lat="44.6929" lon="6.97823">
        <ele>2671.16</ele>
        <time>2018-08-20T12:43:18Z</time>
      </trkpt>
      <trkpt lat="44.69294" lon="6.97787">
        <ele>2670.2</ele>
        <time>2018-08-20T12:43:37Z</time>
      </trkpt>
      <trkpt lat="44.69289" lon="6.97758">
        <ele>2668.28</ele>
        <time>2018-08-20T12:43:53Z</time>
      </trkpt>
      <trkpt lat="44.69289" lon="6.97722">
        <ele>2666.35</ele>
        <time>2018-08-20T12:44:12Z</time>
      </trkpt>
      <trkpt lat="44.69293" lon="6.97694">
        <ele>2664.91</ele>
        <time>2018-08-20T12:44:29Z</time>
      </trkpt>
      <trkpt lat="44.69297" lon="6.97662">
        <ele>2663.95</ele>
        <time>2018-08-20T12:44:46Z</time>
      </trkpt>
      <trkpt lat="44.69298" lon="6.97628">
        <ele>2662.51</ele>
        <time>2018-08-20T12:45:05Z</time>
      </trkpt>
      <trkpt lat="44.69296" lon="6.976">
        <ele>2661.55</ele>
        <time>2018-08-20T12:45:21Z</time>
      </trkpt>
      <trkpt lat="44.69293" lon="6.97588">
        <ele>2660.11</ele>
        <time>2018-08-20T12:45:36Z</time>
      </trkpt>
      <trkpt lat="44.69297" lon="6.9759">
        <ele>2659.62</ele>
        <time>2018-08-20T12:46:01Z</time>
      </trkpt>
      <trkpt lat="44.69298" lon="6.9759">
        <ele>2659.14</ele>
        <time>2018-08-20T12:46:27Z</time>
      </trkpt>
      <trkpt lat="44.69296" lon="6.97588">
        <ele>2659.14</ele>
        <time>2018-08-20T12:46:42Z</time>
      </trkpt>
      <trkpt lat="44.69286" lon="6.9757">
        <ele>2657.7</ele>
        <time>2018-08-20T12:46:53Z</time>
      </trkpt>
      <trkpt lat="44.69278" lon="6.97546">
        <ele>2654.82</ele>
        <time>2018-08-20T12:47:09Z</time>
      </trkpt>
      <trkpt lat="44.69273" lon="6.97523">
        <ele>2651.45</ele>
        <time>2018-08-20T12:47:24Z</time>
      </trkpt>
      <trkpt lat="44.69269" lon="6.97495">
        <ele>2648.57</ele>
        <time>2018-08-20T12:47:40Z</time>
      </trkpt>
      <trkpt lat="44.69264" lon="6.97465">
        <ele>2646.65</ele>
        <time>2018-08-20T12:47:57Z</time>
      </trkpt>
      <trkpt lat="44.69261" lon="6.97437">
        <ele>2644.72</ele>
        <time>2018-08-20T12:48:14Z</time>
      </trkpt>
      <trkpt lat="44.69265" lon="6.97417">
        <ele>2642.8</ele>
        <time>2018-08-20T12:48:28Z</time>
      </trkpt>
      <trkpt lat="44.69266" lon="6.9741">
        <ele>2642.32</ele>
        <time>2018-08-20T12:48:32Z</time>
      </trkpt>
      <trkpt lat="44.69268" lon="6.97384">
        <ele>2641.84</ele>
        <time>2018-08-20T12:48:48Z</time>
      </trkpt>
      <trkpt lat="44.69275" lon="6.97361">
        <ele>2640.4</ele>
        <time>2018-08-20T12:49:02Z</time>
      </trkpt>
      <trkpt lat="44.69274" lon="6.9735">
        <ele>2638.96</ele>
        <time>2018-08-20T12:49:09Z</time>
      </trkpt>
      <trkpt lat="44.69276" lon="6.97317">
        <ele>2635.59</ele>
        <time>2018-08-20T12:49:29Z</time>
      </trkpt>
      <trkpt lat="44.69277" lon="6.97306">
        <ele>2635.11</ele>
        <time>2018-08-20T12:49:35Z</time>
      </trkpt>
      <trkpt lat="44.69278" lon="6.97302">
        <ele>2634.63</ele>
        <time>2018-08-20T12:49:38Z</time>
      </trkpt>
      <trkpt lat="44.69276" lon="6.97295">
        <ele>2633.67</ele>
        <time>2018-08-20T12:49:42Z</time>
      </trkpt>
      <trkpt lat="44.69275" lon="6.97263">
        <ele>2630.3</ele>
        <time>2018-08-20T12:50:00Z</time>
      </trkpt>
      <trkpt lat="44.69273" lon="6.97239">
        <ele>2627.9</ele>
        <time>2018-08-20T12:50:14Z</time>
      </trkpt>
      <trkpt lat="44.69269" lon="6.97204">
        <ele>2625.5</ele>
        <time>2018-08-20T12:50:33Z</time>
      </trkpt>
      <trkpt lat="44.69269" lon="6.97177">
        <ele>2623.09</ele>
        <time>2018-08-20T12:50:49Z</time>
      </trkpt>
      <trkpt lat="44.69269" lon="6.97165">
        <ele>2621.17</ele>
        <time>2018-08-20T12:50:57Z</time>
      </trkpt>
      <trkpt lat="44.69266" lon="6.97145">
        <ele>2618.29</ele>
        <time>2018-08-20T12:51:10Z</time>
      </trkpt>
      <trkpt lat="44.69266" lon="6.97125">
        <ele>2614.92</ele>
        <time>2018-08-20T12:51:23Z</time>
      </trkpt>
      <trkpt lat="44.6927" lon="6.97106">
        <ele>2611.56</ele>
        <time>2018-08-20T12:51:35Z</time>
      </trkpt>
      <trkpt lat="44.69271" lon="6.97096">
        <ele>2610.12</ele>
        <time>2018-08-20T12:51:42Z</time>
      </trkpt>
      <trkpt lat="44.69271" lon="6.97091">
        <ele>2608.67</ele>
        <time>2018-08-20T12:51:45Z</time>
      </trkpt>
      <trkpt lat="44.69268" lon="6.97085">
        <ele>2607.23</ele>
        <time>2018-08-20T12:51:50Z</time>
      </trkpt>
      <trkpt lat="44.69264" lon="6.97071">
        <ele>2604.35</ele>
        <time>2018-08-20T12:52:01Z</time>
      </trkpt>
      <trkpt lat="44.6926" lon="6.97057">
        <ele>2601.46</ele>
        <time>2018-08-20T12:52:12Z</time>
      </trkpt>
      <trkpt lat="44.69259" lon="6.97055">
        <ele>2600.98</ele>
        <time>2018-08-20T12:52:14Z</time>
      </trkpt>
      <trkpt lat="44.69256" lon="6.97046">
        <ele>2598.58</ele>
        <time>2018-08-20T12:52:21Z</time>
      </trkpt>
      <trkpt lat="44.69248" lon="6.97039">
        <ele>2596.66</ele>
        <time>2018-08-20T12:52:31Z</time>
      </trkpt>
      <trkpt lat="44.69245" lon="6.97045">
        <ele>2595.7</ele>
        <time>2018-08-20T12:52:35Z</time>
      </trkpt>
      <trkpt lat="44.69239" lon="6.97053">
        <ele>2594.74</ele>
        <time>2018-08-20T12:52:43Z</time>
      </trkpt>
      <trkpt lat="44.69233" lon="6.97061">
        <ele>2593.29</ele>
        <time>2018-08-20T12:52:52Z</time>
      </trkpt>
      <trkpt lat="44.69228" lon="6.97061">
        <ele>2591.37</ele>
        <time>2018-08-20T12:52:58Z</time>
      </trkpt>
      <trkpt lat="44.69222" lon="6.97064">
        <ele>2589.45</ele>
        <time>2018-08-20T12:53:04Z</time>
      </trkpt>
      <trkpt lat="44.6922" lon="6.97065">
        <ele>2588.01</ele>
        <time>2018-08-20T12:53:08Z</time>
      </trkpt>
      <trkpt lat="44.69216" lon="6.97067">
        <ele>2586.56</ele>
        <time>2018-08-20T12:53:13Z</time>
      </trkpt>
      <trkpt lat="44.69213" lon="6.97069">
        <ele>2585.6</ele>
        <time>2018-08-20T12:53:16Z</time>
      </trkpt>
      <trkpt lat="44.6921" lon="6.97071">
        <ele>2584.64</ele>
        <time>2018-08-20T12:53:20Z</time>
      </trkpt>
      <trkpt lat="44.69205" lon="6.97079">
        <ele>2583.68</ele>
        <time>2018-08-20T12:53:26Z</time>
      </trkpt>
      <trkpt lat="44.69185" lon="6.97087">
        <ele>2583.68</ele>
        <time>2018-08-20T12:53:43Z</time>
      </trkpt>
      <trkpt lat="44.69175" lon="6.97094">
        <ele>2583.68</ele>
        <time>2018-08-20T12:53:53Z</time>
      </trkpt>
      <trkpt lat="44.69167" lon="6.97093">
        <ele>2584.64</ele>
        <time>2018-08-20T12:54:01Z</time>
      </trkpt>
      <trkpt lat="44.69166" lon="6.97094">
        <ele>2584.64</ele>
        <time>2018-08-20T12:54:03Z</time>
      </trkpt>
      <trkpt lat="44.6915" lon="6.97105">
        <ele>2585.6</ele>
        <time>2018-08-20T12:54:19Z</time>
      </trkpt>
      <trkpt lat="44.69147" lon="6.97106">
        <ele>2585.6</ele>
        <time>2018-08-20T12:54:22Z</time>
      </trkpt>
      <trkpt lat="44.69127" lon="6.97111">
        <ele>2585.6</ele>
        <time>2018-08-20T12:54:39Z</time>
      </trkpt>
      <trkpt lat="44.69108" lon="6.9712">
        <ele>2585.6</ele>
        <time>2018-08-20T12:54:55Z</time>
      </trkpt>
      <trkpt lat="44.69103" lon="6.97125">
        <ele>2585.6</ele>
        <time>2018-08-20T12:55:00Z</time>
      </trkpt>
      <trkpt lat="44.69099" lon="6.97145">
        <ele>2586.56</ele>
        <time>2018-08-20T12:55:16Z</time>
      </trkpt>
      <trkpt lat="44.69095" lon="6.97158">
        <ele>2586.56</ele>
        <time>2018-08-20T12:55:31Z</time>
      </trkpt>
      <trkpt lat="44.69093" lon="6.97157">
        <ele>2587.04</ele>
        <time>2018-08-20T12:55:55Z</time>
      </trkpt>
      <trkpt lat="44.69092" lon="6.97157">
        <ele>2587.04</ele>
        <time>2018-08-20T12:56:23Z</time>
      </trkpt>
      <trkpt lat="44.69089" lon="6.97161">
        <ele>2586.56</ele>
        <time>2018-08-20T12:56:35Z</time>
      </trkpt>
      <trkpt lat="44.69086" lon="6.9716">
        <ele>2586.08</ele>
        <time>2018-08-20T12:56:49Z</time>
      </trkpt>
    </trkseg>
  </trk>
</gpx>